[[{"header":{"parameterUnit":"m.s-1","parameterCategory":1,"la1":30.6,"la2":28.766,"lo1":-90.7593,"lo2":-88.6598,"dy":0.0162,"dx":0.0183,"nx":116,"ny":114,"refTime":"2023-07-18T06:00:00:Z","depth":0,"parameterNumber":2,"parameterNumberName":"U-component_of_WINDS"},"data":[0.0,0.0,0.0,0.0,0.0,0.0,0.0,0.0,0.0,0.0,0.0,0.0,0.0,0.0,0.0,0.0,0.0,0.0,0.0,0.0,0.0,0.0,0.0,0.0,0.0,0.0,0.0,0.0,0.0,0.0,0.0,0.0,0.0,0.0,0.0,0.0,0.0,0.0,0.0,0.0,0.0,0.0,0.0,0.0,0.0,0.0,0.0,0.0,0.0,0.0,0.0,0.0,0.0,0.0,0.0,0.0,0.0,0.0,0.0,0.0,0.0,0.0,0.0,0.0,0.0,0.0,0.0,0.0,0.0,0.0,0.0,0.0,0.0,0.0,0.0,0.0,0.0,0.0,0.0,0.0,0.0,0.0,0.0,0.0,0.0,0.0,0.0,0.0,0.0,0.0,0.0,0.0,0.0,0.0,0.0,0.0,0.0,0.0,0.0,0.0,0.0,0.0,0.0,0.0,0.0,0.0,0.0,0.0,0.0,0.0,0.0,0.0,0.0,0.0,0.0,0.0,0.0,0.0,0.0,0.0,0.0,0.0,0.0,0.0,0.0,0.0,0.0,0.0,0.0,0.0,0.0,0.0,0.0,0.0,0.0,0.0,0.0,0.0,0.0,0.0,0.0,0.0,0.0,0.0,0.0,0.0,0.0,0.0,0.0,0.0,0.0,0.0,0.0,0.0,0.0,0.0,0.0,0.0,0.0,0.0,0.0,0.0,0.0,0.0,0.0,0.0,0.0,0.0,0.0,0.0,0.0,0.0,0.0,0.0,0.0,0.0,0.0,0.0,0.0,0.0,0.0,0.0,0.0,0.0,0.0,0.0,0.0,0.0,0.0,0.0,0.0,0.0,0.0,0.0,0.0,0.0,0.0,0.0,0.0,0.0,0.0,0.0,0.0,0.0,0.0,0.0,0.0,0.0,0.0,0.0,0.0,0.0,0.0,0.0,0.0,0.0,0.0,0.0,0.0,0.0,0.0,0.0,0.0,0.0,0.0,0.0,0.0,0.0,0.0,0.0,0.0,0.0,0.0,0.0,0.0,0.0,0.0,0.0,0.0,0.0,0.0,0.0,0.0,0.0,0.0,0.0,0.0,0.0,0.0,0.0,0.0,0.0,0.0,0.0,0.0,0.0,0.0,0.0,0.0,0.0,0.0,0.0,0.0,0.0,0.0,0.0,0.0,0.0,0.0,0.0,0.0,0.0,0.0,0.0,0.0,0.0,0.0,0.0,0.0,0.0,0.0,0.0,0.0,0.0,0.0,0.0,0.0,0.0,0.0,0.0,0.0,0.0,0.0,0.0,0.0,0.0,0.0,0.0,0.0,0.0,0.0,0.0,0.0,0.0,0.0,0.0,0.0,0.0,0.0,0.0,0.0,0.0,0.0,0.0,0.0,0.0,0.0,0.0,0.0,0.0,0.0,0.0,0.0,0.0,0.0,0.0,0.0,0.0,0.0,0.0,0.0,0.0,0.0,0.0,0.0,0.0,0.0,0.0,0.0,0.0,0.0,0.0,0.0,0.0,0.0,0.0,0.0,0.0,0.0,0.0,0.0,0.0,0.0,0.0,0.0,0.0,0.0,0.0,0.0,0.0,0.0,0.0,0.0,0.0,0.0,0.0,0.0,0.0,0.0,0.0,0.0,0.0,0.0,0.0,0.0,0.0,0.0,0.0,0.0,0.0,0.0,0.0,0.0,0.0,0.0,0.0,0.0,0.0,0.0,0.0,0.0,0.0,0.0,0.0,0.0,0.0,0.0,0.0,0.0,0.0,0.0,0.0,0.0,0.0,0.0,0.0,0.0,0.0,0.0,0.0,0.0,0.0,0.0,0.0,0.0,0.0,0.0,0.0,0.0,0.0,0.0,0.0,0.0,0.0,0.0,0.0,0.0,0.0,0.0,0.0,0.0,0.0,0.0,0.0,0.0,0.0,0.0,0.0,0.0,0.0,0.0,0.0,0.0,0.0,0.0,0.0,0.0,0.0,0.0,0.0,0.0,0.0,0.0,0.0,0.0,0.0,0.0,0.0,0.0,0.0,0.0,0.0,0.0,0.0,0.0,0.0,0.0,0.0,0.0,0.0,0.0,0.0,0.0,0.0,0.0,0.0,0.0,0.0,0.0,0.0,0.0,0.0,0.0,0.0,0.0,0.0,0.0,0.0,0.0,0.0,0.0,0.0,0.0,0.0,0.0,0.0,0.0,0.0,0.0,0.0,0.0,0.0,0.0,0.0,0.0,0.0,0.0,0.0,0.0,0.0,0.0,0.0,0.0,0.0,0.0,0.0,0.0,0.0,0.0,0.0,0.0,0.0,0.0,0.0,0.0,0.0,0.0,0.0,0.0,0.0,0.0,0.0,0.0,0.0,0.0,0.0,0.0,0.0,0.0,0.0,0.0,0.0,0.0,0.0,0.0,0.0,0.0,0.0,0.0,0.0,0.0,0.0,0.0,0.0,0.0,0.0,0.0,0.0,0.0,0.0,0.0,0.0,0.0,0.0,0.0,0.0,0.0,0.0,0.0,0.0,0.0,0.0,0.0,0.0,0.0,0.0,0.0,0.0,0.0,0.0,0.0,0.0,0.0,0.0,0.0,0.0,0.0,0.0,0.0,0.0,0.0,0.0,0.0,0.0,0.0,0.0,0.0,0.0,0.0,0.0,0.0,0.0,0.0,0.0,0.0,0.0,0.0,0.0,0.0,0.0,0.0,0.0,0.0,0.0,0.0,0.0,0.0,0.0,0.0,0.0,0.0,0.0,0.0,0.0,0.0,0.0,0.0,0.0,0.0,0.0,0.0,0.0,0.0,0.0,0.0,0.0,0.0,0.0,0.0,0.0,0.0,0.0,0.0,0.0,0.0,0.0,0.0,0.0,0.0,0.0,0.0,0.0,0.0,0.0,0.0,0.0,0.0,0.0,0.0,0.0,0.0,0.0,0.0,0.0,0.0,0.0,0.0,0.0,0.0,0.0,0.0,0.0,0.0,0.0,0.0,0.0,0.0,0.0,0.0,0.0,0.0,0.0,0.0,0.0,0.0,0.0,0.0,0.0,0.0,0.0,0.0,0.0,0.0,0.0,0.0,0.0,0.0,0.0,0.0,0.0,0.0,0.0,0.0,0.0,0.0,0.0,0.0,0.0,0.0,0.0,0.0,0.0,0.0,0.0,0.0,0.0,0.0,0.0,0.0,0.0,0.0,0.0,0.0,0.0,0.0,0.0,0.0,0.0,0.0,0.0,0.0,0.0,0.0,0.0,0.0,0.0,0.0,0.0,0.0,0.0,0.0,0.0,0.0,0.0,0.0,0.0,0.0,0.0,0.0,0.0,0.0,0.0,0.0,0.0,0.0,0.0,0.0,0.0,0.0,0.0,0.0,0.0,0.0,0.0,0.0,0.0,0.0,0.0,0.0,0.0,0.0,0.0,0.0,0.0,0.0,0.0,0.0,0.0,0.0,0.0,0.0,0.0,0.0,0.0,0.0,0.0,0.0,0.0,0.0,0.0,0.0,0.0,0.0,0.0,0.0,0.0,0.0,0.0,0.0,0.0,0.0,0.0,0.0,0.0,0.0,0.0,0.0,0.0,0.0,0.0,0.0,0.0,0.0,0.0,0.0,0.0,0.0,0.0,0.0,0.0,0.0,0.0,0.0,0.0,0.0,0.0,0.0,0.0,0.0,0.0,0.0,0.0,0.0,0.0,0.0,0.0,0.0,0.0,0.0,0.0,0.0,0.0,0.0,0.0,0.0,0.0,0.0,0.0,0.0,0.0,0.0,0.0,0.0,0.0,0.0,0.0,0.0,0.0,0.0,0.0,0.0,0.0,0.0,0.0,0.0,0.0,0.0,0.0,0.0,0.0,0.0,0.0,0.0,0.0,0.0,0.0,0.0,0.0,0.0,0.0,0.0,0.0,0.0,0.0,0.0,0.0,0.0,0.0,0.0,0.0,0.0,0.0,0.0,0.0,0.0,0.0,0.0,0.0,0.0,0.0,0.0,0.0,0.0,0.0,0.0,0.0,0.0,0.0,0.0,0.0,0.0,0.0,0.0,0.0,0.0,0.0,0.0,0.0,0.0,0.0,0.0,0.0,0.0,0.0,0.0,0.0,0.0,0.0,0.0,0.0,0.0,0.0,0.0,0.0,0.0,0.0,0.0,0.0,0.0,0.0,0.0,0.0,0.0,0.0,0.0,0.0,0.0,0.0,0.0,0.0,0.0,0.0,0.0,0.0,0.0,0.0,0.0,0.0,0.0,0.0,0.0,0.0,0.0,0.0,0.0,0.0,0.0,0.0,0.0,0.0,0.0,0.0,0.0,0.0,0.0,0.0,0.0,0.0,0.0,0.0,0.0,0.0,0.0,0.0,0.0,0.0,0.0,0.0,0.0,0.0,0.0,0.0,0.0,0.0,0.0,0.0,0.0,0.0,0.0,0.0,0.0,0.0,0.0,0.0,0.0,0.0,0.0,0.0,0.0,0.0,0.0,0.0,0.0,0.0,0.0,0.0,0.0,0.0,0.0,0.0,0.0,0.0,0.0,0.0,0.0,0.0,0.0,0.0,0.0,0.0,0.0,0.0,0.0,0.0,0.0,0.0,0.0,0.0,0.0,0.0,0.0,0.0,0.0,0.0,0.0,0.0,0.0,0.0,0.0,0.0,0.0,0.0,0.0,0.0,0.0,0.0,0.0,0.0,0.0,0.0,0.0,0.0,0.0,0.0,0.0,0.0,0.0,0.0,0.0,0.0,0.0,0.0,0.0,0.0,0.0,0.0,0.0,0.0,0.0,0.0,0.0,0.0,0.0,0.0,0.0,0.0,0.0,0.0,0.0,0.0,0.0,0.0,0.0,0.0,0.0,0.0,0.0,0.0,0.0,0.0,0.0,0.0,0.0,0.0,0.0,0.0,0.0,0.0,0.0,0.0,0.0,0.0,0.0,0.0,0.0,0.0,0.0,0.0,0.0,0.0,0.0,0.0,0.0,0.0,0.0,0.0,0.0,0.0,0.0,0.0,0.0,0.0,0.0,0.0,0.0,0.0,0.0,0.0,0.0,0.0,0.0,0.0,0.0,0.0,0.0,0.0,0.0,0.0,0.0,0.0,0.0,0.0,0.0,0.0,0.0,0.0,0.0,0.0,0.0,0.0,0.0,0.0,0.0,0.0,0.0,0.0,0.0,0.0,0.0,0.0,0.0,0.0,0.0,0.0,0.0,0.0,0.0,0.0,0.0,0.0,0.0,0.0,0.0,0.0,0.0,0.0,0.0,0.0,0.0,0.0,0.0,0.0,0.0,0.0,0.0,0.0,0.0,0.0,0.0,0.0,0.0,0.0,0.0,0.0,0.0,0.0,0.0,0.0,0.0,0.0,0.0,0.0,0.0,0.0,0.0,0.0,0.0,0.0,0.0,0.0,0.0,0.0,0.0,0.0,0.0,0.0,0.0,0.0,0.0,0.0,0.0,0.0,0.0,0.0,0.0,0.0,0.0,0.0,0.0,0.0,0.0,0.0,0.0,0.0,0.0,0.0,0.0,0.0,0.0,0.0,0.0,0.0,0.0,0.0,0.0,0.0,0.0,0.0,0.0,0.0,0.0,0.0,0.0,0.0,0.0,0.0,0.0,0.0,0.0,0.0,0.0,0.0,0.0,0.0,0.0,0.0,0.0,0.0,0.0,0.0,0.0,0.0,0.0,0.0,0.0,0.0,0.0,0.0,0.0,0.0,0.0,0.0,0.0,0.0,0.0,0.0,0.0,0.0,0.0,0.0,0.0,0.0,0.0,0.0,0.0,0.0,0.0,0.0,0.0,0.0,0.0,0.0,0.0,0.0,0.0,0.0,0.0,0.0,0.0,0.0,0.0,0.0,0.0,0.0,0.0,0.0,0.0,0.0,0.0,0.0,0.0,0.0,0.0,0.0,0.0,0.0,0.0,0.0,0.0,0.0,0.0,0.0,0.0,0.0,0.0,0.0,0.0,0.0,0.0,0.0,0.0,0.0,0.0,0.0,0.0,0.0,0.0,0.0,0.0,0.0,0.0,0.0,0.0,0.0,0.0,0.0,0.0,0.0,0.0,0.0,0.0,0.0,0.0,0.0,0.0,0.0,0.0,0.0,0.0,0.0,-3.4211,0.0,0.0,0.0,0.0,0.0,0.0,0.0,0.0,0.0,0.0,0.0,0.0,0.0,0.0,0.0,0.0,0.0,0.0,0.0,0.0,0.0,0.0,0.0,0.0,0.0,0.0,0.0,0.0,0.0,0.0,0.0,0.0,0.0,0.0,0.0,0.0,0.0,0.0,0.0,-4.0112,-4.1131,-4.2343,-4.2797,-4.145,-3.87,0.0,0.0,0.0,0.0,0.0,0.0,0.0,0.0,0.0,0.0,0.0,0.0,0.0,0.0,0.0,0.0,0.0,0.0,0.0,0.0,0.0,0.0,0.0,0.0,0.0,0.0,0.0,0.0,0.0,0.0,0.0,0.0,0.0,0.0,0.0,0.0,0.0,0.0,0.0,0.0,0.0,0.0,0.0,0.0,0.0,0.0,0.0,0.0,0.0,0.0,0.0,0.0,0.0,0.0,0.0,0.0,0.0,0.0,0.0,0.0,0.0,0.0,0.0,0.0,0.0,0.0,0.0,0.0,0.0,0.0,0.0,-3.5224,0.0,0.0,0.0,0.0,0.0,0.0,0.0,0.0,0.0,0.0,0.0,0.0,0.0,0.0,0.0,0.0,0.0,0.0,0.0,0.0,0.0,0.0,0.0,0.0,0.0,0.0,0.0,0.0,0.0,0.0,0.0,0.0,0.0,0.0,0.0,0.0,0.0,0.0,-4.0342,-4.2632,-4.5825,-4.5393,-4.3258,-3.9796,-4.0746,0.0,0.0,0.0,0.0,0.0,0.0,0.0,0.0,0.0,0.0,0.0,0.0,0.0,0.0,0.0,0.0,0.0,0.0,0.0,0.0,0.0,0.0,0.0,0.0,0.0,0.0,0.0,0.0,0.0,0.0,0.0,0.0,0.0,0.0,0.0,0.0,0.0,0.0,0.0,0.0,0.0,0.0,0.0,0.0,0.0,0.0,0.0,0.0,0.0,0.0,0.0,0.0,0.0,0.0,0.0,0.0,0.0,0.0,0.0,0.0,0.0,0.0,0.0,0.0,-4.4488,-4.4322,-4.3497,-4.2782,-4.2049,-4.0598,-3.8322,-3.5683,0.0,0.0,0.0,0.0,0.0,0.0,0.0,0.0,0.0,0.0,0.0,0.0,0.0,0.0,0.0,0.0,0.0,0.0,0.0,0.0,0.0,0.0,0.0,0.0,0.0,0.0,0.0,0.0,0.0,0.0,0.0,0.0,0.0,0.0,-3.8116,-3.8815,-3.8161,-4.1258,-4.4124,-4.6759,-4.8105,-4.8029,-4.6682,-4.4682,-4.3682,-4.3374,0.0,0.0,0.0,0.0,0.0,0.0,0.0,0.0,0.0,0.0,0.0,0.0,0.0,0.0,0.0,0.0,0.0,0.0,0.0,0.0,0.0,0.0,0.0,0.0,0.0,0.0,0.0,0.0,0.0,0.0,0.0,0.0,0.0,0.0,0.0,0.0,0.0,0.0,0.0,0.0,0.0,-3.6487,-3.8723,0.0,0.0,0.0,0.0,0.0,0.0,0.0,0.0,0.0,0.0,0.0,0.0,0.0,0.0,-4.5776,-4.6874,-4.704,-4.6324,-4.7994,-4.8398,-4.7645,-4.6819,-4.6415,-4.625,-4.5351,0.0,-3.8175,-3.7584,0.0,0.0,0.0,0.0,0.0,0.0,0.0,0.0,0.0,0.0,0.0,0.0,0.0,0.0,0.0,0.0,0.0,0.0,0.0,0.0,0.0,0.0,0.0,0.0,0.0,0.0,0.0,0.0,0.0,0.0,0.0,0.0,0.0,-3.7636,-3.9546,-4.1546,-4.5451,-4.8413,-5.0471,-5.1775,-5.2172,-5.1736,-5.0208,-4.7888,-4.5058,-4.3842,0.0,0.0,0.0,0.0,0.0,0.0,0.0,0.0,0.0,0.0,0.0,0.0,0.0,0.0,0.0,0.0,0.0,0.0,0.0,0.0,0.0,0.0,0.0,0.0,0.0,0.0,0.0,0.0,0.0,0.0,0.0,0.0,0.0,0.0,0.0,0.0,0.0,0.0,0.0,-3.8065,-3.9866,-3.9441,-4.0687,-4.0839,0.0,0.0,0.0,0.0,0.0,0.0,0.0,0.0,0.0,-4.6157,-4.6717,-4.7369,-4.8111,-4.9177,-4.9297,-4.8508,-4.9701,-5.0068,-4.9682,-4.8875,-4.8508,-4.8453,-4.7609,-4.5792,-4.3242,-4.1093,-3.9659,-3.8741,0.0,0.0,0.0,0.0,0.0,-3.6346,0.0,0.0,0.0,0.0,0.0,0.0,0.0,0.0,0.0,0.0,0.0,0.0,0.0,0.0,0.0,-4.3162,0.0,0.0,0.0,0.0,0.0,0.0,0.0,0.0,-3.5827,-3.8104,-4.1258,-4.5278,-4.9356,-5.2204,-5.3928,-5.512,-5.5695,-5.5668,-5.4697,-5.1866,-4.7681,-4.5955,-4.4025,-4.2057,0.0,0.0,0.0,0.0,0.0,0.0,0.0,0.0,0.0,0.0,0.0,0.0,0.0,0.0,0.0,0.0,0.0,0.0,0.0,0.0,0.0,0.0,0.0,0.0,0.0,0.0,0.0,0.0,0.0,0.0,0.0,0.0,0.0,0.0,0.0,0.0,0.0,-4.0716,-4.2299,-4.0496,-4.3431,-4.4201,0.0,0.0,0.0,0.0,0.0,0.0,-4.4951,-4.655,-4.8105,-4.9696,-5.0478,-5.0901,-5.1029,-5.1692,-5.172,-5.1153,-5.1536,-5.172,-5.1683,-5.0675,-5.0106,-4.9867,-4.9003,-4.8177,-4.7149,-4.3938,-4.1901,-4.0689,-3.9478,-3.9129,0.0,-3.8394,-3.7971,-3.7715,0.0,0.0,0.0,0.0,0.0,0.0,0.0,0.0,0.0,0.0,0.0,0.0,0.0,0.0,-4.1658,-4.7287,-4.7278,-4.6509,0.0,0.0,0.0,0.0,0.0,0.0,-3.6615,-4.0719,-4.4509,-4.7913,-5.1375,-5.4005,-5.5802,-5.7511,-5.8384,-5.8423,-5.6805,-5.5001,-5.2947,-4.887,-4.6656,-4.5476,0.0,0.0,0.0,0.0,0.0,0.0,0.0,0.0,0.0,0.0,0.0,0.0,0.0,0.0,0.0,0.0,0.0,0.0,0.0,0.0,0.0,0.0,0.0,0.0,0.0,0.0,0.0,0.0,0.0,0.0,0.0,0.0,0.0,0.0,0.0,0.0,0.0,0.0,0.0,-4.2837,-4.6605,0.0,0.0,0.0,0.0,-4.5287,-4.6797,-4.8471,-5.0231,-5.1534,-5.3195,-5.522,-5.4982,-5.5358,-5.6488,-5.5736,-5.5335,-5.528,-5.4564,-5.4216,-5.4161,-5.2582,-5.1463,-5.0692,-4.9904,-4.904,-4.7994,-4.4764,-4.3404,-4.3092,-4.0744,-4.0304,-4.0758,-3.901,-3.8825,-3.9032,0.0,0.0,0.0,0.0,0.0,0.0,0.0,0.0,0.0,0.0,0.0,0.0,0.0,-4.2681,-4.6382,-4.949,-5.051,-4.9663,-4.6624,0.0,0.0,0.0,0.0,0.0,-4.1648,-4.4405,-4.773,-5.1638,-5.4504,-5.6821,-5.8571,-5.9838,-6.0467,-6.0426,-5.8844,-5.7477,-5.6089,-5.1681,-4.8413,-4.6008,-4.3334,-4.0799,0.0,0.0,0.0,0.0,0.0,0.0,0.0,0.0,0.0,0.0,0.0,0.0,0.0,0.0,0.0,0.0,0.0,0.0,0.0,0.0,0.0,0.0,0.0,0.0,0.0,0.0,0.0,0.0,0.0,0.0,0.0,0.0,0.0,0.0,0.0,0.0,0.0,-4.7978,-5.1731,0.0,-4.9115,-4.8836,-4.9086,-4.9625,-5.0741,-5.2125,-5.3818,-5.4885,-5.6268,-5.8088,-5.743,-5.7273,-5.7746,-5.6831,-5.5849,-5.4821,-5.4546,-5.4124,-5.3592,-5.2491,-5.1555,-5.0747,-4.9903,-4.9058,-4.8141,-4.5938,-4.5039,-4.4947,-4.4103,-4.3296,-4.2638,-4.2486,-4.1835,-4.0866,0.0,0.0,0.0,0.0,0.0,0.0,0.0,0.0,0.0,0.0,0.0,-3.7571,-3.9712,-4.4709,-4.8763,-5.0914,-5.1875,-5.0914,-4.7528,0.0,0.0,0.0,-4.0046,0.0,0.0,-4.7622,-5.0679,-5.4047,-5.631,-5.8155,-5.9659,-6.0604,-6.1088,-6.1069,-5.9783,-5.8887,-5.8086,-5.4228,-5.0656,-4.7441,-4.5391,-4.3223,-4.0918,0.0,0.0,0.0,0.0,0.0,0.0,0.0,0.0,0.0,0.0,0.0,0.0,0.0,0.0,0.0,0.0,0.0,0.0,0.0,0.0,0.0,0.0,0.0,0.0,0.0,0.0,0.0,0.0,0.0,0.0,0.0,0.0,0.0,0.0,0.0,-5.1455,-5.1539,-5.5541,-5.6934,-5.351,-5.3741,-5.4203,-5.4442,-5.528,-5.6242,-5.7357,-5.7973,-5.8781,-5.9896,-5.9168,-5.8729,-5.8614,-5.7832,-5.682,-5.5611,-5.506,-5.4528,-5.3977,-5.2894,-5.1811,-5.0765,-5.0196,-4.9315,-4.8214,-4.6856,-4.614,-4.5847,-4.5296,-4.4433,-4.3535,-4.3907,-4.3204,-4.2059,0.0,0.0,0.0,0.0,0.0,0.0,0.0,0.0,0.0,0.0,-3.3788,-3.7227,-4.0499,-4.4657,-4.8469,-5.1587,-5.1106,-4.9875,-4.8144,-4.4855,0.0,0.0,0.0,0.0,-4.6053,-5.032,-5.3375,-5.5064,-5.6704,-5.8011,-5.9012,-5.9853,-6.0311,-6.041,-5.9609,-5.9219,-5.9023,-5.6465,-5.3476,-5.0195,-4.748,-4.6348,-4.584,0.0,0.0,0.0,0.0,0.0,0.0,0.0,0.0,0.0,0.0,0.0,0.0,0.0,0.0,0.0,0.0,0.0,0.0,0.0,0.0,0.0,0.0,0.0,0.0,0.0,0.0,0.0,0.0,0.0,0.0,0.0,0.0,0.0,-4.7072,-5.0287,-5.2736,-5.3368,-5.7838,-5.9569,-5.6261,-5.8915,-6.0492,-5.9646,-6.0358,-6.0839,-6.0839,-6.08,-6.08,-6.08,-6.0338,-5.987,-5.9407,-5.8914,-5.8426,-5.7905,-5.6308,-5.5559,-5.5464,-5.3922,-5.2325,-5.0802,-5.0802,-4.9848,-4.8251,-4.7388,-4.6599,-4.5755,-4.4176,-4.3551,-4.3427,-4.2938,-4.271,-4.248,0.0,0.0,0.0,0.0,0.0,0.0,0.0,0.0,0.0,0.0,-3.4875,-3.88,-4.1455,-4.6643,-5.0235,-5.0972,-4.9663,-4.8105,-4.6394,0.0,0.0,0.0,0.0,0.0,-5.2338,-5.4399,-5.6589,-5.8893,-5.9341,-6.0048,-6.0934,-6.1188,-6.1307,-6.1308,-6.0449,-5.9746,-5.9101,-5.7754,-5.664,-5.5332,-5.0234,-4.7422,-4.5957,0.0,0.0,0.0,0.0,0.0,0.0,0.0,0.0,0.0,0.0,0.0,0.0,0.0,0.0,0.0,0.0,0.0,0.0,0.0,0.0,0.0,0.0,0.0,0.0,0.0,0.0,0.0,0.0,0.0,0.0,0.0,0.0,-4.8835,-4.8983,-5.3582,-5.7385,-5.8567,-6.1031,-6.2243,-6.13,-6.1531,-6.1639,-6.1408,-6.162,-6.1755,-6.1755,-6.1127,-6.08,-6.08,-6.0338,-5.987,-5.9407,-5.8371,-5.7295,-5.6235,-5.5207,-5.4418,-5.3849,-5.3387,-5.2325,-5.0802,-5.0802,-4.9848,-4.8196,-4.6801,-4.6104,-4.5865,-4.5406,-4.4525,-4.35,-4.3555,-4.2644,-4.1291,0.0,0.0,0.0,0.0,0.0,0.0,0.0,0.0,0.0,0.0,-3.474,-3.8769,-4.087,-4.5796,-4.887,-4.8654,-4.7042,-4.5337,-4.3659,0.0,0.0,0.0,0.0,-5.2158,-5.4835,-5.6737,-5.8574,-6.039,-6.039,-6.0859,-6.1699,-6.1699,-6.1699,-6.166,-6.0781,-6.0137,-5.9648,-5.8808,-5.8437,-5.8105,-5.4238,-5.2051,-5.0781,-4.7441,-4.5879,-4.5449,-4.5215,-4.498,-4.4785,-4.4785,0.0,0.0,0.0,0.0,0.0,0.0,0.0,0.0,0.0,0.0,0.0,0.0,0.0,0.0,0.0,0.0,0.0,0.0,0.0,0.0,0.0,0.0,0.0,0.0,-5.1504,-5.3013,-5.3414,-5.6496,-5.9366,-6.1139,-6.2204,-6.307,-6.3782,-6.3089,-6.2589,-6.2589,-6.2281,-6.1947,-6.1581,-6.1069,-6.08,-6.08,-6.054,-6.0161,-5.9693,-5.8421,-5.732,-5.6364,-5.5043,-5.4161,-5.3702,-5.3353,-5.2325,0.0,-5.0802,-4.9848,-4.8177,-4.6562,-4.5902,0.0,0.0,0.0,0.0,0.0,-4.2495,-4.1201,0.0,0.0,0.0,0.0,0.0,0.0,0.0,0.0,0.0,0.0,0.0,-3.7283,-3.906,-4.2915,-4.5338,-4.5246,-4.3737,-4.2156,0.0,0.0,0.0,-4.7017,-5.0831,-5.3645,-5.5302,-5.8068,-5.9824,-6.0547,-6.0547,-6.0937,-6.1699,-6.1699,-6.1699,-6.168,-6.0996,-6.0586,-6.0351,-5.9746,-5.9433,-5.9277,-5.8496,-5.8008,-5.7324,-5.3359,-5.1719,-5.1348,-4.9863,-4.8398,-4.7148,-4.6933,0.0,0.0,0.0,0.0,0.0,0.0,0.0,0.0,0.0,0.0,0.0,0.0,0.0,0.0,0.0,0.0,0.0,0.0,0.0,0.0,0.0,0.0,0.0,0.0,-5.5195,-5.7389,-5.8801,-5.899,-5.9777,-6.1851,-6.2101,-6.2666,-6.4166,-6.3628,-6.3166,-6.3166,-6.2493,-6.1774,-6.0993,0.0,0.0,0.0,0.0,-6.0565,-6.0099,-5.8751,-5.7841,-5.7335,-5.5246,-5.4252,-5.4234,-5.3537,-5.2325,-5.0802,-5.0802,-4.9811,-4.8049,-4.6526,-4.5792,-4.548,-4.4048,-4.3462,-4.3339,-4.2789,-4.2221,0.0,0.0,0.0,0.0,0.0,0.0,0.0,0.0,0.0,0.0,-2.9012,-3.1476,-3.3884,-3.6222,-3.9142,-4.1156,-4.1718,-4.082,-4.0092,0.0,0.0,-4.4632,-4.8059,-5.2974,-5.6408,-5.8094,-6.0168,-6.1289,-6.1445,-6.1445,-6.1523,-6.1699,-6.1699,-6.1699,-6.1719,-6.2265,-6.1719,-6.0449,-6.0976,-6.0801,-6.0156,-5.998,-5.8691,-5.668,-5.5137,-5.3672,-5.2402,-5.207,-5.2207,-5.2305,-5.0898,-5.0762,-5.0781,-4.8398,0.0,0.0,0.0,0.0,0.0,0.0,0.0,0.0,0.0,0.0,0.0,0.0,0.0,0.0,0.0,0.0,0.0,0.0,0.0,0.0,-5.4277,-5.6992,-5.9185,-6.0603,-6.0797,-6.1111,-6.1997,-6.2101,-6.2235,-6.2563,-6.2428,-6.232,-6.232,-6.2197,-6.2043,-6.187,-6.1166,0.0,-6.08,-6.08,-6.0565,-6.0099,-5.818,-5.7011,-5.6517,0.0,0.0,-5.3424,-5.328,-5.2325,-5.0802,-5.0802,-4.9481,-4.7259,-4.6305,-4.5131,-4.3937,-4.3608,-4.3232,-4.277,-4.2203,-4.1599,-4.0995,0.0,0.0,0.0,0.0,0.0,0.0,0.0,0.0,0.0,0.0,-3.0201,-3.2272,-3.4825,-3.6718,-3.7938,-3.8268,-3.7924,0.0,0.0,-4.2431,-4.582,-4.9678,-5.3632,-5.6558,-5.8267,-6.0111,-6.1055,-6.1055,-6.1484,-6.1699,-6.1719,-6.2148,-6.2344,-6.2383,-6.3262,-6.293,-6.1738,-6.2168,-6.1855,-6.1055,-6.1055,-6.0293,-5.9062,-5.8183,-5.6523,-5.4707,-5.5156,-5.4453,-5.3281,-5.2851,-5.2402,-5.1758,-5.0078,-4.8066,-4.6035,0.0,0.0,0.0,0.0,0.0,0.0,0.0,0.0,0.0,0.0,0.0,0.0,0.0,0.0,-4.7018,0.0,0.0,-5.4605,-5.7401,-5.9316,-6.0651,-6.1212,-6.1303,-6.1352,-6.1439,-6.1447,-6.162,-6.2062,-6.1716,-6.1639,-6.2082,-6.1697,-6.1447,-6.1447,-6.1031,-6.08,-6.08,-6.08,-6.0565,-6.0099,-5.8044,-5.6767,-5.6274,-5.4197,-5.3185,-5.3185,-5.3185,-5.2325,-5.0802,-5.0802,-4.9627,-4.7608,-4.6397,-4.4947,-4.3515,-4.3515,-4.3339,-4.2977,-4.2124,-4.1599,-4.1223,0.0,0.0,0.0,0.0,0.0,0.0,0.0,0.0,0.0,0.0,-2.9218,-3.1022,-3.3459,-3.4406,-3.4919,0.0,0.0,0.0,0.0,-4.3099,-4.6858,-5.084,-5.3815,-5.6044,-5.7465,-5.9253,-6.0234,-6.039,-6.1094,-6.1621,-6.1973,-6.2676,-6.3086,-6.3281,-6.416,-6.4062,-6.3242,-6.3242,-6.2754,-6.1933,-6.1777,-6.1699,-6.1601,-6.0723,-5.9023,-5.7148,-5.7519,-5.541,-5.2558,-5.3262,-5.2344,-5.082,-5.0351,-4.8984,-4.7225,-4.5487,-4.4215,0.0,0.0,0.0,0.0,0.0,0.0,0.0,0.0,0.0,-4.5298,-4.6983,-4.8529,-5.0705,-5.4406,-5.5969,-5.7498,-5.9953,-6.1091,-6.1579,-6.1323,-6.1278,-6.1074,-6.0599,-6.0704,-6.1069,-6.1793,-6.1204,-6.1089,-6.1793,-6.1204,-6.08,-6.08,-6.08,-6.08,-6.08,-6.08,-6.0565,-6.0099,-5.8044,-5.6767,-5.6274,-5.4197,-5.3185,-5.3185,-5.3185,-5.2325,-5.0765,-5.0288,-4.9315,-4.7957,-4.6507,-4.5039,-4.3718,-4.3718,-4.3626,-4.3392,-4.2364,-4.1895,-4.1643,0.0,0.0,0.0,0.0,0.0,0.0,0.0,0.0,0.0,0.0,0.0,0.0,0.0,0.0,0.0,0.0,0.0,0.0,-3.9675,-4.3769,-4.7382,-5.0194,-5.4238,-5.6523,-5.6718,-5.8437,-5.9687,-6.039,-6.0508,-6.1348,-6.2851,-6.2949,-6.3418,-6.4199,-6.5078,-6.4961,-6.414,-6.414,-6.3652,-6.2793,-6.2012,-6.1699,-6.1601,-6.0723,-5.9785,-5.8711,-5.7265,-5.4492,-5.1562,-5.166,-5.0566,-4.9297,-4.998,-4.8919,-4.7096,-4.54,-4.3663,-4.2034,-4.0875,-4.0855,-4.1887,-4.496,-4.4573,-4.5176,0.0,0.0,-5.0567,-5.3001,-5.4222,-5.5045,-5.5664,-5.7217,-5.8827,-6.0037,-6.0949,-6.1465,-6.1312,-6.115,-6.0692,-5.9768,-6.0319,-6.0839,-6.0935,-6.0858,-6.0839,-6.0935,-6.0858,-6.08,-6.08,-6.08,-6.08,-6.08,-6.08,-6.0565,-6.0099,-5.8044,-5.6767,-5.6274,-5.4197,-5.3185,-5.3185,-5.3185,-5.2325,-5.0692,-4.847,-4.7406,-4.7168,-4.6269,-4.5369,-4.458,-4.458,-4.4121,-4.3427,-4.2827,-4.2262,-4.1725,0.0,0.0,0.0,0.0,0.0,0.0,0.0,0.0,0.0,0.0,0.0,0.0,0.0,0.0,0.0,0.0,0.0,0.0,-3.8903,-4.3122,-4.6933,-5.0058,-5.334,-5.5312,-5.582,-5.7558,-5.8867,-5.9707,-6.0176,-6.1035,-6.2265,-6.3281,-6.3945,-6.4336,-6.5215,-6.539,-6.498,-6.3965,-6.332,-6.293,-6.2051,-6.1699,-6.1543,-6.0215,-5.8555,-5.6777,-5.5527,-5.281,0.0,0.0,-4.9031,-4.8172,-4.9051,-4.8084,-4.6407,-4.5236,-4.4289,-4.3642,-4.3735,-4.4241,-4.5316,-4.7834,-4.9345,-5.0895,-5.3536,-5.3938,-5.4149,-5.5639,-5.6626,-5.7437,-5.8151,-5.8867,-5.9529,0.0,-6.0871,-6.1328,-6.1138,-6.0212,-5.9368,-5.8853,-5.8684,-5.8973,-5.9954,-6.0031,-6.0242,-6.0762,-6.08,-6.08,-6.08,-6.08,-6.08,-6.08,-6.08,-6.0335,-5.9359,-5.7782,-5.6505,-5.5509,-5.3955,-5.3185,-5.3185,-5.3185,-5.2325,-5.0692,-4.8673,-4.7516,-4.7076,-4.6727,-4.5847,-4.4691,-4.4691,-4.4213,-4.3427,-4.2902,-4.2322,-4.1707,0.0,0.0,0.0,0.0,0.0,0.0,0.0,0.0,0.0,0.0,0.0,0.0,0.0,0.0,0.0,0.0,0.0,0.0,0.0,-4.1964,-4.5702,-4.8984,-5.1797,-5.3671,-5.4508,-5.6246,-5.7789,-5.9117,-5.9703,-6.0701,-6.209,-6.3318,-6.4021,-6.4336,-6.5174,-6.5564,-6.5508,-6.4004,-6.3359,-6.3262,-6.2148,-6.1426,-6.082,-5.9121,-5.6426,-5.3457,-5.2812,-5.015,0.0,0.0,-4.5837,-4.5085,-4.6199,-4.566,-4.4546,-4.4208,-4.4175,-4.4446,-4.5293,-4.6562,-4.8133,-5.0182,-5.3052,-5.5311,-5.5059,-5.6024,-5.7184,-5.7893,-5.8184,-5.8612,-5.9658,-5.9436,-5.9231,-5.966,-6.0386,-6.0745,-6.0364,-5.923,-5.823,-5.7649,-5.6819,-5.6857,-5.8319,-5.8896,-5.9511,-6.0377,-6.0435,-6.055,-6.0781,-6.08,-6.08,-6.08,-6.0569,-5.9913,-5.8811,-5.7491,-5.6229,-5.4987,-5.3894,-5.3316,-5.3185,-5.2968,-5.2105,-5.0729,-4.9279,-4.8196,-4.7424,-4.7424,-4.647,-4.5039,-4.5039,-4.4397,-4.3444,-4.305,-4.2442,-4.1729,0.0,0.0,0.0,0.0,0.0,0.0,0.0,0.0,0.0,0.0,0.0,0.0,0.0,0.0,0.0,0.0,0.0,0.0,0.0,-4.043,-4.3584,-4.6308,-4.9668,-5.1831,-5.2562,-5.4281,-5.6414,-5.8914,-5.8934,-6.0311,-6.2969,-6.2885,-6.3377,-6.4336,-6.5071,-6.5487,-6.5547,-6.4648,-6.4258,-6.4101,-6.2383,-6.0723,-5.9082,-5.7344,-5.3516,-4.9082,-4.9062,0.0,0.0,-4.1513,-4.0053,-3.8884,-4.0607,-4.1002,0.0,-4.1842,-4.26,-4.3343,-4.4291,-4.637,-4.8942,-5.1723,-5.4262,-5.6511,-5.8173,-5.9124,-5.987,-6.0561,-5.9415,-5.855,-5.9361,-5.8298,-5.7547,-5.8416,-5.9279,-5.9542,-5.8709,-5.8413,-5.7676,-5.5972,-5.5068,-5.4895,0.0,-5.7338,-5.8665,-5.9473,-5.955,-5.9915,-6.0742,-6.08,-6.08,-6.08,-5.9973,-5.9299,-5.8792,-5.7224,-5.5935,-5.4987,-5.4168,-5.3585,-5.3167,-5.238,-5.1573,-5.0747,-4.9903,-4.9058,-4.8269,-4.8269,-4.7315,-4.5865,-4.5865,-4.4892,-4.3515,-4.3479,-4.2772,-4.181,0.0,0.0,0.0,0.0,0.0,0.0,0.0,0.0,0.0,0.0,0.0,0.0,0.0,0.0,0.0,0.0,0.0,0.0,0.0,-3.8688,-4.1543,-4.3558,-4.7482,-4.9959,-5.0681,-5.2415,-5.4558,-5.7111,-5.7111,-5.8453,-6.1019,-6.1567,-6.2273,-6.3121,-6.3414,-6.3948,-6.4507,-6.306,-6.2822,-6.3183,-6.0332,-5.9199,-5.8769,-5.4687,-5.1016,-4.7734,0.0,0.0,0.0,-3.9511,-3.8793,-3.8385,-3.8946,-3.9083,-3.9406,-4.131,-4.3238,-4.5315,-4.7906,-5.0935,-5.4008,-5.6787,-5.8495,-5.9822,-6.1127,-6.0585,-5.9702,-5.935,-5.7418,-5.5698,-5.5488,-5.4476,-5.4195,-5.5741,-5.708,-5.8026,-5.8334,-5.8327,-5.7453,-5.5164,-5.5145,0.0,0.0,0.0,0.0,-5.8607,-5.9204,-5.9627,-5.9915,-6.0492,-6.08,-6.08,-6.0512,-5.9753,-5.8481,-5.7626,-5.6352,-5.4668,-5.3811,-5.3336,-5.3167,-5.2362,-5.1848,-5.1518,-5.018,-4.9445,-4.9114,-4.8545,-4.7352,-4.5902,-4.5902,-4.4911,-4.3515,-4.3515,-4.3032,-4.2342,0.0,0.0,0.0,0.0,0.0,0.0,0.0,0.0,0.0,0.0,0.0,0.0,0.0,0.0,0.0,0.0,0.0,0.0,0.0,0.0,-3.8646,-4.0374,-4.3965,-4.6271,-4.6994,-4.8706,-5.0844,-5.3411,-5.3702,-5.5027,-5.7313,-5.847,-5.9309,-5.9873,-6.0486,-6.1162,-6.1791,-6.0307,-5.9876,-5.9938,-5.7168,-5.58,-5.5055,-5.1425,-4.8066,0.0,0.0,0.0,-3.8235,-3.7585,-3.735,-3.7342,-3.7586,-3.8497,-3.9844,-4.1721,-4.4489,-4.7768,-5.1481,-5.4583,-5.7482,-6.0524,-6.1473,-6.1768,-6.2137,-6.0764,-5.9048,-5.7826,-5.5209,-5.2993,-5.2522,-5.092,-5.0336,-5.2453,-5.3629,-5.4799,-5.628,-5.6492,-5.6088,-5.5049,-5.5126,-5.5068,0.0,0.0,0.0,-5.7742,-5.8877,-5.9492,-5.9492,-6.0319,-6.08,-6.08,-6.0223,-5.9396,-5.8319,-5.7371,-5.6115,-5.4503,-5.3758,-5.3339,-5.3167,-5.2656,-5.227,-5.1922,-5.06,-4.9867,-4.9537,-4.8655,-4.7352,-4.5902,-4.5902,-4.4911,-4.3515,-4.3515,-4.3268,-4.2865,0.0,0.0,0.0,0.0,0.0,0.0,0.0,0.0,0.0,0.0,0.0,0.0,0.0,0.0,0.0,0.0,0.0,0.0,0.0,0.0,0.0,-3.6826,-3.9325,-4.1038,-4.178,-4.3446,-4.5557,-4.8134,-4.8929,-5.0316,-5.2206,-5.3803,-5.4678,-5.4945,-5.6402,-5.7248,-5.7479,-5.6536,-5.5623,-5.4681,-5.3045,-5.0855,-4.847,-4.7615,0.0,0.0,0.0,0.0,-3.5886,-3.5843,-3.5819,-3.5962,-3.6712,-3.9269,-4.2181,-4.3143,-4.6451,-5.0683,-5.4838,-5.73,-5.9502,-6.2878,-6.3142,-6.2328,-6.1414,-5.9836,-5.8017,-5.6063,-5.2863,-5.0404,0.0,0.0,-4.6326,-4.8913,-4.9471,-5.0471,-5.3049,-5.351,-5.4126,0.0,0.0,0.0,0.0,0.0,0.0,-5.708,0.0,-5.9492,-5.9492,-6.0319,-6.08,-6.08,-5.9261,-5.8396,-5.83,-5.6558,-5.5282,-5.4503,-5.4013,-5.3585,-5.3185,-5.3185,-5.2784,-5.1995,-5.1169,-5.0362,-4.9592,-4.8673,-4.7388,-4.5957,-4.592,-4.4929,-4.357,-4.3533,-4.3515,-4.3339,0.0,0.0,0.0,0.0,0.0,0.0,0.0,0.0,0.0,0.0,0.0,0.0,0.0,0.0,0.0,0.0,0.0,0.0,0.0,0.0,0.0,0.0,0.0,0.0,0.0,0.0,0.0,-4.445,-4.526,-4.6873,-4.9208,-4.9636,-5.0538,-5.1831,-5.2238,-5.2506,-5.2665,-5.2513,-5.2015,-5.1105,0.0,-4.7519,-4.6619,0.0,0.0,0.0,0.0,0.0,-3.5855,-3.708,-3.8684,-4.0231,-4.0423,-4.2393,-4.5047,-4.7163,-5.1241,-5.5722,-5.8684,-6.1685,-6.4212,-6.5209,-6.4462,-6.3116,-6.174,-5.904,-5.5979,-5.2957,-4.9422,-4.6326,0.0,0.0,0.0,-4.7913,-5.0567,0.0,-5.5665,-5.7665,0.0,-5.6849,0.0,-5.7896,-5.708,-5.8127,0.0,0.0,-5.8915,-5.9492,-5.9492,-6.0319,-6.08,-6.08,-6.0396,-5.955,-5.8319,-5.6273,-5.5007,-5.4503,-5.4013,-5.3585,-5.3185,-5.3185,-5.3096,-5.2821,-5.1408,-5.0674,-5.038,-4.8912,-4.7719,-4.6727,-4.614,-4.5278,-4.4323,-4.3718,-4.3515,-4.3339,0.0,0.0,0.0,0.0,0.0,0.0,0.0,0.0,0.0,0.0,0.0,0.0,0.0,0.0,0.0,0.0,0.0,0.0,0.0,0.0,0.0,0.0,0.0,0.0,0.0,0.0,0.0,0.0,0.0,0.0,-4.3124,-4.4295,-4.5364,-4.6349,-4.7113,-4.753,-4.7639,-4.7264,0.0,0.0,0.0,0.0,0.0,0.0,0.0,0.0,0.0,-3.7762,-3.7958,-3.9283,-4.14,-4.3528,-4.3932,-4.6028,-4.8875,-5.1414,-5.5241,-5.9319,-6.2243,-6.4705,-6.6448,-6.6529,-6.4873,-6.2483,-5.9682,-5.6407,-5.2874,-4.8998,-4.5621,-4.2824,-4.1027,-4.1104,0.0,0.0,0.0,0.0,-5.4818,-5.6896,-5.805,0.0,-5.8934,0.0,-5.8734,-5.9511,-5.9877,0.0,-5.9819,-5.9896,-5.9511,-6.0319,-6.08,-6.08,-6.0435,-5.9415,-5.7742,-5.616,-5.5061,-5.4503,-5.4221,-5.3796,-5.3185,-5.3185,-5.3023,-5.2601,0.0,-5.06,-5.016,-4.8857,-4.7828,-4.7058,-4.6599,-4.5718,-4.4636,-4.4195,-4.3791,-4.3374,0.0,0.0,0.0,0.0,0.0,0.0,0.0,0.0,0.0,0.0,0.0,0.0,0.0,0.0,0.0,0.0,0.0,0.0,0.0,0.0,0.0,0.0,0.0,0.0,0.0,0.0,0.0,0.0,0.0,0.0,0.0,0.0,0.0,0.0,0.0,0.0,0.0,0.0,0.0,0.0,0.0,0.0,0.0,0.0,0.0,0.0,-3.6858,-3.8244,-4.0362,-4.1566,-4.3893,-4.646,-4.7432,-4.9962,-5.3087,-5.5626,-5.8627,-6.1839,-6.5147,-6.6571,-6.7071,-6.6974,-6.4619,-6.1169,-5.6769,-5.3163,-4.9526,-4.5107,-4.2053,-3.99,-3.8977,-3.8972,-4.0038,-4.2805,0.0,-4.7738,-5.2818,-5.4376,-5.6126,-5.9146,-5.9608,-5.9973,-6.0723,-6.08,-6.08,-6.08,-6.08,-6.0473,-5.9704,-6.0396,-6.08,-6.08,-5.9858,-5.8646,-5.7195,-5.6184,-5.5319,-5.4582,-5.4535,-5.4086,-5.3293,-5.3227,-5.2766,-5.1958,0.0,0.0,-4.9537,-4.8655,-4.7902,-4.7241,-4.7131,-4.625,-4.4984,-4.4764,-4.4268,-4.3556,0.0,0.0,0.0,0.0,0.0,0.0,0.0,0.0,0.0,0.0,0.0,0.0,0.0,0.0,0.0,0.0,0.0,0.0,0.0,0.0,0.0,0.0,0.0,0.0,0.0,0.0,0.0,0.0,0.0,0.0,0.0,0.0,0.0,0.0,0.0,0.0,0.0,0.0,0.0,0.0,0.0,0.0,0.0,0.0,0.0,0.0,-3.5794,-3.6909,-3.8892,-4.1873,-4.597,-5.0077,-5.1625,-5.3953,-5.6618,-5.9165,-6.132,-6.3455,-6.6167,-6.6994,-6.6936,-6.6263,-6.3748,-6.0307,-5.5974,-5.1901,0.0,-4.3491,-4.0386,-3.7969,-3.6442,-3.7334,-3.958,-4.3456,-4.6193,-4.9564,-5.457,-5.6646,-5.8107,0.0,-6.0146,-6.0627,-6.0781,-6.08,0.0,0.0,0.0,0.0,-6.0569,-6.0723,-6.08,-6.08,-5.9319,-5.8377,-5.8088,-5.6492,-5.5446,-5.4993,-5.4655,-5.4223,-5.3683,-5.3359,-5.2766,-5.1958,0.0,0.0,-4.9537,-4.8655,-4.8233,-4.8031,-4.7351,-4.6929,-4.6526,-4.5186,-4.4617,-4.4254,0.0,0.0,0.0,0.0,0.0,0.0,0.0,0.0,0.0,0.0,0.0,0.0,0.0,0.0,0.0,0.0,0.0,0.0,0.0,0.0,0.0,0.0,0.0,0.0,0.0,0.0,0.0,0.0,0.0,0.0,0.0,0.0,0.0,0.0,0.0,0.0,0.0,0.0,0.0,0.0,0.0,0.0,0.0,0.0,0.0,0.0,0.0,-3.6873,-3.8988,-4.1046,-4.5124,-4.9875,-5.2914,-5.5626,-5.8088,-6.0185,-6.1993,-6.3858,-6.6397,-6.709,-6.6898,-6.609,-6.2829,-5.8537,-5.3766,0.0,0.0,-4.0823,-3.7893,-3.5776,-3.4968,-3.6284,-3.8239,-4.0635,-4.3233,-4.6874,-5.2328,-5.4184,-5.6107,-5.9146,-6.0262,-6.08,0.0,0.0,0.0,0.0,0.0,0.0,-6.08,-6.08,-6.0589,-6.0146,-5.8934,-5.8088,-5.7627,-5.6338,-5.5501,-5.5107,-5.4686,-5.4029,-5.3162,-5.3197,-5.2546,-5.1353,0.0,0.0,-4.9537,-4.8655,-4.8306,-4.8269,-4.7865,-4.7461,-4.7003,-4.6232,-4.5682,-4.5059,0.0,0.0,0.0,0.0,0.0,0.0,0.0,0.0,-2.9996,-3.2748,-3.3548,-3.363,-3.2963,-3.2227,0.0,0.0,0.0,0.0,0.0,0.0,0.0,0.0,0.0,0.0,0.0,0.0,0.0,0.0,0.0,0.0,0.0,0.0,0.0,0.0,0.0,0.0,0.0,0.0,0.0,0.0,0.0,0.0,0.0,0.0,0.0,0.0,0.0,-3.6796,-3.8661,-3.9842,-4.3008,-4.7163,-5.1087,-5.4818,-5.7992,-5.9319,-6.1166,-6.332,-6.5859,-6.6551,-6.6397,-6.5782,-6.1887,-5.6891,-5.1865,-4.6726,-4.2063,-3.8736,-3.5983,-3.4257,-3.4462,-3.5383,-3.6598,-3.808,-4.0043,-4.346,-4.9362,-5.1183,-5.3654,0.0,-5.9896,0.0,-6.0781,0.0,0.0,0.0,0.0,0.0,0.0,-6.0608,-6.0204,-5.9511,-5.855,-5.7684,-5.7003,-5.6137,-5.5535,-5.5212,-5.4804,-5.4065,-5.3007,-5.3229,-5.2502,-5.1041,0.0,0.0,0.0,-4.8655,-4.8306,-4.8306,-4.8306,-4.7901,-4.7333,-4.7168,-4.6691,-4.5864,0.0,0.0,0.0,0.0,0.0,0.0,0.0,0.0,-3.0399,-3.427,-3.4419,-3.4482,-3.5362,-3.3429,0.0,0.0,0.0,0.0,0.0,0.0,0.0,0.0,0.0,0.0,0.0,0.0,0.0,0.0,0.0,0.0,0.0,0.0,0.0,0.0,0.0,0.0,0.0,0.0,0.0,0.0,0.0,0.0,0.0,0.0,0.0,0.0,0.0,-3.5654,-3.6212,-3.8604,-4.0208,-4.167,-4.4374,-5.0164,-5.5972,-5.6107,0.0,0.0,-6.4147,-6.4839,-6.4801,-6.4743,-6.0989,-5.6173,-5.1788,0.0,-4.1369,-3.8734,-3.606,-3.4462,-3.5317,-3.441,-3.4823,-3.8726,-3.9552,-4.177,-4.768,-5.0469,-5.3241,-5.681,0.0,0.0,0.0,0.0,0.0,0.0,0.0,0.0,0.0,-6.005,-5.9588,-5.9492,-5.7953,-5.708,-5.7003,-5.6137,-5.5673,-5.564,-5.5244,-5.4781,-5.4307,-5.3923,-5.3064,-5.1848,0.0,0.0,0.0,-4.8655,-4.8306,-4.8306,-4.8306,-4.8251,-4.8104,-4.7369,-4.7058,-4.6689,0.0,0.0,0.0,0.0,0.0,0.0,0.0,0.0,-3.0271,-3.3812,-3.4697,-3.5201,-3.5789,-3.4188,0.0,0.0,0.0,0.0,0.0,0.0,0.0,0.0,0.0,0.0,0.0,0.0,0.0,0.0,0.0,0.0,0.0,0.0,0.0,0.0,0.0,0.0,0.0,0.0,0.0,0.0,0.0,0.0,0.0,0.0,0.0,0.0,0.0,0.0,-3.6308,-3.6834,-3.8238,-3.9765,-3.9738,-4.3585,-4.8817,-5.2375,-5.5453,-5.8511,-6.2108,-6.3455,-6.3705,-6.3224,-5.9301,-5.4593,-5.0833,0.0,-4.0519,-3.8498,-3.601,-3.4173,-3.4065,-3.3542,-3.3673,-3.532,-3.5615,-3.7699,-4.3559,-4.5667,-4.8817,-5.478,-5.6973,0.0,0.0,0.0,0.0,0.0,0.0,0.0,0.0,-5.9685,-5.9281,-5.88,-5.7607,-5.6753,-5.6233,-5.5857,-5.5703,-5.5703,-5.5294,-5.4358,-5.299,-5.3039,-5.2121,-5.0472,0.0,0.0,0.0,-4.8857,-4.86,-4.8967,-4.8489,-4.8306,-4.8269,-4.7938,-4.781,-4.7587,0.0,0.0,0.0,0.0,0.0,0.0,-2.7108,-2.8136,-2.9714,-3.2687,-3.363,-3.4404,-3.5426,-3.4017,-3.3161,0.0,0.0,0.0,0.0,0.0,0.0,0.0,0.0,0.0,0.0,0.0,0.0,0.0,0.0,0.0,0.0,0.0,0.0,0.0,0.0,0.0,0.0,0.0,0.0,0.0,0.0,0.0,0.0,0.0,0.0,0.0,0.0,0.0,0.0,0.0,0.0,-3.7969,-3.6731,-3.8577,-4.2277,-4.7712,-5.1645,-5.5049,-5.883,-6.0819,-6.1685,-6.1108,-5.7319,-5.2837,-4.9433,0.0,-3.9669,-3.7969,-3.5795,-3.4038,-3.3485,-3.3209,-3.3151,-3.3406,-3.3678,-3.5632,-4.0752,-4.2618,-4.5836,0.0,0.0,0.0,0.0,0.0,0.0,0.0,0.0,0.0,0.0,-5.8896,-5.8492,-5.7934,-5.7069,-5.6329,-5.5703,-5.5703,-5.5568,-5.5338,-5.5296,-5.4198,-5.2205,-5.2848,-5.2139,0.0,0.0,0.0,0.0,-4.9003,-4.8636,-4.9095,-4.8526,-4.8306,-4.8269,-4.8031,-4.7957,-4.7735,0.0,0.0,0.0,0.0,0.0,0.0,0.0,0.0,-2.8679,-3.1103,-3.093,-3.1619,-3.4418,0.0,0.0,0.0,0.0,0.0,0.0,0.0,0.0,0.0,0.0,0.0,0.0,0.0,0.0,-3.1796,-3.3466,0.0,0.0,0.0,0.0,0.0,0.0,0.0,0.0,0.0,0.0,0.0,0.0,0.0,0.0,0.0,0.0,0.0,0.0,0.0,0.0,0.0,0.0,0.0,0.0,-3.6096,-3.7615,-4.1931,-4.6778,-5.1308,-5.3876,-5.6434,-5.8357,-5.8338,-5.5096,-5.1038,-4.7692,-4.2989,-3.8815,-3.7065,-3.5372,-3.4218,-3.4269,-3.3587,-3.3334,-3.4315,-3.51,-3.6784,-4.0222,-4.2772,-4.5566,0.0,0.0,0.0,0.0,0.0,0.0,0.0,0.0,0.0,0.0,0.0,-5.7022,-5.7003,-5.6175,-5.5703,-5.5703,-5.5703,-5.5299,-5.4511,-5.5318,-5.4614,-5.2647,-5.3898,0.0,0.0,0.0,0.0,0.0,-4.9003,-4.8306,-4.8324,-4.8306,-4.8306,-4.8214,-4.7406,-4.7113,-4.6874,0.0,0.0,0.0,0.0,0.0,0.0,0.0,0.0,-2.6888,-2.8873,-2.9147,0.0,0.0,0.0,0.0,0.0,0.0,0.0,0.0,0.0,0.0,0.0,0.0,0.0,0.0,0.0,0.0,-3.35,-3.4647,-3.5764,-3.6892,0.0,0.0,0.0,0.0,0.0,0.0,0.0,0.0,0.0,0.0,0.0,0.0,0.0,0.0,0.0,0.0,0.0,0.0,0.0,0.0,0.0,0.0,0.0,0.0,-3.8173,-4.2335,-4.6759,-4.8759,-5.0741,-5.1933,-5.0798,-4.8586,-4.6124,-4.3923,-4.0816,-3.8084,-3.6942,-3.5846,-3.4937,-3.4408,-3.403,-3.4303,-3.5829,-3.6236,-3.7539,0.0,0.0,0.0,0.0,0.0,0.0,0.0,0.0,0.0,0.0,0.0,0.0,0.0,0.0,-5.6387,-5.6983,-5.6145,-5.5703,-5.5703,-5.5145,-5.503,-5.5299,-5.4414,-5.3494,-5.259,-5.2148,0.0,0.0,0.0,0.0,0.0,-4.8765,-4.8306,-4.8306,-4.8306,-4.7957,-4.7443,-4.7186,-4.7094,-4.6947,0.0,0.0,0.0,0.0,0.0,0.0,0.0,0.0,-2.5482,-2.6999,0.0,0.0,0.0,0.0,0.0,0.0,0.0,0.0,0.0,0.0,0.0,0.0,0.0,0.0,0.0,-3.129,-3.2573,-3.4254,-3.5763,-3.7037,-3.8067,-3.8115,-3.7623,0.0,0.0,0.0,0.0,0.0,0.0,0.0,0.0,0.0,-3.625,0.0,0.0,0.0,0.0,0.0,0.0,0.0,0.0,0.0,0.0,0.0,0.0,0.0,-3.7936,-4.131,-4.4177,-4.6201,-4.7221,-4.6182,-4.4374,0.0,-4.1162,-3.8623,-3.6507,-3.6288,-3.5596,-3.4764,-3.3911,-3.4282,-3.4828,-3.5268,-3.6106,-3.7673,0.0,0.0,0.0,0.0,0.0,0.0,0.0,0.0,0.0,0.0,0.0,0.0,0.0,0.0,-5.5799,-5.606,-5.5818,-5.5549,-5.5241,-5.5049,-5.4895,-5.4741,-5.403,-5.3215,-5.2315,0.0,0.0,0.0,0.0,0.0,0.0,-4.8324,-4.7846,-4.781,-4.7517,-4.7095,-4.6599,-4.6305,-4.6195,-4.6067,0.0,0.0,0.0,0.0,0.0,0.0,0.0,0.0,0.0,0.0,0.0,0.0,0.0,0.0,0.0,0.0,0.0,0.0,0.0,0.0,0.0,0.0,0.0,0.0,0.0,-3.1346,-3.2641,-3.4379,-3.6873,-3.8142,-3.8296,-3.9861,-3.9277,-3.6885,-3.6808,0.0,0.0,0.0,0.0,0.0,0.0,0.0,0.0,0.0,0.0,0.0,0.0,0.0,0.0,0.0,0.0,0.0,0.0,0.0,0.0,0.0,0.0,0.0,0.0,-4.2319,-4.3538,-4.3508,-4.1708,-3.9765,-3.9015,-3.6399,0.0,-3.5154,-3.468,-3.3898,-3.3218,-3.4365,-3.4981,-3.366,-3.543,-3.7603,0.0,-4.2643,0.0,0.0,0.0,0.0,0.0,0.0,0.0,0.0,0.0,0.0,0.0,0.0,0.0,-5.4434,-5.5126,-5.5184,-5.4511,-5.5184,-5.4799,-5.3395,-5.401,-5.351,-5.199,0.0,0.0,0.0,0.0,0.0,0.0,-4.7736,-4.7021,-4.6856,-4.6177,-4.5865,-4.5718,-4.4984,-4.4691,-4.458,0.0,0.0,0.0,0.0,0.0,0.0,0.0,0.0,0.0,0.0,0.0,0.0,0.0,0.0,0.0,0.0,0.0,0.0,0.0,0.0,0.0,0.0,0.0,0.0,0.0,-3.2199,-3.3776,-3.6103,-3.8046,-3.9642,-4.0931,-4.1316,-4.0489,-3.8661,-3.7988,0.0,0.0,0.0,0.0,0.0,0.0,0.0,0.0,0.0,0.0,0.0,-3.4421,-3.4273,0.0,0.0,0.0,0.0,0.0,0.0,0.0,0.0,-3.3119,-3.308,-3.4402,0.0,-3.6159,-3.5691,-3.5122,-3.4641,0.0,-3.3776,-3.3256,-3.3468,-3.3353,-3.3545,-3.4673,-3.468,-3.543,-3.8265,-3.9227,-4.0439,-4.2797,0.0,0.0,0.0,0.0,0.0,0.0,0.0,0.0,0.0,0.0,0.0,0.0,0.0,0.0,-5.351,-5.3683,-5.403,-5.4491,-5.403,-5.4222,-5.5088,-5.3337,-5.2654,-5.2836,0.0,0.0,0.0,0.0,0.0,-4.7645,-4.7259,-4.636,-4.5296,-4.5736,-4.5516,-4.4966,-4.4782,-4.4691,-4.458,0.0,0.0,0.0,0.0,0.0,0.0,0.0,0.0,0.0,0.0,0.0,0.0,0.0,0.0,0.0,0.0,0.0,0.0,0.0,0.0,0.0,0.0,0.0,0.0,0.0,-3.2872,-3.4737,-3.7296,-3.9411,-4.1123,-4.2412,-4.2777,-4.1643,-3.9207,-3.7161,0.0,0.0,0.0,0.0,0.0,-3.5064,0.0,0.0,0.0,0.0,0.0,-3.3192,-3.3009,0.0,-3.3308,-3.3414,-3.358,0.0,0.0,0.0,0.0,-3.191,-3.1283,-3.1262,-3.2795,-3.4346,-3.4139,-3.3795,-3.3603,-3.4007,-3.2891,-3.1968,-3.2737,-3.2891,-3.3199,-3.4141,-3.4872,-3.6103,-3.8373,-3.9746,0.0,0.0,0.0,0.0,0.0,0.0,0.0,0.0,0.0,0.0,0.0,0.0,0.0,0.0,0.0,0.0,0.0,-5.2596,-5.2837,-5.3299,-5.3241,-5.3453,-5.3933,-5.2558,-5.2154,-5.2547,0.0,0.0,0.0,0.0,0.0,-4.7039,-4.6305,-4.548,-4.4727,-4.4764,-4.4525,-4.4158,-4.4158,-4.4158,-4.4085,0.0,0.0,0.0,0.0,0.0,0.0,0.0,0.0,0.0,0.0,0.0,0.0,0.0,0.0,0.0,0.0,0.0,0.0,0.0,0.0,0.0,0.0,0.0,-3.0923,-3.2064,-3.3333,-3.5315,-3.8007,-4.0431,-4.2047,-4.2912,-4.3989,-4.2643,-3.9169,-3.586,-3.4737,0.0,0.0,0.0,0.0,-3.4545,0.0,0.0,0.0,0.0,0.0,0.0,0.0,0.0,-3.2919,-3.2889,-3.2638,-3.4014,0.0,0.0,0.0,0.0,0.0,-2.9879,-3.2342,-3.4963,-3.487,-3.4505,-3.4293,-3.4901,-3.2807,-3.1142,-3.2596,-3.2891,-3.2987,-3.3256,-3.5064,0.0,0.0,0.0,0.0,0.0,0.0,0.0,0.0,0.0,0.0,0.0,0.0,0.0,0.0,0.0,0.0,0.0,0.0,0.0,0.0,-5.1385,-5.1327,-5.1327,-5.2442,-5.2692,-5.2096,-5.1827,-5.1712,-5.1673,-5.031,0.0,0.0,0.0,0.0,-4.6636,-4.526,-4.4635,-4.4452,-4.3754,-4.3515,-4.3515,-4.3515,-4.3515,-4.3497,0.0,0.0,0.0,0.0,0.0,0.0,0.0,0.0,0.0,0.0,0.0,0.0,0.0,0.0,0.0,0.0,0.0,0.0,0.0,0.0,0.0,0.0,0.0,-3.1462,-3.3763,-3.3353,-3.4718,-3.8007,-3.9815,-4.1143,-4.2038,-4.4335,-4.3228,-3.9188,-3.6507,-3.4968,-3.4398,-3.4263,-3.4699,-3.5423,-3.4545,0.0,0.0,0.0,0.0,0.0,0.0,0.0,0.0,-3.0913,-3.1109,-3.1635,-3.1861,0.0,0.0,0.0,0.0,0.0,-3.0227,-3.2401,-3.4014,-3.2363,-3.2913,-3.3704,-3.3104,-3.2542,-3.232,-3.2801,-3.2891,-3.3353,-3.4827,-3.5423,-3.6615,0.0,0.0,0.0,0.0,0.0,0.0,0.0,0.0,0.0,0.0,0.0,0.0,0.0,0.0,0.0,0.0,0.0,0.0,0.0,0.0,-4.8682,-4.8682,-5.0962,-5.2404,-5.2991,-5.1568,-5.0875,-5.0818,-4.8807,-4.7707,0.0,0.0,-4.601,-4.504,-4.4801,-4.4305,-4.3663,-4.3551,-4.3515,-4.3515,-4.3515,-4.3515,-4.3427,0.0,0.0,0.0,0.0,0.0,0.0,0.0,0.0,0.0,0.0,0.0,0.0,0.0,0.0,0.0,0.0,0.0,0.0,0.0,0.0,0.0,0.0,-3.0963,-3.1941,-3.4141,-3.4515,-3.6359,-3.979,-4.1464,-4.2728,-4.358,-4.3084,-4.1574,-3.9169,-3.6142,-3.4834,-3.4872,-3.4398,-3.4699,-3.5385,0.0,0.0,0.0,0.0,0.0,0.0,0.0,0.0,0.0,0.0,-3.0448,-3.0834,-3.1268,0.0,0.0,0.0,0.0,0.0,-2.9776,-3.1438,-3.2887,-3.236,-3.3912,-3.5362,-3.4538,-3.3951,-3.362,-3.3728,-3.4143,-3.4703,-3.5511,0.0,-3.9133,-4.2684,0.0,0.0,0.0,0.0,0.0,0.0,0.0,0.0,0.0,0.0,0.0,0.0,0.0,0.0,0.0,0.0,0.0,0.0,0.0,0.0,-4.8105,-4.925,-5.0048,-5.0433,-4.9663,-4.9298,-4.925,-4.8051,-4.7315,0.0,0.0,-4.536,-4.4654,-4.4232,-4.3828,-4.3515,-4.3515,-4.3515,-4.3515,-4.3515,-4.3515,-4.3462,0.0,0.0,0.0,0.0,0.0,0.0,0.0,0.0,0.0,0.0,0.0,0.0,0.0,0.0,0.0,0.0,0.0,0.0,0.0,0.0,-3.0637,-3.1365,-3.1271,-3.2309,-3.4642,-3.5621,-3.7679,-4.0883,-4.2642,-4.3846,-4.4489,-4.1647,-3.9608,-3.8197,-3.5578,-3.4485,-3.4577,-3.4103,-3.4391,-3.5038,0.0,0.0,0.0,0.0,0.0,0.0,0.0,0.0,0.0,0.0,0.0,0.0,0.0,0.0,0.0,-2.9922,-2.9482,-2.9088,-2.9487,-3.0671,-3.192,-3.2472,-3.4416,-3.6186,-3.6336,-3.5514,-3.491,-3.5528,-3.6266,-3.6704,0.0,-3.8569,0.0,-4.4547,0.0,0.0,0.0,0.0,0.0,0.0,0.0,0.0,0.0,0.0,0.0,0.0,0.0,0.0,0.0,0.0,0.0,0.0,0.0,0.0,-4.7509,-4.7509,-4.7721,-4.8105,-4.7913,-4.7817,-4.7808,-4.7284,-4.683,-4.6396,-4.5461,-4.4827,-4.4378,-4.3754,-4.3515,-4.3515,-4.3515,-4.3515,-4.3515,-4.3515,-4.3515,-4.3479,0.0,0.0,0.0,0.0,0.0,0.0,0.0,0.0,0.0,0.0,0.0,0.0,0.0,0.0,0.0,0.0,0.0,0.0,0.0,0.0,-3.0181,-3.0475,-3.0771,-3.2569,-3.6068,-3.5929,-3.7084,-3.9632,-4.1613,-4.2685,-4.2831,-4.0745,-3.82,-3.5397,-3.5149,-3.3888,-3.2025,-3.2699,-3.3506,-3.4148,-3.2468,0.0,0.0,0.0,0.0,0.0,0.0,0.0,0.0,0.0,0.0,0.0,0.0,0.0,-2.9097,-2.9097,-2.906,-2.917,-2.994,-3.079,-3.1452,-3.1495,-3.246,-3.4143,-3.7081,-3.6559,-3.6142,-3.8637,-3.9443,-3.9369,0.0,-3.9821,-4.1707,0.0,0.0,0.0,0.0,0.0,0.0,0.0,0.0,0.0,0.0,0.0,0.0,0.0,0.0,0.0,0.0,0.0,0.0,0.0,0.0,0.0,-4.5787,-4.5787,-4.6547,-4.8086,-4.7327,-4.6981,-4.6962,-4.6126,-4.5394,-4.4762,-4.468,-4.4229,-4.3588,-4.3533,-4.3515,-4.3515,-4.3515,-4.3515,-4.3515,-4.3515,-4.3515,-4.3427,0.0,0.0,0.0,0.0,0.0,0.0,0.0,0.0,0.0,0.0,0.0,0.0,0.0,0.0,0.0,0.0,0.0,0.0,0.0,0.0,-3.029,-3.0941,-3.0807,-3.1829,-3.4196,-3.5588,-3.7275,-3.9245,-4.056,-4.134,-4.1529,-3.9221,-3.7507,-3.631,-3.5473,-3.4631,-3.3811,-3.3748,-3.3799,-3.3795,-3.2142,-3.1565,0.0,0.0,0.0,0.0,0.0,0.0,0.0,0.0,-2.9005,-2.9005,0.0,-2.9005,-2.9005,-2.9005,-2.9005,-2.9078,-2.9372,-3.0766,-3.2155,-3.2155,-3.2858,-3.4122,-3.6385,-3.7589,-3.867,-4.0174,-4.0987,-4.1208,0.0,0.0,-4.2636,0.0,0.0,0.0,0.0,0.0,0.0,0.0,0.0,0.0,0.0,0.0,0.0,0.0,0.0,0.0,0.0,0.0,0.0,0.0,0.0,0.0,0.0,-4.5594,-4.5922,-4.6528,-4.624,-4.6086,-4.6086,-4.5748,-4.5352,-4.4896,-4.4682,-4.4308,-4.3788,-4.358,-4.3515,-4.3515,-4.3515,-4.3515,-4.3515,-4.3515,-4.3515,-4.3462,0.0,0.0,0.0,0.0,0.0,0.0,0.0,0.0,0.0,0.0,0.0,0.0,0.0,0.0,0.0,0.0,0.0,0.0,0.0,0.0,-3.0205,-3.0852,-3.062,-3.1028,-3.2214,-3.4278,-3.6266,-3.821,-3.8813,-3.9277,-3.9555,-3.7474,-3.6381,-3.6167,-3.559,-3.5094,-3.4611,-3.3963,-3.3599,-3.3268,-3.1504,-3.0888,0.0,0.0,0.0,0.0,0.0,0.0,0.0,0.0,-2.9005,-2.9005,0.0,0.0,-2.9005,-2.9005,-2.9005,-2.9005,-2.9005,-3.0216,-3.1592,-3.2087,-3.3018,-3.4376,-3.656,-3.8138,-3.9717,-4.1811,-4.2268,-4.2216,-4.2017,0.0,0.0,0.0,0.0,0.0,0.0,0.0,0.0,0.0,0.0,0.0,0.0,0.0,0.0,0.0,0.0,0.0,0.0,0.0,0.0,0.0,0.0,0.0,0.0,-4.4806,-4.4806,-4.4806,-4.4806,-4.5094,-4.5594,-4.5594,-4.5419,-4.5085,-4.4751,-4.4359,-4.3971,-4.3629,-4.3515,-4.3515,-4.3515,-4.3515,-4.3515,-4.3515,-4.3515,-4.346,0.0,0.0,0.0,0.0,0.0,0.0,0.0,0.0,0.0,0.0,0.0,0.0,0.0,0.0,0.0,0.0,0.0,0.0,0.0,-2.9969,-2.9788,-2.9991,-3.0112,-3.0314,-3.0602,-3.19,-3.3807,-3.6281,-3.6266,-3.6449,-3.6758,-3.5554,-3.4708,-3.4264,-3.5382,-3.5077,-3.3638,-3.2904,-3.2592,-3.2416,-3.0488,-3.0223,-3.0874,0.0,0.0,0.0,0.0,0.0,0.0,0.0,-2.9005,-2.9005,0.0,0.0,0.0,-2.9005,-2.9005,-2.9005,-2.9005,-2.9023,-2.9427,-3.1017,-3.2632,-3.4688,-3.7973,-3.8102,-3.8906,-4.3718,-4.3442,-4.2419,-4.2728,-4.2145,0.0,0.0,0.0,0.0,0.0,0.0,0.0,0.0,0.0,0.0,0.0,0.0,0.0,0.0,0.0,0.0,0.0,0.0,0.0,0.0,0.0,0.0,0.0,-4.3104,-4.3104,-4.3104,-4.3104,-4.397,-4.5594,-4.5594,-4.54,-4.5085,-4.4751,-4.4359,-4.3986,-4.3629,-4.3496,-4.3496,-4.3478,-4.3478,-4.3478,-4.3478,-4.3478,-4.3368,0.0,0.0,0.0,0.0,0.0,0.0,0.0,0.0,0.0,0.0,0.0,0.0,0.0,0.0,0.0,0.0,0.0,0.0,0.0,0.0,-2.9731,-2.978,0.0,0.0,0.0,0.0,-3.2944,-3.4821,-3.4266,-3.4606,-3.5802,-3.4684,-3.4361,-3.4787,-3.5361,-3.4727,-3.3164,-3.2562,-3.1882,-3.1139,-3.0571,-3.0046,-2.9624,0.0,0.0,0.0,0.0,0.0,0.0,0.0,0.0,0.0,0.0,0.0,0.0,-2.917,-2.939,-2.9721,-2.9152,-3.0234,-3.1775,-3.2834,-3.4775,-3.7107,-3.979,-4.0634,-4.1607,-4.4176,-4.4306,-4.366,-4.2652,0.0,0.0,0.0,0.0,0.0,0.0,0.0,0.0,0.0,0.0,0.0,0.0,0.0,0.0,0.0,0.0,0.0,0.0,0.0,0.0,0.0,0.0,0.0,0.0,0.0,-4.3104,-4.3104,-4.3104,-4.3662,-4.4682,-4.4682,-4.4974,-4.5419,-4.4861,-4.4527,-4.4322,-4.3132,-4.2653,-4.2598,-4.2029,-4.1809,-4.1809,-4.1809,-4.1809,-4.1791,0.0,0.0,0.0,0.0,0.0,0.0,0.0,0.0,0.0,0.0,0.0,0.0,0.0,0.0,0.0,0.0,0.0,0.0,0.0,0.0,0.0,0.0,0.0,0.0,0.0,-3.0849,-3.1723,0.0,0.0,-3.2818,-3.4276,-3.3942,-3.4412,-3.5532,-3.5842,-3.5417,-3.4367,-3.2737,-3.1659,-3.1009,-3.0264,-2.9569,-2.906,0.0,0.0,0.0,0.0,0.0,0.0,0.0,0.0,0.0,-2.9005,-2.9335,-2.9629,-2.9133,-2.9115,-2.9274,-2.9427,-3.0528,-3.2155,-3.4266,-3.6226,-3.8332,-4.11,-4.2516,-4.3442,0.0,-4.4213,-4.3938,-4.2965,0.0,0.0,0.0,0.0,0.0,0.0,0.0,0.0,0.0,0.0,0.0,0.0,0.0,0.0,0.0,0.0,0.0,0.0,0.0,0.0,0.0,0.0,0.0,0.0,0.0,0.0,-4.2066,-4.2066,-4.2489,-4.3335,-4.3989,-4.4412,-4.4568,-4.3908,-4.3455,-4.3131,-4.2221,-4.1827,-4.1791,-4.1279,-4.1095,-4.1095,-4.1095,-4.1095,-4.104,0.0,0.0,0.0,0.0,0.0,0.0,0.0,0.0,0.0,0.0,0.0,0.0,0.0,0.0,0.0,0.0,0.0,0.0,0.0,0.0,0.0,0.0,0.0,0.0,0.0,0.0,0.0,0.0,0.0,-3.1218,-3.2542,-3.3324,-3.4541,-3.6079,-3.6396,-3.6415,-3.6006,-3.3041,-3.1674,-3.1392,-2.9768,-2.9078,-2.9005,-2.9078,0.0,0.0,0.0,0.0,0.0,0.0,0.0,0.0,-2.8913,-2.895,-2.8987,-2.8913,-2.8374,-2.8154,-2.9769,-3.021,-3.1201,-3.5367,-3.7342,-3.9031,-4.2063,-4.367,-4.4325,-4.3644,0.0,-4.3589,0.0,0.0,0.0,0.0,0.0,0.0,0.0,0.0,0.0,0.0,0.0,0.0,0.0,0.0,0.0,0.0,0.0,0.0,0.0,0.0,0.0,0.0,0.0,0.0,0.0,0.0,0.0,0.0,-4.0265,-4.0719,-4.1635,-4.3316,-4.3675,-4.2961,-4.2356,-4.1721,-4.1095,-4.1022,-4.0985,-4.0967,-4.0912,-4.0875,-4.0875,-4.0875,-4.0875,-4.0765,0.0,0.0,0.0,0.0,0.0,0.0,0.0,0.0,0.0,0.0,0.0,0.0,0.0,0.0,0.0,0.0,0.0,0.0,0.0,0.0,0.0,0.0,0.0,0.0,0.0,0.0,0.0,0.0,0.0,-3.0609,-3.199,-3.2569,-3.3403,-3.4376,-3.505,-3.4318,-3.2489,-3.1802,-3.077,-2.9623,-2.9848,-2.9555,-2.9078,-2.9702,-2.9537,0.0,0.0,0.0,0.0,0.0,0.0,0.0,-2.8264,-2.8491,-2.8877,-2.8246,-2.7934,-2.8154,-2.9769,-3.021,-3.1329,-3.606,-3.9449,-4.1939,-4.3068,-4.3233,-4.3213,-4.3446,-4.3993,-4.425,0.0,0.0,0.0,0.0,0.0,0.0,0.0,0.0,0.0,0.0,0.0,0.0,0.0,0.0,0.0,0.0,0.0,0.0,0.0,0.0,0.0,0.0,0.0,0.0,-3.8546,-3.8373,-3.8373,0.0,-3.8546,-3.8988,-3.9892,-4.1566,-4.2317,-4.2299,-4.2169,-4.1721,-4.104,-4.0414,-4.0157,-4.0102,-3.946,-3.9221,-3.9221,-3.9221,-3.9221,-3.9203,0.0,0.0,0.0,0.0,0.0,0.0,0.0,0.0,0.0,0.0,0.0,0.0,0.0,0.0,0.0,0.0,0.0,0.0,0.0,0.0,0.0,0.0,0.0,0.0,0.0,0.0,0.0,0.0,-2.9375,-3.0246,-3.1626,-3.2691,-3.3605,-3.438,-3.4821,-3.4087,-3.2467,-3.1311,-3.0338,-2.9574,-2.961,-2.9372,-2.906,-2.9464,-2.9372,-2.9005,-2.9005,0.0,0.0,0.0,0.0,0.0,0.0,0.0,-2.8282,-2.7457,-2.7236,-2.7493,-2.8723,-2.9879,-3.1905,-3.6644,-4.0202,-4.2541,-4.2662,-4.2594,-4.2595,-4.2859,-4.3571,0.0,0.0,0.0,0.0,0.0,0.0,0.0,0.0,0.0,0.0,0.0,0.0,0.0,0.0,0.0,0.0,0.0,0.0,0.0,0.0,0.0,0.0,0.0,0.0,0.0,-3.7373,-3.7373,-3.7584,-3.8007,-3.8007,-3.8238,-3.8719,-4.0412,-4.0873,-4.0328,-4.0328,-3.9754,-3.8781,-3.834,-3.841,-3.8667,-3.7863,-3.779,-3.8083,-3.7698,-3.7551,-3.7606,0.0,0.0,0.0,0.0,0.0,0.0,0.0,0.0,0.0,0.0,0.0,0.0,0.0,0.0,0.0,0.0,0.0,0.0,0.0,0.0,0.0,0.0,0.0,0.0,0.0,0.0,0.0,-2.9005,-2.9214,-3.012,-3.1623,-3.2834,-3.3899,-3.4784,-3.4656,-3.4142,-3.3238,-3.1109,-3.0118,-2.9934,-2.9262,-2.9005,-2.9005,-2.9005,-2.9005,-2.9005,-2.9005,-2.9005,-2.9005,-2.9005,0.0,0.0,0.0,0.0,-2.742,-2.6631,-2.63,-2.6429,-2.7512,-2.9715,-3.2679,-3.6737,-3.9624,-4.1488,-4.1535,-4.1497,-4.1555,-4.1832,0.0,0.0,0.0,0.0,0.0,0.0,0.0,0.0,0.0,0.0,0.0,0.0,0.0,0.0,0.0,0.0,0.0,0.0,0.0,0.0,0.0,0.0,0.0,0.0,0.0,-3.6199,-3.6038,-3.6192,-3.6622,-3.7353,-3.7642,-3.77,-3.7623,-3.9296,-3.9372,-3.8188,-3.8188,-3.7449,-3.6303,-3.6303,-3.6703,-3.7235,-3.656,-3.6707,-3.7217,-3.6556,-3.6303,-3.6395,0.0,0.0,0.0,0.0,0.0,0.0,0.0,0.0,0.0,0.0,0.0,0.0,0.0,0.0,0.0,0.0,0.0,0.0,-2.9044,0.0,0.0,-3.0044,-3.0907,-3.0962,0.0,0.0,0.0,-2.9005,-2.9051,-3.0215,-3.2417,-3.1953,-3.2522,-3.3935,-3.3225,-3.2467,-3.1654,-3.0632,-2.9794,-2.9152,-2.9042,-2.9005,-2.9005,-2.9005,-2.9005,-2.9005,-2.9005,-2.9005,-2.9005,-2.9005,-2.9005,0.0,0.0,0.0,-2.6594,-2.5797,-2.5081,-2.4997,-2.72,-3.0334,-3.3442,-3.5379,-3.7053,-3.8637,0.0,0.0,-3.8605,0.0,0.0,0.0,0.0,0.0,0.0,0.0,0.0,0.0,0.0,0.0,0.0,0.0,0.0,0.0,0.0,0.0,0.0,0.0,0.0,0.0,0.0,0.0,-3.4923,-3.3295,-3.4083,0.0,-3.341,-3.416,-3.459,-3.4725,-3.618,-3.65,-3.5885,-3.7565,-3.7948,-3.7271,-3.7271,-3.6894,-3.6303,-3.6303,-3.6358,-3.645,-3.634,-3.6358,-3.645,-3.634,-3.6303,-3.6321,0.0,0.0,0.0,0.0,0.0,0.0,0.0,0.0,0.0,0.0,0.0,0.0,0.0,0.0,0.0,-2.9005,-2.9005,-2.9005,-2.9005,-2.9335,-2.9537,-2.9537,-2.9879,-2.9886,-2.9537,0.0,0.0,-2.9005,-2.9005,-2.9996,-3.1935,-3.2027,-3.3421,-3.584,-3.5037,-3.384,-3.2375,-3.0833,-2.9606,-2.8682,-2.8917,-2.873,-2.8374,-2.8822,-2.8712,-2.8393,-2.884,-2.9005,-2.9005,-2.9005,-2.9005,-2.8712,-2.7115,0.0,0.0,0.0,-2.4805,-2.5301,-2.7265,-2.8966,-3.0693,-3.2886,-3.463,-3.6167,-3.7505,-3.7281,-3.6939,0.0,0.0,0.0,0.0,0.0,0.0,0.0,0.0,0.0,0.0,0.0,0.0,0.0,0.0,0.0,0.0,0.0,0.0,0.0,0.0,0.0,0.0,-3.3833,-3.3487,-3.2275,-3.3045,0.0,-3.2237,-3.3551,-3.4205,-3.4205,-3.4449,-3.4641,-3.4795,-3.5526,-3.5826,-3.5769,-3.6243,-3.5841,-3.4908,-3.4908,-3.5165,-3.5518,-3.5073,-3.5165,-3.5532,-3.5073,-3.4908,-3.4963,0.0,0.0,0.0,0.0,0.0,0.0,0.0,0.0,0.0,0.0,0.0,0.0,0.0,0.0,0.0,0.0,-2.9005,-2.9005,-2.9005,-2.9005,-2.9005,-2.9005,-2.9005,-2.9005,-2.9005,0.0,-2.9005,-2.9005,-2.9005,-2.9886,-3.1568,-3.2378,-3.4308,-3.7109,-3.6203,-3.4623,-3.2553,-3.0871,-2.9616,-2.8691,-2.8591,-2.824,-2.7842,-2.8235,-2.8014,-2.7603,-2.84,-2.8693,-2.873,-2.8932,-2.9005,-2.8712,-2.7115,-2.6602,0.0,0.0,0.0,-2.5356,-2.6568,-2.7098,-2.7839,-2.9958,-3.1678,-3.3153,0.0,0.0,0.0,0.0,0.0,0.0,0.0,0.0,0.0,0.0,0.0,0.0,0.0,0.0,0.0,0.0,0.0,0.0,0.0,0.0,0.0,0.0,0.0,0.0,-3.2428,-3.2756,-3.2429,-3.141,-3.2179,-3.2199,-3.1391,-3.2833,-3.3667,-3.3859,-3.3218,-3.3237,-3.3872,-3.3813,-3.3887,-3.4109,-3.5148,-3.4906,-3.3807,-3.3807,-3.4156,-3.4637,-3.4027,-3.4174,-3.4601,-3.3775,-3.3495,-3.3587,0.0,0.0,0.0,0.0,0.0,0.0,0.0,0.0,0.0,0.0,0.0,0.0,-2.7842,-2.8528,-2.9005,-2.9005,-2.9005,-2.9005,-2.9005,-2.9005,-2.9005,-2.9005,-2.9005,0.0,-2.9005,-2.9005,-2.9005,-2.9005,-2.9005,-3.0026,-3.1989,-3.278,-3.4251,-3.6132,-3.492,-3.3118,-3.0894,-3.0335,-2.9882,-2.9409,-2.7897,-2.7506,-2.7725,-2.6998,-2.6693,-2.6778,-2.7567,-2.786,-2.797,-2.873,-2.9005,-2.8712,-2.7115,-2.6602,-2.6282,0.0,0.0,0.0,-2.4355,-2.5176,-2.6145,-2.6706,-2.7746,-2.9054,0.0,0.0,0.0,0.0,0.0,0.0,0.0,0.0,0.0,0.0,0.0,0.0,0.0,0.0,0.0,0.0,0.0,0.0,0.0,0.0,0.0,0.0,0.0,0.0,-3.1325,-3.2345,-3.216,-3.0519,-3.1308,-3.1346,-3.0481,-3.1365,-3.2218,-3.2968,-3.291,-3.291,-3.2962,-3.2766,-3.2556,-3.2421,-3.4053,-3.4409,-3.3807,-3.3807,-3.3825,-3.3862,-3.3825,-3.3825,-3.3752,-3.2949,-3.2656,-3.2674,0.0,0.0,0.0,0.0,0.0,0.0,0.0,0.0,0.0,0.0,0.0,0.0,0.0,-2.8822,-2.9005,-2.9005,-2.9005,-2.9005,-2.9005,-2.9005,-2.9005,-2.9005,-2.9005,-2.9005,-2.9005,-2.9005,-2.9005,-2.9005,-2.8749,-2.9259,-3.0459,-3.107,-3.1426,-3.1675,-3.3262,-3.3074,-3.1483,-3.0061,-2.8935,-2.8068,-2.7453,-2.6983,-2.6636,-2.66,-2.6282,-2.5944,0.0,0.0,-2.7842,-2.8136,-2.8565,-2.8712,-2.7115,-2.6602,-2.6282,-2.4667,-2.419,-2.419,-2.419,-2.4504,-2.4972,-2.5654,-2.6182,-2.6804,-2.7912,0.0,0.0,0.0,0.0,0.0,0.0,0.0,0.0,0.0,0.0,0.0,0.0,0.0,0.0,0.0,0.0,0.0,0.0,0.0,0.0,0.0,0.0,0.0,-2.9665,-3.055,-3.0586,-2.9602,-2.9871,-3.016,-3.0404,-3.0712,-3.1288,-3.2122,-3.1558,-3.1596,-3.2115,-3.1891,-3.1931,-3.2223,-3.2649,-3.2627,-3.226,-3.226,-3.226,-3.2302,-3.2834,-3.2706,-3.2284,-3.2509,-3.2284,-3.1825,0.0,0.0,0.0,0.0,0.0,0.0,0.0,0.0,0.0,-2.5799,0.0,0.0,0.0,0.0,-2.894,-2.8815,-2.8797,-2.8749,-2.8639,-2.887,-2.894,-2.8797,-2.8929,-2.9005,-2.9005,-2.8863,-2.8797,-2.8797,-2.8425,-2.8559,-2.9201,-2.9516,-2.9455,-2.9155,-3.0971,-3.1428,-3.0733,-2.9561,-2.8521,-2.7594,-2.6794,-2.6371,-2.6222,-2.6218,0.0,0.0,0.0,0.0,0.0,-2.7138,-2.7422,-2.7634,-2.6421,-2.5915,-2.5585,-2.4502,-2.419,-2.419,-2.419,-2.419,-2.4299,0.0,-2.4781,-2.4917,-2.5604,0.0,0.0,0.0,0.0,0.0,0.0,0.0,0.0,0.0,0.0,0.0,0.0,0.0,0.0,0.0,0.0,0.0,0.0,0.0,0.0,0.0,0.0,0.0,-2.8232,-2.8867,-2.9046,-2.8717,-2.8703,-2.8986,-2.9558,-2.9558,-2.9987,-3.0814,-2.9967,-3.0154,-3.1244,-3.0607,-3.0709,-3.1336,-3.1001,-3.1066,-3.1397,-3.1397,-3.1397,-3.1452,-3.199,-3.1861,-3.1433,-3.1696,-3.1458,-3.0999,0.0,0.0,0.0,0.0,0.0,0.0,0.0,0.0,0.0,-2.553,0.0,0.0,0.0,0.0,0.0,-2.842,-2.8394,-2.825,-2.7926,-2.8576,-2.8803,-2.842,-2.8773,-2.8994,-2.9005,0.0,0.0,0.0,0.0,0.0,0.0,-2.8363,-2.8562,-2.8891,-2.8129,-2.7964,-2.8383,-2.8764,-2.8715,-2.8157,0.0,-2.5687,-2.6559,0.0,0.0,0.0,-2.6559,-2.6604,0.0,-2.5808,0.0,0.0,0.0,-2.459,-2.418,-2.4208,-2.419,-2.419,0.0,0.0,0.0,0.0,0.0,0.0,-2.3767,0.0,0.0,0.0,0.0,0.0,0.0,0.0,0.0,0.0,0.0,0.0,0.0,0.0,0.0,0.0,0.0,0.0,0.0,0.0,0.0,0.0,0.0,-2.6116,-2.7113,-2.7407,-2.765,-2.7852,-2.7857,-2.7857,-2.7857,-2.7895,-2.8299,-2.9069,-2.828,-2.8756,-3.0277,-2.8955,-2.8829,-2.9603,-2.9132,-2.9843,-3.1305,-3.1323,-3.1342,-3.1342,-3.136,-3.136,-3.125,-3.0485,-3.0173,-3.0173,0.0,0.0,0.0,0.0,0.0,0.0,0.0,0.0,-2.567,0.0,0.0,0.0,-2.8034,-2.8147,-2.8161,-2.8047,-2.8034,-2.7992,-2.7911,-2.8093,-2.8268,-2.8394,-2.8515,-2.8694,-2.8994,0.0,0.0,0.0,0.0,0.0,0.0,0.0,0.0,0.0,-2.7097,-2.7063,-2.7181,-2.7284,0.0,-2.7078,-2.6169,-2.5657,0.0,0.0,0.0,0.0,0.0,-2.4534,-2.5007,0.0,-2.5506,-2.6375,0.0,0.0,-2.3886,-2.4141,0.0,-2.419,-2.419,0.0,0.0,0.0,0.0,0.0,0.0,0.0,0.0,0.0,0.0,0.0,0.0,0.0,0.0,0.0,0.0,0.0,0.0,0.0,0.0,0.0,0.0,0.0,0.0,0.0,0.0,0.0,0.0,-2.5672,-2.6097,-2.647,-2.6745,-2.6942,-2.6967,-2.6967,-2.6967,-2.7582,-2.8011,-2.8222,-2.8011,-2.814,-2.8571,-2.7861,-2.7668,-2.7869,-2.7458,-2.7842,-2.8833,-2.942,-2.9647,-2.9721,-3.0301,-3.0173,-2.9702,-3.0081,-2.9831,-2.9335,0.0,0.0,0.0,0.0,0.0,0.0,0.0,0.0,-2.6146,0.0,0.0,0.0,-2.7883,-2.8021,-2.797,-2.7669,-2.7648,-2.7574,-2.7409,-2.7707,-2.7996,-2.8183,-2.8197,-2.8373,-2.8749,0.0,0.0,0.0,0.0,0.0,0.0,0.0,0.0,0.0,0.0,0.0,-2.6674,0.0,0.0,0.0,-2.5437,0.0,0.0,-2.4593,-2.4313,0.0,0.0,0.0,-2.5171,-2.3946,-2.4436,0.0,0.0,0.0,0.0,0.0,0.0,-2.4384,-2.3907,-2.3785,-2.3774,0.0,0.0,0.0,-2.2923,-2.2594,0.0,0.0,0.0,0.0,0.0,0.0,0.0,0.0,0.0,0.0,0.0,0.0,0.0,0.0,0.0,0.0,0.0,0.0,0.0,0.0,-2.4514,-2.5023,-2.5306,-2.5605,-2.5859,-2.6053,-2.6058,-2.6058,-2.6058,-2.6563,-2.7005,-2.7351,-2.6986,-2.7198,-2.7865,-2.7063,-2.6876,-2.718,-2.6773,-2.6869,-2.7365,-2.8172,-2.8693,-2.906,-2.9519,-2.9409,-2.906,-2.9537,-2.939,-2.9005,0.0,0.0,0.0,0.0,0.0,0.0,0.0,0.0,-2.6793,0.0,-2.7088,-2.7552,-2.8012,-2.8225,-2.8107,-2.7536,-2.7414,-2.7203,-2.686,-2.7487,-2.7871,-2.784,-2.784,-2.7992,-2.8342,-2.766,0.0,0.0,0.0,0.0,0.0,0.0,0.0,0.0,0.0,0.0,0.0,0.0,0.0,-2.6387,-2.4355,-2.4306,0.0,0.0,-2.4729,-2.5152,-2.4491,-2.51,-2.5812,-2.3291,-2.2996,0.0,0.0,0.0,0.0,0.0,-2.4248,-2.4539,-2.3495,-2.32,-2.3259,0.0,0.0,0.0,-2.3051,-2.2712,-2.2349,0.0,0.0,0.0,0.0,0.0,0.0,0.0,0.0,0.0,0.0,0.0,0.0,0.0,0.0,0.0,0.0,0.0,-2.4534,-2.4225,-2.419,-2.4366,-2.4746,-2.4904,-2.5071,-2.5264,-2.5298,-2.5308,-2.5308,-2.5308,-2.5692,-2.6447,-2.5673,-2.6115,-2.7577,-2.641,-2.6264,-2.6916,-2.6514,-2.6392,-2.6521,-2.7236,-2.8062,-2.8877,-2.8968,-2.9005,-2.9005,-2.9005,-2.9005,-2.9005,-2.527,0.0,0.0,0.0,0.0,0.0,0.0,0.0,-2.7367,-2.6776,-2.7284,-2.8066,-2.9086,-2.8425,-2.8116,-2.8626,-2.8082,-2.7657,-2.7587,-2.7726,-2.7703,-2.7428,-2.7426,-2.7604,-2.7978,-2.7545,0.0,0.0,0.0,0.0,0.0,0.0,0.0,0.0,0.0,0.0,0.0,0.0,0.0,-2.5727,-2.4711,0.0,-2.4626,-2.3915,-2.3342,-2.2922,-2.2769,-2.2919,-2.3158,-2.3173,-2.2928,-2.2852,0.0,0.0,0.0,-2.4105,0.0,0.0,0.0,0.0,0.0,0.0,0.0,0.0,-2.2504,-2.2554,-2.2621,0.0,0.0,0.0,0.0,0.0,0.0,0.0,0.0,0.0,0.0,0.0,0.0,0.0,0.0,0.0,0.0,0.0,-2.3979,-2.4189,-2.419,-2.4303,-2.4553,-2.4734,-2.4916,-2.5046,-2.5214,-2.5308,-2.5308,-2.5308,-2.5385,-2.5558,-2.5385,-2.5481,-2.5798,-2.5265,-2.5118,-2.5246,-2.4838,-2.5044,-2.565,-2.5797,-2.6715,-2.8099,-2.8748,-2.9005,-2.9005,-2.9005,-2.9005,-2.9005,-2.4982,0.0,0.0,0.0,0.0,0.0,0.0,0.0,-2.7807,-2.7842,-2.8501,-2.9013,-2.9229,-2.9067,-2.8975,-2.8993,-2.8619,-2.823,-2.7824,-2.7807,-2.7657,-2.7305,-2.7115,-2.7194,-2.7589,-2.721,-2.6987,0.0,0.0,0.0,0.0,0.0,0.0,0.0,0.0,0.0,0.0,0.0,-2.527,-2.5507,-2.4391,0.0,-2.3881,-2.3122,-2.2617,-2.2296,-2.2296,-2.2296,-2.2465,-2.3579,-2.346,0.0,0.0,-2.399,-2.4064,0.0,-2.3668,-2.3689,0.0,0.0,0.0,-2.2712,0.0,0.0,0.0,-2.273,-2.2708,0.0,0.0,0.0,0.0,0.0,0.0,0.0,0.0,0.0,0.0,0.0,0.0,0.0,0.0,0.0,0.0,0.0,-2.4016,-2.418,-2.419,-2.4284,-2.4486,-2.4693,-2.4869,-2.5004,-2.5203,-2.5308,-2.5308,-2.5308,-2.5308,-2.5308,-2.5308,-2.5308,-2.5298,-2.4942,-2.4804,-2.4782,-2.4375,-2.4438,-2.4824,-2.5227,-2.6109,-2.7236,-2.7647,-2.7794,-2.7849,-2.8253,-2.8411,-2.8466,-2.4457,0.0,0.0,0.0,0.0,0.0,0.0,0.0,-2.7943,-2.8891,-2.9634,-2.9973,-2.967,-2.9905,-3.0091,-3.0059,-2.9145,-2.8536,-2.8466,-2.7908,-2.7402,-2.6988,-2.6805,-2.6806,-2.6971,-2.6789,-2.6691,0.0,0.0,0.0,0.0,0.0,0.0,0.0,0.0,0.0,0.0,0.0,0.0,-2.527,0.0,-2.3562,-2.3731,-2.2852,-2.2499,-2.2482,-2.2347,-2.2296,-2.2499,-2.3848,-2.3898,-2.3384,-2.3289,-2.3988,0.0,0.0,0.0,0.0,0.0,0.0,0.0,0.0,0.0,-2.2429,0.0,0.0,0.0,0.0,0.0,0.0,0.0,0.0,0.0,0.0,0.0,0.0,0.0,0.0,0.0,0.0,0.0,0.0,0.0,0.0,-2.3969,-2.3969,-2.3969,-2.4118,-2.4426,-2.4631,-2.4814,-2.4955,-2.5141,-2.5264,-2.5308,-2.5308,-2.5308,-2.5308,-2.5308,-2.5308,-2.5298,-2.4942,-2.4804,-2.4782,-2.4375,-2.419,-2.4245,-2.4897,-2.5558,-2.6172,-2.6473,-2.6693,-2.6906,-2.7548,-2.7798,-2.7915,-2.4372,-2.4626,0.0,0.0,0.0,0.0,0.0,0.0,0.0,-2.8807,-2.9634,-3.0565,-3.1785,-3.0835,-3.1123,-3.3643,-2.9653,0.0,-3.0632,0.0,-2.6522,-2.5809,-2.6386,-2.642,-2.5809,-2.6403,-2.6691,-2.6691,0.0,0.0,0.0,0.0,0.0,0.0,-2.5896,0.0,0.0,0.0,-2.4541,0.0,-2.3729,-2.4188,0.0,-2.3799,-2.3274,-2.319,-2.2533,-2.2296,-2.2431,0.0,-2.346,-2.3628,0.0,-2.4694,-2.4067,-2.4249,0.0,0.0,0.0,0.0,0.0,0.0,-2.2307,0.0,0.0,0.0,0.0,0.0,0.0,0.0,0.0,0.0,0.0,0.0,0.0,0.0,0.0,0.0,0.0,0.0,0.0,0.0,0.0,0.0,0.0,-2.3134,-2.3134,-2.3465,-2.4201,-2.4418,-2.4623,-2.4825,-2.4968,-2.5111,-2.5303,-2.5308,-2.5308,-2.5308,-2.5308,-2.5308,-2.5298,-2.4942,-2.4804,-2.4782,-2.4375,-2.419,-2.4208,-2.43,-2.4392,-2.4612,-2.6043,-2.7034,-2.7658,-2.778,-2.7798,-2.7915,-2.3729,-2.4203,-2.4829,0.0,0.0,0.0,0.0,0.0,0.0,-2.8976,-3.0398,-3.1765,0.0,0.0,0.0,-3.4336,0.0,-3.0313,0.0,0.0,-2.7418,-2.7571,-2.6996,-2.6759,-2.6877,-2.6759,-2.6691,-2.6691,-2.6691,0.0,0.0,0.0,0.0,0.0,-2.51,0.0,-2.4171,0.0,-2.4491,0.0,0.0,0.0,0.0,-2.3494,-2.2767,-2.2733,-2.2398,-2.2296,-2.2347,0.0,-2.3054,0.0,0.0,0.0,0.0,0.0,0.0,0.0,0.0,0.0,0.0,0.0,0.0,0.0,-2.2487,0.0,-2.2746,0.0,0.0,0.0,0.0,0.0,0.0,0.0,0.0,0.0,0.0,0.0,0.0,0.0,0.0,0.0,0.0,0.0,0.0,0.0,0.0,-2.3354,-2.4153,-2.4393,-2.4583,-2.4797,-2.4917,-2.5094,-2.5303,-2.5308,-2.5308,-2.5308,-2.5308,-2.5248,-2.513,-2.4903,-2.4738,-2.4607,-2.4312,-2.419,-2.419,-2.419,-2.4493,-2.4915,-2.5126,-2.5401,-2.5768,-2.6237,-2.6403,-2.6586,-2.3257,-2.3663,-2.4188,0.0,0.0,0.0,0.0,0.0,0.0,0.0,0.0,0.0,-3.3575,-3.3525,0.0,0.0,-3.3151,-3.1657,0.0,0.0,-2.7816,0.0,0.0,0.0,0.0,-2.6979,-2.6894,-2.6691,0.0,0.0,0.0,0.0,0.0,0.0,0.0,-2.3915,-2.2953,0.0,-2.4017,-2.4237,-2.456,-2.4697,-2.4527,-2.3139,-2.2482,-2.2296,-2.2296,-2.2296,-2.233,-2.2533,-2.297,0.0,-2.3004,0.0,0.0,0.0,0.0,0.0,-2.2296,0.0,0.0,0.0,0.0,0.0,0.0,0.0,0.0,0.0,0.0,0.0,0.0,0.0,0.0,0.0,0.0,0.0,0.0,0.0,0.0,0.0,0.0,0.0,0.0,0.0,0.0,0.0,-2.2804,0.0,-2.4153,-2.4348,-2.4545,-2.479,-2.4891,-2.5053,-2.5303,-2.5308,-2.5308,-2.5308,-2.5234,-2.5146,-2.4979,-2.4795,-2.4639,-2.4486,-2.4284,-2.419,-2.419,-2.419,-2.4548,-2.5007,-2.4438,-2.419,-2.43,-2.5099,-2.554,-2.5925,-2.3257,-2.2852,-2.2835,0.0,0.0,0.0,0.0,0.0,0.0,0.0,0.0,0.0,0.0,0.0,0.0,0.0,0.0,-3.0849,-3.2173,0.0,-2.6926,0.0,0.0,-2.7571,0.0,0.0,-2.7418,-2.6691,0.0,0.0,0.0,0.0,0.0,0.0,0.0,-2.4474,-2.4338,-2.297,-2.2784,-2.3376,-2.2682,-2.2398,-2.2482,0.0,-2.2919,-2.2296,-2.2296,0.0,0.0,-2.3122,-2.3376,0.0,0.0,0.0,0.0,0.0,0.0,0.0,0.0,0.0,0.0,-2.2296,0.0,0.0,0.0,0.0,-2.2388,0.0,0.0,0.0,0.0,0.0,-2.2702,-2.2578,0.0,0.0,0.0,0.0,0.0,0.0,0.0,0.0,0.0,0.0,0.0,0.0,-2.2281,0.0,-2.4116,-2.4218,-2.4393,-2.479,-2.4804,-2.4974,-2.5303,-2.5308,-2.5308,-2.5303,-2.5099,-2.501,-2.4998,-2.4666,-2.4512,-2.4486,-2.4284,-2.419,-2.419,-2.419,-2.4208,-2.4245,-2.4208,-2.419,-2.43,-2.5099,-2.5888,-2.6686,-2.3444,-2.3594,-2.4069,0.0,0.0,0.0,0.0,-2.8924,0.0,0.0,0.0,0.0,0.0,-3.5734,-3.5992,0.0,0.0,-3.2595,-3.3062,-3.0792,0.0,0.0,0.0,-2.8626,0.0,0.0,0.0,0.0,0.0,0.0,0.0,0.0,0.0,0.0,0.0,-2.3494,0.0,0.0,0.0,0.0,0.0,-2.3038,-2.3004,0.0,0.0,-2.2296,-2.2296,-2.2296,0.0,-2.2584,-2.3004,-2.3359,-2.3122,-2.3207,-2.3291,-2.2818,-2.2499,0.0,0.0,0.0,-2.2296,-2.2296,0.0,0.0,0.0,0.0,0.0,0.0,0.0,0.0,0.0,0.0,-2.3421,-2.3591,-2.3228,-2.2835,0.0,0.0,0.0,0.0,0.0,0.0,0.0,0.0,0.0,-2.13,-2.1098,-2.1648,0.0,-2.3419,-2.3776,-2.4583,-2.4731,-2.4896,-2.5099,-2.5224,-2.5224,-2.5099,-2.5028,-2.4891,-2.4674,-2.4551,-2.4436,-2.4294,-2.4228,-2.419,-2.419,-2.419,-2.419,-2.419,-2.419,-2.419,-2.4226,-2.4511,-2.5117,-2.5925,-2.414,-2.4355,0.0,0.0,0.0,0.0,0.0,0.0,0.0,0.0,-3.3981,0.0,-3.6578,0.0,-3.6684,0.0,-3.5177,-3.3907,-3.3113,-3.1771,0.0,-2.863,-2.9564,0.0,0.0,0.0,0.0,0.0,0.0,-2.6962,0.0,0.0,0.0,0.0,0.0,-2.3376,-2.2733,0.0,-2.3241,0.0,0.0,-2.3004,0.0,0.0,-2.2448,0.0,0.0,-2.2296,-2.2296,-2.2296,-2.2632,-2.2936,-2.2448,-2.2632,-2.2919,-2.2431,-2.2296,-2.2296,-2.2296,-2.2296,0.0,0.0,-2.2296,0.0,-2.2527,0.0,0.0,0.0,0.0,0.0,0.0,0.0,-2.3621,-2.3976,-2.3164,-2.2626,0.0,-2.3006,0.0,0.0,0.0,0.0,0.0,0.0,-2.0189,-2.1318,-2.1116,-2.1685,0.0,0.0,-2.375,-2.4476,-2.4623,-2.4771,-2.4936,-2.5055,-2.5055,-2.4936,-2.4852,-2.4715,-2.4503,-2.4436,-2.433,-2.419,-2.419,-2.419,-2.419,-2.419,-2.419,-2.419,-2.419,-2.419,-2.419,-2.419,-2.4713,-2.5558,-2.5191,0.0,0.0,0.0,-2.5828,0.0,0.0,0.0,-3.2598,0.0,-3.4788,-3.5988,-3.6675,-3.6763,-3.6686,-3.6506,-3.5873,-3.4608,-3.244,-3.2351,0.0,0.0,-2.9119,-2.8522,-2.4812,0.0,0.0,0.0,0.0,0.0,0.0,0.0,0.0,0.0,-2.4829,0.0,-2.3393,-2.3393,-2.297,-2.2296,-2.2296,-2.2313,-2.2347,-2.2313,0.0,-2.3291,-2.2564,-2.2296,-2.2296,-2.2296,-2.2296,-2.2296,-2.2296,-2.2296,-2.2296,-2.2296,-2.2296,-2.2296,-2.2296,-2.2296,-2.2296,-2.2296,0.0,0.0,0.0,0.0,-2.2324,0.0,0.0,0.0,0.0,0.0,0.0,-2.3671,-2.3089,-2.2701,-2.3006,0.0,0.0,0.0,0.0,0.0,0.0,-2.107,-2.1226,-2.2822,-2.2226,-2.2473,0.0,0.0,0.0,-2.4478,-2.4495,-2.4583,-2.4782,-2.4797,-2.4797,-2.4782,-2.4583,-2.4495,-2.4478,-2.4284,-2.419,-2.419,-2.419,-2.419,-2.419,-2.419,-2.419,-2.419,-2.419,-2.419,-2.419,-2.4245,-2.4713,-2.5558,-2.5001,-2.5506,-2.6302,0.0,-2.7266,-2.8027,0.0,0.0,0.0,0.0,-3.636,-3.736,-3.751,-3.7516,-3.6854,-3.5168,-3.4439,0.0,0.0,0.0,0.0,-2.8318,-3.0051,-2.9181,-2.5083,-2.7627,0.0,-2.5592,0.0,0.0,-2.6674,0.0,0.0,0.0,0.0,0.0,-2.3393,-2.3393,-2.297,-2.2296,-2.2296,-2.2632,0.0,0.0,-2.2767,-2.3291,-2.2564,-2.2296,-2.2296,-2.2296,-2.2296,-2.2296,-2.2296,-2.2296,-2.2296,-2.2296,-2.2296,-2.2296,-2.2296,-2.2296,-2.2296,-2.2296,-2.2296,-2.2349,0.0,0.0,0.0,0.0,0.0,0.0,0.0,0.0,0.0,-2.3986,-2.3909,-2.3783,0.0,0.0,0.0,-2.4171,0.0,0.0,0.0,-2.1951,-2.1647,-2.2088,-2.1923,0.0,0.0,0.0,0.0,-2.4247,-2.4409,-2.451,-2.4586,-2.4723,-2.4723,-2.4586,-2.451,-2.4409,-2.4284,-2.4218,-2.419,-2.419,-2.419,-2.419,-2.419,-2.419,-2.419,-2.419,-2.419,-2.419,-2.4263,-2.4879,-2.4842,-2.4658,-2.6015,0.0,0.0,-2.9161,0.0,0.0,-3.0881,0.0,0.0,-3.543,-3.7229,0.0,-3.6958,-3.7409,-3.6922,-3.4674,-3.4159,0.0,-3.2138,0.0,0.0,-2.8586,-2.945,-2.8394,-2.5003,-2.6929,0.0,-2.5118,0.0,0.0,-2.6674,0.0,0.0,0.0,0.0,-2.4271,-2.3864,-2.3543,-2.3156,-2.275,-2.2431,0.0,0.0,-2.2448,-2.2564,-2.2868,-2.2448,-2.2296,-2.2296,-2.2296,-2.2296,-2.2296,-2.2296,-2.2296,-2.2296,-2.2296,-2.2296,-2.2296,-2.2296,-2.2296,-2.2296,-2.2296,-2.2296,-2.2335,-2.2487,-2.2541,-2.2563,0.0,0.0,0.0,0.0,0.0,0.0,-2.3665,0.0,0.0,0.0,0.0,0.0,0.0,0.0,0.0,0.0,0.0,0.0,0.0,0.0,0.0,0.0,0.0,0.0,0.0,-2.4312,-2.4366,-2.4366,-2.4478,-2.4478,-2.4366,-2.4366,-2.4312,-2.419,-2.419,-2.419,-2.419,-2.419,-2.419,-2.419,-2.419,-2.419,-2.419,-2.419,-2.419,-2.4245,-2.4713,-2.4585,-2.4318,-2.7529,0.0,0.0,0.0,0.0,0.0,0.0,-3.4269,0.0,-3.5602,0.0,-3.8065,-3.5951,-3.6807,-3.6662,-3.4554,0.0,-3.341,-3.1496,-3.1301,-3.0368,-2.8378,-2.8121,-2.6908,-2.4571,-2.588,-2.5898,0.0,0.0,0.0,0.0,0.0,0.0,0.0,0.0,0.0,0.0,-2.3577,-2.3257,0.0,-2.2564,-2.2296,-2.2296,-2.2296,-2.2296,-2.2296,-2.2296,-2.2296,-2.2296,-2.2296,-2.2296,-2.2296,-2.2296,-2.2296,-2.2296,-2.2296,-2.2296,-2.2296,-2.2296,-2.2296,-2.2296,-2.2296,-2.2296,-2.231,-2.2349,-2.2349,-2.2426,-2.2712,-2.2996,0.0,0.0,0.0,0.0,0.0,0.0,0.0,0.0,0.0,0.0,0.0,0.0,0.0,0.0,0.0,0.0,0.0,0.0,0.0,0.0,0.0,0.0,0.0,-2.419,0.0,-2.4355,0.0,-2.4245,-2.4355,-2.4245,-2.419,-2.419,-2.4228,-2.4247,-2.4247,-2.4247,-2.4247,-2.4237,-2.4209,-2.419,-2.419,-2.419,-2.419,-2.419,-2.419,-2.419,-2.43,0.0,0.0,0.0,0.0,0.0,-3.3523,-3.4815,-3.4796,-3.4848,-3.5503,-3.7019,-3.761,-3.653,-3.6174,-3.5366,-3.3816,-3.317,0.0,0.0,0.0,0.0,-2.7796,-2.7642,-2.6324,-2.36,-2.5241,-2.5426,0.0,0.0,0.0,0.0,0.0,0.0,0.0,0.0,0.0,-2.3528,-2.2818,0.0,-2.2482,-2.2347,-2.2296,-2.2296,-2.2296,-2.2296,-2.2296,-2.2296,-2.2296,-2.2296,-2.2296,-2.2296,-2.2296,-2.2296,-2.2296,-2.2296,-2.2296,-2.2296,-2.2296,-2.2296,-2.2296,-2.2296,-2.2296,-2.2296,-2.2363,-2.2573,-2.2621,-2.2725,-2.3045,-2.3153,-2.3311,-2.3649,0.0,0.0,0.0,0.0,0.0,0.0,0.0,0.0,0.0,0.0,0.0,0.0,0.0,0.0,0.0,0.0,0.0,0.0,0.0,0.0,0.0,0.0,0.0,0.0,0.0,0.0,-2.5172,-2.453,-2.419,-2.4218,-2.4366,-2.4444,-2.4444,-2.4444,-2.4444,-2.4426,-2.4266,-2.419,-2.419,-2.419,-2.419,-2.419,-2.419,-2.419,-2.4226,0.0,0.0,0.0,0.0,0.0,0.0,0.0,-3.4748,0.0,-3.5526,-3.6246,-3.6264,-3.5081,-3.5052,-3.4539,-3.3096,-3.2377,-3.145,-3.0118,-2.9112,-2.8086,-2.7005,-2.6279,0.0,-2.3239,-2.3903,-2.4149,-2.3885,0.0,0.0,-2.5609,0.0,0.0,0.0,0.0,-2.3592,0.0,0.0,0.0,-2.2172,-2.1778,-2.1751,-2.1928,-2.1928,-2.2092,-2.2296,-2.2296,-2.2296,-2.2296,-2.2296,-2.2296,-2.2296,-2.2296,-2.2296,-2.2296,-2.2296,-2.2296,-2.2296,-2.2296,-2.2296,-2.2296,-2.2296,-2.2296,-2.236,-2.2634,-2.2708,-2.2848,-2.3357,-2.3448,-2.3555,-2.3896,-2.4094,0.0,0.0,0.0,0.0,0.0,0.0,0.0,0.0,0.0,0.0,0.0,0.0,0.0,0.0,0.0,0.0,0.0,0.0,0.0,0.0,0.0,0.0,0.0,0.0,0.0,-2.4768,-2.4497,-2.4348,-2.4357,-2.4452,-2.4503,-2.4495,-2.4393,-2.4339,-2.4348,-2.4247,-2.419,-2.419,-2.419,-2.419,-2.419,-2.419,-2.419,-2.419,0.0,-3.2047,0.0,0.0,-3.404,0.0,-3.364,-3.4561,-3.5273,-3.5174,-3.531,-3.4939,-3.3573,-3.3923,-3.3704,-3.2392,-3.1675,-3.0761,-2.9487,-2.8274,-2.7182,-2.6274,-2.4958,-2.3789,-2.2828,-2.2652,-2.2867,0.0,0.0,0.0,0.0,0.0,0.0,0.0,0.0,0.0,0.0,0.0,-2.2167,-2.1809,-2.1328,-2.1322,-2.1613,-2.1703,-2.1988,-2.2296,-2.2296,-2.2296,-2.2296,-2.2296,-2.2296,-2.2296,-2.2296,-2.2296,-2.2296,-2.2296,-2.2296,-2.2296,-2.2296,-2.2296,-2.2296,-2.2296,-2.2296,-2.236,-2.2634,-2.2759,-2.2984,-2.3577,-2.3764,-2.3886,-2.4151,-2.419,0.0,0.0,0.0,0.0,0.0,0.0,0.0,0.0,0.0,0.0,0.0,0.0,0.0,0.0,0.0,0.0,0.0,0.0,0.0,0.0,0.0,0.0,-2.4447,0.0,-2.4281,0.0,-2.445,-2.4445,-2.4445,-2.4478,-2.4503,-2.4495,-2.4321,-2.4257,-2.4275,-2.4312,-2.4303,-2.4257,-2.4257,-2.4237,-2.419,-2.419,-2.419,-2.419,0.0,0.0,0.0,0.0,0.0,0.0,0.0,-3.4501,-3.437,-3.3788,-3.4241,-3.433,-3.3592,-3.3006,-3.2391,-3.166,-3.0972,-3.0058,-2.8786,-2.8019,-2.7025,-2.573,-2.438,-2.3101,-2.1868,-2.1996,-2.213,0.0,0.0,0.0,0.0,0.0,0.0,0.0,0.0,0.0,0.0,-2.131,-2.1135,-2.1119,-2.1432,-2.1567,-2.1658,-2.2061,-2.2268,-2.2296,-2.2296,-2.2296,-2.2296,-2.2296,-2.2296,-2.2296,-2.2296,-2.2296,-2.2296,-2.2296,-2.2296,-2.2296,-2.2296,-2.2296,-2.2296,-2.2296,-2.2296,-2.236,-2.2634,-2.2935,-2.3265,-2.361,-2.3937,-2.4161,-2.419,-2.419,-2.419,0.0,0.0,0.0,0.0,0.0,0.0,0.0,0.0,0.0,0.0,0.0,0.0,0.0,0.0,0.0,0.0,0.0,0.0,0.0,0.0,-2.4548,-2.5283,-2.4566,0.0,-2.5283,-2.4567,-2.4228,-2.4237,-2.4428,-2.4503,-2.4503,-2.4478,-2.4469,-2.4486,-2.467,-2.4631,-2.4469,-2.4469,-2.4357,-2.419,-2.419,-2.419,-2.419,0.0,0.0,0.0,0.0,0.0,0.0,0.0,-3.3307,-3.2916,-3.1839,-3.2287,-3.2617,-3.2318,-3.139,-3.0642,-3.0387,-2.9744,-2.8966,-2.8064,-2.7016,-2.5974,-2.5038,-2.337,-2.2218,-2.171,-2.1232,-2.1348,0.0,0.0,0.0,0.0,0.0,0.0,0.0,0.0,-2.136,-2.0797,-2.0649,-2.0448,-2.026,-2.0666,-2.0991,-2.1291,-2.172,-2.2046,-2.2296,-2.2296,-2.2296,-2.2296,-2.2296,-2.2296,-2.2296,-2.2296,-2.2296,-2.2296,-2.2296,-2.2296,-2.2296,-2.2296,-2.2296,-2.2296,-2.2296,-2.2296,-2.2429,-2.289,-2.3105,-2.3357,-2.3896,-2.4103,-2.419,-2.419,-2.419,-2.419,0.0,0.0,0.0,0.0,0.0,0.0,0.0,0.0,0.0,0.0,0.0,0.0,0.0,0.0,0.0,0.0,0.0,0.0,-2.4171,0.0,-2.4355,-2.4677,-2.4355,-2.4355,-2.4677,-2.4478,-2.4384,-2.4384,-2.4461,-2.4426,-2.433,-2.4444,-2.4503,-2.4512,-2.4602,-2.4567,-2.4486,-2.4366,-2.4266,-2.419,-2.419,-2.419,-2.419,-3.2328,0.0,-3.1607,0.0,-3.2564,-3.1944,-3.2437,-3.2183,-3.1584,-3.0627,-3.0584,-3.0718,-3.0913,-3.0133,-2.9532,-2.931,-2.8682,-2.8008,-2.7345,-2.5854,-2.4807,-2.4321,-2.2443,0.0,-2.141,-2.0684,-2.0717,-2.1577,-2.2784,0.0,0.0,0.0,0.0,0.0,-2.1552,-2.0821,-2.0297,-2.0176,-2.0035,-1.9909,-2.0347,-2.0781,-2.1213,-2.166,-2.2017,-2.2296,-2.2296,-2.2296,-2.2296,-2.2296,-2.2296,-2.2296,-2.2296,-2.2296,-2.2296,-2.2296,-2.2296,-2.2296,-2.2296,-2.2296,-2.2296,-2.2296,-2.2296,-2.2429,-2.294,-2.3129,-2.3392,-2.4064,-2.419,-2.419,-2.419,-2.419,-2.419,0.0,0.0,0.0,0.0,0.0,0.0,0.0,-2.4503,-2.4575,-2.4782,0.0,0.0,0.0,0.0,0.0,0.0,0.0,0.0,0.0,0.0,0.0,0.0,0.0,-2.419,-2.419,-2.4339,-2.4419,-2.4419,-2.4419,-2.4321,-2.4209,-2.4478,-2.4583,-2.4583,-2.4628,-2.462,-2.4578,-2.4366,-2.4256,-2.419,-2.419,-2.419,-2.419,-3.2377,-3.2497,-3.2706,-3.3365,-3.2946,-3.2497,-3.2512,-3.139,-3.0522,-3.0507,-2.9415,-2.8891,-2.9562,-2.9621,-2.9325,-2.8667,-2.8004,-2.733,-2.6671,-2.4732,-2.3625,0.0,0.0,-2.0703,-2.0703,-2.0439,-2.0314,-2.033,0.0,0.0,-2.1055,0.0,0.0,-2.2082,-2.1686,-2.1049,-2.028,-1.9874,-1.9929,-2.0331,-2.0813,-2.1228,-2.1643,-2.2106,-2.2296,-2.2296,-2.2296,-2.2296,-2.2296,-2.2296,-2.2296,-2.2296,-2.2296,-2.2296,-2.2296,-2.2296,-2.2296,-2.2296,-2.2296,-2.2296,-2.2296,-2.2296,-2.2296,-2.2374,-2.2634,-2.296,-2.3392,-2.4064,-2.419,-2.419,-2.419,-2.419,-2.419,-2.419,0.0,0.0,0.0,0.0,0.0,0.0,-2.4503,-2.4575,-2.4782,0.0,0.0,0.0,0.0,0.0,0.0,0.0,0.0,-2.419,-2.419,0.0,-2.419,-2.419,-2.419,-2.419,-2.4199,-2.4199,-2.4199,-2.4199,-2.4199,-2.4218,-2.4615,-2.4797,-2.4811,-2.4937,-2.4923,-2.4775,-2.4567,-2.4375,-2.419,-2.419,-2.419,-2.419,-3.1106,-3.115,-3.1076,-3.0894,-3.0657,-3.0522,-3.0522,-2.9774,-2.9205,-2.9205,-2.8442,-2.8004,-2.8214,-2.7839,-2.7455,0.0,-2.6617,-2.5959,0.0,-2.4208,-2.3415,-2.3002,-2.1515,-2.0703,-2.0703,-2.0165,-2.0035,-2.0297,0.0,0.0,0.0,-2.1713,-2.1401,-2.0862,-2.0444,-2.0139,-1.9874,-1.9747,-1.9764,-1.9962,-2.0698,-2.1071,-2.126,-2.202,-2.2296,-2.2296,-2.2296,-2.2296,-2.2296,-2.2296,-2.2296,-2.2296,-2.2296,-2.2296,-2.2296,-2.2296,-2.2296,-2.2296,-2.2296,-2.2296,-2.2296,-2.2296,-2.244,-2.2652,-2.2972,-2.3488,-2.3937,-2.4161,-2.419,-2.419,-2.419,-2.419,-2.419,-2.419,0.0,0.0,0.0,0.0,0.0,0.0,-2.4461,-2.4459,0.0,-2.4734,0.0,0.0,0.0,0.0,0.0,0.0,0.0,0.0,-2.419,0.0,-2.419,-2.419,-2.419,-2.419,-2.419,-2.419,-2.419,-2.419,-2.419,-2.4209,-2.4478,-2.461,-2.4591,-2.4643,-2.4628,-2.4586,-2.4375,-2.4266,-2.419,-2.419,-2.419,-2.419,-3.0462,-3.0313,-3.0028,-2.9681,-2.9397,-2.9295,-2.9577,-2.8828,-2.8308,-2.8562,-2.7809,-2.7225,-2.7225,-2.6393,0.0,-2.6566,-2.5764,-2.4933,-2.4261,-2.3385,-2.2607,-2.1984,-2.0902,-2.0318,-2.0318,0.0,0.0,-2.0072,-2.0584,-2.0961,-2.1192,-2.0943,-2.0569,-2.0054,-1.9803,-1.9708,-1.9708,-1.9708,-1.9889,-2.0225,-2.078,-2.1197,-2.1554,-2.2092,-2.2296,-2.2296,-2.2296,-2.2296,-2.2296,-2.2296,-2.2296,-2.2296,-2.2296,-2.2296,-2.2296,-2.2296,-2.2296,-2.2296,-2.2296,-2.2296,-2.2321,-2.2426,-2.259,-2.2822,-2.3271,-2.3806,-2.419,-2.419,-2.419,-2.419,-2.419,-2.419,-2.419,-2.419,0.0,-2.419,0.0,0.0,0.0,0.0,0.0,0.0,0.0,-2.4651,0.0,0.0,0.0,0.0,0.0,0.0,0.0,-2.419,-2.419,0.0,-2.419,-2.419,-2.419,-2.419,-2.419,-2.419,-2.419,-2.419,-2.419,-2.4209,-2.4419,-2.4503,-2.4503,-2.4503,-2.4503,-2.4478,-2.4275,-2.419,-2.419,-2.419,-2.419,-2.419,-3.0268,-2.9909,0.0,0.0,-2.8936,0.0,-2.9382,-2.8408,-2.7824,-2.8442,-2.744,-2.6632,-2.6626,-2.5427,-2.5143,-2.6363,0.0,0.0,0.0,-2.2383,-2.1395,-2.0718,-2.0049,0.0,-1.9708,-1.9708,-1.9708,-1.9708,-1.9708,-1.9708,-1.9708,-1.9708,-1.9708,-1.9708,-1.9708,-1.9708,-1.9708,-1.9744,-2.0208,-2.0975,-2.1007,-2.1539,-2.2237,-2.2282,-2.2296,-2.2296,-2.2296,-2.2296,-2.2296,-2.2296,-2.2296,-2.2296,-2.2296,-2.2296,-2.2296,-2.2296,-2.2296,-2.2296,-2.2296,-2.2296,-2.236,-2.2634,-2.2733,-2.2947,-2.3577,-2.3986,-2.419,-2.419,-2.419,-2.419,-2.419,-2.419,-2.419,-2.419,-2.419,-2.419,-2.419,0.0,0.0,0.0,0.0,0.0,0.0,-2.4567,-2.4708,0.0,0.0,0.0,0.0,0.0,0.0,-2.419,-2.419,-2.419,-2.419,-2.419,-2.419,-2.419,-2.419,-2.419,-2.419,-2.419,-2.419,-2.4209,-2.4401,-2.4478,-2.4478,-2.4478,-2.4478,-2.4452,-2.4266,-2.419,-2.419,-2.419,-2.419,-2.419,0.0,0.0,-2.8667,-2.8169,-2.7944,-2.7899,-2.8049,-2.7794,-2.766,-2.7824,-2.757,-2.7165,-2.6671,-2.5869,-2.5277,-2.5083,-2.4306,-2.3565,-2.2957,-2.2143,-2.1395,-2.0718,-2.0049,-1.9708,-1.9708,-1.9708,-1.9708,-1.9708,-1.9708,-1.9708,-1.9708,-1.9708,-1.9708,-1.9708,-1.9708,-1.9708,-1.9711,-2.0035,-2.0278,-2.0516,-2.1181,-2.1583,-2.1794,-2.2149,-2.2296,-2.2296,-2.2296,-2.2296,-2.2296,-2.2296,-2.2296,-2.2296,-2.2296,-2.2296,-2.2296,-2.2296,-2.2296,-2.2296,-2.2296,-2.2296,-2.236,-2.2634,-2.3081,-2.3566,-2.3986,-2.4151,-2.419,-2.419,-2.419,-2.419,-2.419,-2.419,-2.419,-2.419,-2.419,-2.419,-2.419,0.0,0.0,0.0,-2.4294,-2.4247,-2.44,-2.4654,-2.4654,0.0,0.0,0.0,0.0,0.0,-2.419,-2.419,-2.419,-2.419,-2.419,-2.419,-2.419,-2.419,-2.419,-2.419,-2.419,-2.419,-2.419,-2.4199,-2.4256,-2.4266,-2.4266,-2.4266,-2.4266,-2.4275,-2.4218,-2.419,-2.419,-2.419,-2.419,-2.419,-2.8607,-2.8353,-2.8034,-2.766,-2.76,-2.76,-2.76,-2.76,-2.76,-2.76,-2.7076,-2.6542,-2.6183,-2.527,-2.4552,-2.4156,-2.355,-2.2927,-2.2283,-2.162,-2.0946,-2.0273,-1.9902,-1.9708,-1.9708,-1.9708,-1.9708,-1.9708,-1.9708,-1.9708,-1.9708,-1.9708,-1.9708,-1.9708,-1.9708,-1.9708,-1.9744,-2.0124,-2.0433,-2.0682,-2.1353,-2.1718,-2.1943,-2.2209,-2.2296,-2.2296,-2.2296,-2.2296,-2.2296,-2.2296,-2.2296,-2.2296,-2.2296,-2.2296,-2.2296,-2.2296,-2.2296,-2.2338,-2.245,-2.2385,-2.2402,-2.2827,-2.3426,-2.3986,-2.4161,-2.419,-2.419,-2.419,-2.419,-2.419,-2.419,-2.419,-2.419,-2.419,-2.419,-2.419,-2.419,-2.419,0.0,-2.4348,-2.4275,-2.4247,-2.4348,-2.4534,-2.4567,-2.4348,0.0,0.0,-2.4339,-2.4256,-2.419,-2.419,-2.419,-2.419,-2.419,-2.419,-2.419,-2.419,-2.419,-2.419,-2.419,-2.419,-2.419,-2.419,-2.419,-2.419,-2.419,-2.419,-2.419,-2.419,-2.419,-2.419,-2.419,-2.419,-2.419,-2.419,-2.8323,-2.8004,-2.76,-2.76,-2.76,-2.76,-2.76,-2.76,-2.76,-2.76,-2.6512,-2.5719,-2.5615,-2.4492,-2.3714,-2.361,-2.3062,-2.2418,-2.1739,-2.1171,-2.0513,-1.9738,-1.9708,-1.9708,-1.9708,-1.9708,-1.9708,-1.9708,-1.9708,-1.9708,-1.9708,-1.9708,-1.9708,-1.9708,-1.9708,-1.9708,-1.9729,-2.021,-2.0633,-2.1039,-2.1522,-2.1943,-2.2296,-2.2296,-2.2296,-2.2296,-2.2296,-2.2296,-2.2296,-2.2296,-2.2296,-2.2296,-2.2296,-2.2296,-2.2296,-2.2296,-2.2296,-2.2349,-2.259,-2.2541,-2.2571,-2.3135,-2.3735,-2.419,-2.419,-2.419,-2.419,-2.419,-2.419,-2.419,-2.419,-2.419,-2.419,-2.419,-2.419,-2.419,-2.419,0.0,-2.4209,-2.4247,-2.4247,-2.4247,-2.4247,-2.4436,-2.4528,-2.4452,-2.4478,0.0,0.0,-2.4294,-2.419,-2.419,-2.419,-2.419,-2.419,-2.419,-2.419,-2.419,-2.419,-2.419,-2.419,-2.419,-2.419,-2.419,-2.419,-2.419,-2.419,-2.419,-2.419,-2.419,-2.419,-2.419,-2.419,-2.419,-2.419,-2.419,-2.7735,-2.766,-2.76,-2.76,-2.76,-2.76,-2.76,-2.76,-2.76,-2.76,-2.6941,-2.6228,-2.5674,-2.4903,-2.4216,-2.3655,-2.3062,-2.2418,-2.1739,-2.1605,-2.0976,-1.9753,-1.9708,-1.9708,-1.9708,-1.9708,-1.9708,-1.9708,-1.9708,-1.9708,-1.9708,-1.9708,-1.9708,-1.9708,-1.9708,-1.9708,-1.9747,-2.0549,-2.0926,-2.1055,-2.1871,-2.2237,-2.2296,-2.2296,-2.2296,-2.2296,-2.2296,-2.2296,-2.2296,-2.2296,-2.2296,-2.2296,-2.2296,-2.2296,-2.2296,-2.2296,-2.2296,-2.231,-2.2349,-2.2695,-2.3147,-2.3533,-2.3917,-2.419,-2.419,-2.419,-2.419,-2.419,-2.419,-2.419,-2.419,-2.419,-2.419,-2.419,-2.419,-2.419,0.0,0.0,-2.4257,-2.4426,-2.4444,-2.4444,-2.4444,-2.4631,-2.4607,-2.4266,-2.441,-2.4436,-2.4266,-2.4218,-2.419,-2.419,-2.419,-2.419,-2.419,-2.419,-2.419,-2.419,-2.419,-2.419,-2.419,-2.419,-2.419,-2.419,-2.419,-2.419,-2.419,-2.419,-2.419,-2.419,-2.419,-2.419,-2.419,-2.419,-2.419,-2.419,-2.76,-2.76,-2.76,-2.76,-2.76,-2.748,-2.7121,-2.7061,-2.6941,-2.6557,-2.5944,-2.5397,-2.5098,-2.4455,-2.3939,-2.3625,-2.3062,-2.2418,-2.1739,-2.1365,-2.0722,-1.9753,-1.9708,-1.9708,-1.9708,-1.9708,-1.9708,-1.9708,-1.9708,-1.9708,-1.9693,-1.9927,-2.0017,-2.0035,-2.0294,-2.0413,-2.0431,-2.1071,-2.1322,-2.1368,-2.2049,-2.2296,-2.2296,-2.2296,-2.2296,-2.2296,-2.2296,-2.2296,-2.2296,-2.2296,-2.2296,-2.2296,-2.2296,-2.2296,-2.2296,-2.2296,-2.2535,-2.2747,-2.255,-2.3099,-2.3724,-2.3703,-2.3947,-2.419,-2.419,-2.419,-2.419,-2.419,-2.419,-2.419,-2.419,-2.419,-2.419,-2.419,-2.419,0.0,0.0,-2.419,-2.4266,-2.4478,-2.4503,-2.4534,-2.4647,-2.4647,-2.4551,-2.4375,-2.4339,-2.4303,-2.4199,-2.419,-2.419,-2.419,-2.419,-2.419,-2.419,-2.419,-2.419,-2.419,-2.419,-2.419,-2.419,-2.419,-2.419,-2.419,-2.419,-2.419,-2.419,-2.419,-2.419,-2.419,-2.419,-2.419,-2.419,-2.419,-2.419,-2.419,-2.76,-2.76,-2.754,-2.739,-2.7495,-2.733,-2.6482,-2.6497,-2.6363,-2.5689,-2.5008,-2.4605,-2.4605,-2.4014,-2.3535,-2.3385,-2.2972,-2.2358,-2.1515,-2.0991,-2.0408,-1.9738,-1.9708,-1.9708,-1.9708,-1.9708,-1.9708,-1.9708,-1.9708,-1.9708,-1.9708,-2.0017,-2.0158,-2.0176,-2.0532,-2.0698,-2.0731,-2.1244,-2.146,-2.1506,-2.2077,-2.2296,-2.2296,-2.2296,-2.2296,-2.2296,-2.2296,-2.2296,-2.2296,-2.2296,-2.2296,-2.2296,-2.2296,-2.2349,-2.2385,-2.2385,-2.2837,-2.3247,-2.3009,-2.35,-2.4036,-2.3847,-2.4006,-2.419,-2.419,-2.419,-2.419,-2.419,-2.419,-2.419,-2.419,-2.419,-2.419,-2.419,0.0,0.0,0.0,-2.4403,-2.4552,-2.4572,-2.4776,-2.4907,-2.4854,-2.4712,-2.4572,-2.4512,-2.4357,-2.4256,-2.4199,-2.419,-2.419,-2.419,-2.419,-2.419,-2.419,-2.419,-2.419,-2.419,-2.419,-2.419,-2.419,-2.419,-2.419,-2.419,-2.419,-2.419,-2.419,-2.419,-2.419,-2.419,-2.419,-2.419,-2.419,-2.419,-2.419,-2.419,-2.76,-2.76,-2.7405,-2.6767,-2.7195,-2.7165,-2.5869,-2.6198,-2.6363,-2.5689,-2.5008,-2.4605,-2.4605,-2.4014,-2.337,-2.2823,-2.2718,-2.2164,-2.0853,-2.0718,-2.0408,-1.9738,-1.9708,-1.9708,-1.9708,-1.9708,-1.9708,-1.9708,-1.9708,-1.9708,-1.9708,-1.9729,-1.9747,-1.9747,-1.9782,-1.98,-1.9854,-2.0682,-2.1039,-2.1134,-2.1959,-2.2296,-2.2296,-2.2296,-2.2296,-2.2296,-2.2296,-2.2296,-2.2296,-2.2296,-2.2296,-2.2296,-2.2296,-2.2477,-2.2656,-2.2656,-2.3129,-2.366,-2.3621,-2.3682,-2.3806,-2.4094,-2.418,-2.419,-2.419,-2.419,-2.419,-2.419,-2.419,-2.419,-2.419,-2.419,-2.419,-2.419,0.0,0.0,-2.419,-2.5004,-2.5398,-2.4836,-2.5599,-2.585,-2.5063,-2.498,-2.4838,-2.4518,-2.4486,-2.4401,-2.4209,-2.419,-2.419,-2.419,-2.419,-2.419,-2.419,-2.419,-2.419,-2.419,-2.419,-2.419,-2.419,-2.419,-2.419,-2.419,-2.419,-2.419,-2.419,-2.419,-2.419,-2.419,-2.419,-2.419,-2.419,-2.419,-2.419,-2.419,-2.751,-2.76,-2.739,-2.6731,-2.6821,-2.6512,-2.5173,-2.5187,-2.5136,-2.4448,-2.4148,-2.3984,-2.3984,-2.3759,-2.3505,-2.3287,-2.2553,-2.1859,-2.135,-2.0543,-1.9959,-1.9708,-1.9708,-1.9708,-1.9708,-1.9708,-1.9708,-1.9708,-1.9708,-1.9708,-1.9708,-1.9962,-2.0072,-2.0072,-2.0396,-2.0514,-2.0532,-2.1134,-2.1368,-2.1431,-2.2049,-2.2296,-2.2296,-2.2296,-2.2296,-2.2296,-2.2296,-2.2296,-2.2338,-2.2487,-2.255,-2.2577,-2.2781,-2.2928,-2.3057,-2.3247,-2.3511,-2.3753,-2.3947,-2.4006,-2.4036,-2.417,-2.419,-2.419,-2.419,-2.419,-2.419,-2.419,-2.419,-2.419,-2.419,-2.419,-2.4355,-2.486,0.0,-2.4373,-2.4879,-2.527,-2.5301,-2.4695,-2.5491,-2.5797,-2.4959,-2.5324,-2.5522,-2.5267,-2.5588,-2.5537,-2.497,-2.4475,-2.4438,-2.4934,-2.4934,-2.4695,-2.419,-2.419,-2.419,-2.419,-2.419,-2.419,-2.419,-2.419,-2.419,-2.419,-2.419,-2.419,-2.419,-2.419,-2.419,-2.419,-2.419,-2.419,-2.419,-2.419,-2.419,-2.419,-2.721,-2.745,-2.739,-2.6731,-2.6587,-2.6153,-2.4799,-2.4605,-2.435,-2.3684,-2.3595,-2.3595,-2.3595,-2.3595,-2.343,-2.3041,-2.2203,-2.1515,-2.1096,-2.0217,-1.9708,-1.9708,-1.9708,-1.9708,-1.9708,-1.9708,-1.9708,-1.9708,-1.9708,-1.9708,-1.9708,-1.9982,-2.0106,-2.0124,-2.0448,-2.0582,-2.0632,-2.1181,-2.1414,-2.146,-2.2063,-2.2296,-2.2296,-2.2296,-2.2296,-2.2296,-2.2296,-2.2296,-2.2335,-2.2612,-2.2708,-2.2759,-2.3093,-2.3259,-2.3426,-2.3764,-2.3865,-2.3907,-2.4141,-2.419,-2.419,-2.419,-2.419,-2.419,-2.419,-2.419,-2.419,-2.419,-2.4392,-2.4585,-2.4585,-2.4585,-2.4842,-2.565,-2.5099,-2.486,-2.5668,-2.6043,-2.5921,-2.4999,-2.5761,-2.6057,-2.5254,-2.5672,-2.603,-2.6069,-2.6457,-2.642,-2.5815,-2.5254,-2.5199,-2.576,-2.5778,-2.5521,-2.4961,-2.4942,-2.4832,-2.4585,-2.4585,-2.4585,-2.4566,-2.4318,-2.419,-2.419,-2.419,-2.419,-2.419,-2.419,-2.419,-2.419,-2.419,-2.419,-2.419,-2.419,-2.419,-2.419,-2.6572,-2.7136,-2.7375,-2.6692,-2.6572,-2.6138,-2.4799,-2.459,-2.435,-2.3684,-2.3595,-2.3595,-2.3595,-2.3595,-2.3071,-2.1799,-2.1695,-2.1145,-1.9798,-1.9708,-1.9708,-1.9708,-1.9708,-1.9708,-1.9708,-1.9708,-1.9708,-1.9708,-1.9708,-1.9708,-1.9708,-1.9708,-1.9708,-1.9708,-1.9708,-1.9708,-1.9764,-2.0632,-2.0991,-2.1087,-2.1945,-2.2296,-2.2296,-2.2296,-2.2296,-2.2296,-2.2296,-2.2296,-2.2335,-2.2612,-2.2708,-2.2772,-2.3105,-2.3444,-2.3774,-2.4103,-2.419,-2.419,-2.419,-2.419,-2.419,-2.419,-2.419,-2.419,-2.4208,-2.419,-2.419,-2.4208,-2.4842,-2.5393,-2.5393,-2.5411,-2.5668,-2.6484,-2.5933,-2.5686,-2.6502,-2.7468,-2.7494,-2.5884,-2.6587,-2.6887,-2.6072,-2.6015,-2.6266,-2.6861,-2.6916,-2.6811,-2.6623,-2.6602,-2.6602,-2.6602,-2.6602,-2.6602,-2.6602,-2.6602,-2.619,-2.5411,-2.5393,-2.5393,-2.5374,-2.4566,-2.419,-2.419,-2.419,-2.419,-2.419,-2.419,-2.419,-2.419,-2.419,-2.419,-2.419,-2.419,-2.419,-2.419,-2.5809,-2.6063,-2.5989,-2.5307,-2.5187,-2.4889,-2.4044,-2.3909,-2.3834,-2.3625,-2.3595,-2.343,-2.3017,-2.2972,-2.2643,-2.1769,-2.1276,-2.0632,-1.9768,-1.9708,-1.9708,-1.9708,-1.9708,-1.9708,-1.9708,-1.9708,-1.9708,-1.9708,-1.9708,-1.9708,-1.9708,-1.9708,-1.9708,-1.9708,-1.9708,-1.9856,-2.0158,-2.0747,-2.115,-2.146,-2.2063,-2.2296,-2.2296,-2.2296,-2.2296,-2.2296,-2.2296,-2.2296,-2.2377,-2.2878,-2.3057,-2.3153,-2.3714,-2.3976,-2.4074,-2.417,-2.419,-2.419,-2.419,-2.419,-2.419,-2.419,-2.419,-2.4337,-2.4915,-2.4622,-2.4355,-2.4934,-2.5227,-2.5393,-2.5393,-2.587,-2.6502,-2.731,-2.6778,-2.6521,-2.7328,-2.7708,-2.73,-2.5686,-2.6879,-2.7233,-2.5718,-2.673,-2.7484,-2.754,-2.7538,-2.7506,-2.7449,-2.6906,-2.6869,-2.742,-2.7438,-2.7438,-2.7438,-2.6888,-2.6484,-2.6245,-2.5668,-2.5393,-2.5374,-2.4566,-2.419,-2.419,-2.419,-2.419,-2.419,-2.419,-2.419,-2.419,-2.419,-2.419,-2.419,-2.419,-2.419,-2.419,-2.5113,-2.5435,-2.5457,-2.5068,-2.4784,-2.447,-2.4073,-2.3774,-2.3595,-2.3595,-2.3595,-2.337,-2.2763,-2.2703,-2.2328,-2.1395,-2.0692,-2.0124,-1.9738,-1.9708,-1.9708,-1.9708,-1.9708,-1.9708,-1.9708,-1.9708,-1.9708,-1.9708,-1.9708,-1.9708,-1.9708,-1.9708,-1.9708,-1.9708,-1.9874,-2.0072,-2.0348,-2.0975,-2.1384,-2.1643,-2.2106,-2.2296,-2.2296,-2.2296,-2.2296,-2.2296,-2.2296,-2.2391,-2.2575,-2.3038,-2.338,-2.3671,-2.4074,-2.419,-2.419,-2.419,-2.419,-2.419,-2.419,-2.419,-2.4281,-2.4603,-2.4677,-2.4897,-2.5686,-2.5493,-2.5291,-2.5768,-2.6127,-2.6347,-2.6347,-2.6741,-2.7346,-2.8136,-2.7603,-2.7365,-2.8172,-2.8282,-2.7805,-2.6494,-2.7394,-2.7668,-2.6577,-2.7559,-2.8315,-2.8424,-2.8331,-2.8282,-2.8282,-2.7813,-2.7758,-2.8264,-2.8282,-2.8282,-2.8282,-2.7794,-2.7226,-2.6583,-2.6098,-2.5705,-2.5374,-2.4566,-2.419,-2.419,-2.419,-2.419,-2.419,-2.419,-2.419,-2.419,-2.419,-2.419,-2.419,-2.419,-2.419,-2.419,-2.4515,-2.4993,-2.5435,-2.5435,-2.4918,-2.4515,-2.4515,-2.3999,-2.3595,-2.3595,-2.355,-2.3302,-2.2688,-2.2568,-2.2014,-2.0718,-2.0049,-1.9708,-1.9708,-1.9708,-1.9708,-1.9708,-1.9708,-1.9708,-1.9708,-1.9708,-1.9708,-1.9708,-1.9708,-1.9708,-1.9708,-1.9708,-1.9708,-1.9726,-2.0072,-2.0297,-2.0416,-2.1212,-2.1582,-2.1703,-2.212,-2.2296,-2.2296,-2.2296,-2.2296,-2.2296,-2.2296,-2.2511,-2.2841,-2.3135,-2.3671,-2.419,-2.419,-2.419,-2.419,-2.419,-2.419,-2.419,-2.419,-2.4245,-2.4511,-2.5301,-2.5558,-2.5815,-2.6539,-2.6638,-2.662,-2.6693,-2.7291,-2.7798,-2.7798,-2.7871,-2.8154,-2.8877,-2.8393,-2.8154,-2.8895,-2.9005,-2.8693,-2.7897,-2.8052,-2.8202,-2.8109,-2.8396,-2.8798,-2.9367,-2.9211,-2.9078,-2.9005,-2.9078,-2.9078,-2.9005,-2.9005,-2.9005,-2.9005,-2.9005,-2.8253,-2.6804,-2.6657,-2.6227,-2.5485,-2.4603,-2.419,-2.419,-2.419,-2.419,-2.419,-2.419,-2.419,-2.419,-2.419,-2.419,-2.419,-2.419,-2.4209,-2.4228,-2.3819,-2.3939,-2.4029,-2.4029,-2.3909,-2.3819,-2.3819,-2.3684,-2.3595,-2.3595,-2.3197,-2.2658,-2.1999,-2.1455,-2.0812,-1.9989,-1.9765,-1.9708,-1.9708,-1.9708,-1.9708,-1.9708,-1.9708,-1.9708,-1.9708,-1.9708,-1.9708,-1.9708,-1.9708,-1.9708,-1.9708,-1.9708,-1.9708,-1.9693,-1.98,-2.0208,-2.0862,-2.1039,-2.1507,-2.2149,-2.2268,-2.2296,-2.2296,-2.2296,-2.2296,-2.2296,-2.2296,-2.2477,-2.2815,-2.3392,-2.3847,-2.419,-2.419,-2.419,-2.419,-2.419,-2.419,-2.419,-2.419,-2.4658,-2.5338,-2.6135,-2.6814,-2.7339,-2.7493,-2.7053,-2.6778,-2.7402,-2.7677,-2.7798,-2.7798,-2.8319,-2.8803,-2.8968,-2.8858,-2.8803,-2.8987,-2.9005,-2.8693,-2.7897,-2.8579,-2.8854,-2.8165,-2.8763,-2.9267,-2.9394,-2.9728,-2.9647,-2.9023,-2.9592,-2.9647,-2.9023,-2.9005,-2.9005,-2.9005,-2.9005,-2.8822,-2.8455,-2.7189,-2.6521,-2.63,-2.485,-2.419,-2.419,-2.419,-2.419,-2.419,-2.419,-2.419,-2.419,-2.419,-2.419,-2.419,-2.419,-2.4303,-2.4426,-2.3595,-2.3595,-2.3595,-2.3595,-2.3595,-2.3595,-2.3595,-2.3595,-2.3595,-2.3595,-2.3077,-2.2448,-2.1769,-2.1111,-2.0438,-1.9768,-1.9708,-1.9708,-1.9708,-1.9708,-1.9708,-1.9708,-1.9708,-1.9708,-1.9708,-1.9708,-1.9708,-1.9708,-1.9708,-1.9708,-1.9708,-1.9708,-1.9708,-1.9711,-2.0122,-2.0565,-2.1039,-2.1447,-2.1886,-2.2296,-2.2296,-2.2296,-2.2296,-2.2296,-2.2296,-2.2296,-2.2296,-2.2584,-2.3045,-2.3714,-2.4064,-2.419,-2.419,-2.419,-2.419,-2.419,-2.419,-2.419,-2.419,-2.4787,-2.5595,-2.641,-2.72,-2.7897,-2.8282,-2.8051,-2.7849,-2.8301,-2.8374,-2.8374,-2.8374,-2.8712,-2.9005,-2.9005,-2.9005,-2.9005,-2.9005,-2.9005,-2.884,-2.8429,-2.9082,-2.9447,-2.9223,-2.9492,-2.9687,-2.9687,-2.9868,-2.9728,-2.9229,-2.9588,-2.9576,-2.9023,-2.9005,-2.9005,-2.9005,-2.9005,-2.9005,-2.8987,-2.7769,-2.6979,-2.6565,-2.5731,-2.5144,-2.4768,-2.4768,-2.4548,-2.419,-2.419,-2.419,-2.419,-2.419,-2.419,-2.419,-2.419,-2.433,-2.4503,-2.3595,-2.3595,-2.3595,-2.3595,-2.3595,-2.3595,-2.3595,-2.3595,-2.3595,-2.3595,-2.3077,-2.2448,-2.1769,-2.1006,-2.0303,-1.9753,-1.9708,-1.9708,-1.9708,-1.9708,-1.9708,-1.9708,-1.9708,-1.9708,-1.9708,-1.9708,-1.9708,-1.9708,-1.9708,-1.9708,-1.9708,-1.9708,-1.9729,-1.9821,-2.0565,-2.0959,-2.115,-2.1869,-2.2223,-2.2296,-2.2296,-2.2321,-2.236,-2.2324,-2.2321,-2.236,-2.2324,-2.2686,-2.3311,-2.3976,-2.419,-2.419,-2.419,-2.419,-2.419,-2.419,-2.43,-2.442,-2.442,-2.5099,-2.5962,-2.6649,-2.742,-2.8172,-2.8858,-2.9005,-2.9005,-2.9005,-2.9005,-2.9005,-2.9005,-2.9005,-2.9005,-2.9005,-2.9005,-2.9005,-2.9005,-2.9005,-2.9005,-2.9005,-2.9377,-2.9826,-3.0228,-3.0087,-2.9954,-2.9954,-2.992,-2.9767,-2.9423,-2.9533,-2.9426,-2.9017,-2.9005,-2.9005,-2.9005,-2.9005,-2.9005,-2.8987,-2.8319,-2.7585,-2.6796,-2.6657,-2.6245,-2.5595,-2.5448,-2.5026,-2.4392,-2.4263,-2.419,-2.419,-2.419,-2.419,-2.4199,-2.4247,-2.4348,-2.4503,-2.3595,-2.3595,-2.3595,-2.3595,-2.3595,-2.3595,-2.3595,-2.3595,-2.3595,-2.3595,-2.3077,-2.2448,-2.1769,-2.0572,-1.9813,-1.9708,-1.9708,-1.9708,-1.9708,-1.9708,-1.9708,-1.9708,-1.9708,-1.9708,-1.9708,-1.9708,-1.9708,-1.9708,-1.9708,-1.9708,-1.9708,-1.9708,-1.9892,-2.0212,-2.0348,-2.0797,-2.1521,-2.1643,-2.1928,-2.2296,-2.2296,-2.244,-2.2625,-2.2388,-2.2436,-2.2625,-2.2388,-2.2686,-2.3311,-2.3976,-2.419,-2.419,-2.419,-2.419,-2.419,-2.419,-2.4695,-2.5246,-2.5246,-2.6329,-2.7504,-2.7614,-2.8246,-2.8877,-2.8987,-2.9005,-2.9005,-2.9005,-2.9005,-2.9005,-2.9005,-2.9005,-2.9005,-2.9005,-2.9005,-2.9005,-2.9005,-2.9005,-2.9005,-2.9005,-2.9267,-2.9532,-2.9773,-2.9765,-2.9748,-2.9748,-3.0355,-3.034,-2.946,-3.0054,-3.0001,-2.9035,-2.9005,-2.9005,-2.9005,-2.9005,-2.9005,-2.9005,-2.8895,-2.8429,-2.7603,-2.6924,-2.6539,-2.641,-2.5705,-2.5338,-2.5172,-2.4493,-2.419,-2.419,-2.419,-2.419,-2.4218,-2.4401,-2.4478,-2.4503,-2.3167,-2.3355,-2.3595,-2.3595,-2.3595,-2.3595,-2.3595,-2.3595,-2.3475,-2.3152,-2.2553,-2.1874,-2.1216,-2.0273,-1.9708,-1.9708,-1.9708,-1.9708,-1.9708,-1.9708,-1.9708,-1.9708,-1.9708,-1.9708,-1.9708,-1.9708,-1.9708,-1.9708,-1.9708,-1.9708,-1.9708,-1.9708,-1.9909,-2.0314,-2.0566,-2.1023,-2.1628,-2.1884,-2.2106,-2.2296,-2.2296,-2.2463,-2.2682,-2.2577,-2.2599,-2.2708,-2.2781,-2.2965,-2.3311,-2.3976,-2.419,-2.419,-2.419,-2.419,-2.4281,-2.475,-2.5117,-2.5503,-2.5962,-2.6906,-2.7798,-2.7798,-2.8411,-2.9051,-2.92,-2.9214,-2.9171,-2.904,-2.9005,-2.9005,-2.9005,-2.9005,-2.9005,-2.9005,-2.9005,-2.9005,-2.9005,-2.9005,-2.9062,-2.9222,-2.933,-2.9493,-2.9678,-2.9705,-2.9705,-2.9705,-3.0035,-3.0047,-2.9589,-2.98,-2.9723,-2.9243,-2.9078,-2.9005,-2.9005,-2.9005,-2.9005,-2.9005,-2.9005,-2.8803,-2.8455,-2.8106,-2.7446,-2.6583,-2.6227,-2.5548,-2.4695,-2.4337,-2.419,-2.419,-2.419,-2.419,-2.4209,-2.4303,-2.441,-2.4503]},{"header":{"parameterUnit":"m.s-1","parameterCategory":1,"la1":30.6,"la2":28.766,"lo1":-90.7593,"lo2":-88.6598,"dy":0.0162,"dx":0.0183,"nx":116,"ny":114,"refTime":"2023-07-18T06:00:00:Z","depth":0,"parameterNumber":3,"parameterNumberName":"V-component_of_WINDS"},"data":[0.0,0.0,0.0,0.0,0.0,0.0,0.0,0.0,0.0,0.0,0.0,0.0,0.0,0.0,0.0,0.0,0.0,0.0,0.0,0.0,0.0,0.0,0.0,0.0,0.0,0.0,0.0,0.0,0.0,0.0,0.0,0.0,0.0,0.0,0.0,0.0,0.0,0.0,0.0,0.0,0.0,0.0,0.0,0.0,0.0,0.0,0.0,0.0,0.0,0.0,0.0,0.0,0.0,0.0,0.0,0.0,0.0,0.0,0.0,0.0,0.0,0.0,0.0,0.0,0.0,0.0,0.0,0.0,0.0,0.0,0.0,0.0,0.0,0.0,0.0,0.0,0.0,0.0,0.0,0.0,0.0,0.0,0.0,0.0,0.0,0.0,0.0,0.0,0.0,0.0,0.0,0.0,0.0,0.0,0.0,0.0,0.0,0.0,0.0,0.0,0.0,0.0,0.0,0.0,0.0,0.0,0.0,0.0,0.0,0.0,0.0,0.0,0.0,0.0,0.0,0.0,0.0,0.0,0.0,0.0,0.0,0.0,0.0,0.0,0.0,0.0,0.0,0.0,0.0,0.0,0.0,0.0,0.0,0.0,0.0,0.0,0.0,0.0,0.0,0.0,0.0,0.0,0.0,0.0,0.0,0.0,0.0,0.0,0.0,0.0,0.0,0.0,0.0,0.0,0.0,0.0,0.0,0.0,0.0,0.0,0.0,0.0,0.0,0.0,0.0,0.0,0.0,0.0,0.0,0.0,0.0,0.0,0.0,0.0,0.0,0.0,0.0,0.0,0.0,0.0,0.0,0.0,0.0,0.0,0.0,0.0,0.0,0.0,0.0,0.0,0.0,0.0,0.0,0.0,0.0,0.0,0.0,0.0,0.0,0.0,0.0,0.0,0.0,0.0,0.0,0.0,0.0,0.0,0.0,0.0,0.0,0.0,0.0,0.0,0.0,0.0,0.0,0.0,0.0,0.0,0.0,0.0,0.0,0.0,0.0,0.0,0.0,0.0,0.0,0.0,0.0,0.0,0.0,0.0,0.0,0.0,0.0,0.0,0.0,0.0,0.0,0.0,0.0,0.0,0.0,0.0,0.0,0.0,0.0,0.0,0.0,0.0,0.0,0.0,0.0,0.0,0.0,0.0,0.0,0.0,0.0,0.0,0.0,0.0,0.0,0.0,0.0,0.0,0.0,0.0,0.0,0.0,0.0,0.0,0.0,0.0,0.0,0.0,0.0,0.0,0.0,0.0,0.0,0.0,0.0,0.0,0.0,0.0,0.0,0.0,0.0,0.0,0.0,0.0,0.0,0.0,0.0,0.0,0.0,0.0,0.0,0.0,0.0,0.0,0.0,0.0,0.0,0.0,0.0,0.0,0.0,0.0,0.0,0.0,0.0,0.0,0.0,0.0,0.0,0.0,0.0,0.0,0.0,0.0,0.0,0.0,0.0,0.0,0.0,0.0,0.0,0.0,0.0,0.0,0.0,0.0,0.0,0.0,0.0,0.0,0.0,0.0,0.0,0.0,0.0,0.0,0.0,0.0,0.0,0.0,0.0,0.0,0.0,0.0,0.0,0.0,0.0,0.0,0.0,0.0,0.0,0.0,0.0,0.0,0.0,0.0,0.0,0.0,0.0,0.0,0.0,0.0,0.0,0.0,0.0,0.0,0.0,0.0,0.0,0.0,0.0,0.0,0.0,0.0,0.0,0.0,0.0,0.0,0.0,0.0,0.0,0.0,0.0,0.0,0.0,0.0,0.0,0.0,0.0,0.0,0.0,0.0,0.0,0.0,0.0,0.0,0.0,0.0,0.0,0.0,0.0,0.0,0.0,0.0,0.0,0.0,0.0,0.0,0.0,0.0,0.0,0.0,0.0,0.0,0.0,0.0,0.0,0.0,0.0,0.0,0.0,0.0,0.0,0.0,0.0,0.0,0.0,0.0,0.0,0.0,0.0,0.0,0.0,0.0,0.0,0.0,0.0,0.0,0.0,0.0,0.0,0.0,0.0,0.0,0.0,0.0,0.0,0.0,0.0,0.0,0.0,0.0,0.0,0.0,0.0,0.0,0.0,0.0,0.0,0.0,0.0,0.0,0.0,0.0,0.0,0.0,0.0,0.0,0.0,0.0,0.0,0.0,0.0,0.0,0.0,0.0,0.0,0.0,0.0,0.0,0.0,0.0,0.0,0.0,0.0,0.0,0.0,0.0,0.0,0.0,0.0,0.0,0.0,0.0,0.0,0.0,0.0,0.0,0.0,0.0,0.0,0.0,0.0,0.0,0.0,0.0,0.0,0.0,0.0,0.0,0.0,0.0,0.0,0.0,0.0,0.0,0.0,0.0,0.0,0.0,0.0,0.0,0.0,0.0,0.0,0.0,0.0,0.0,0.0,0.0,0.0,0.0,0.0,0.0,0.0,0.0,0.0,0.0,0.0,0.0,0.0,0.0,0.0,0.0,0.0,0.0,0.0,0.0,0.0,0.0,0.0,0.0,0.0,0.0,0.0,0.0,0.0,0.0,0.0,0.0,0.0,0.0,0.0,0.0,0.0,0.0,0.0,0.0,0.0,0.0,0.0,0.0,0.0,0.0,0.0,0.0,0.0,0.0,0.0,0.0,0.0,0.0,0.0,0.0,0.0,0.0,0.0,0.0,0.0,0.0,0.0,0.0,0.0,0.0,0.0,0.0,0.0,0.0,0.0,0.0,0.0,0.0,0.0,0.0,0.0,0.0,0.0,0.0,0.0,0.0,0.0,0.0,0.0,0.0,0.0,0.0,0.0,0.0,0.0,0.0,0.0,0.0,0.0,0.0,0.0,0.0,0.0,0.0,0.0,0.0,0.0,0.0,0.0,0.0,0.0,0.0,0.0,0.0,0.0,0.0,0.0,0.0,0.0,0.0,0.0,0.0,0.0,0.0,0.0,0.0,0.0,0.0,0.0,0.0,0.0,0.0,0.0,0.0,0.0,0.0,0.0,0.0,0.0,0.0,0.0,0.0,0.0,0.0,0.0,0.0,0.0,0.0,0.0,0.0,0.0,0.0,0.0,0.0,0.0,0.0,0.0,0.0,0.0,0.0,0.0,0.0,0.0,0.0,0.0,0.0,0.0,0.0,0.0,0.0,0.0,0.0,0.0,0.0,0.0,0.0,0.0,0.0,0.0,0.0,0.0,0.0,0.0,0.0,0.0,0.0,0.0,0.0,0.0,0.0,0.0,0.0,0.0,0.0,0.0,0.0,0.0,0.0,0.0,0.0,0.0,0.0,0.0,0.0,0.0,0.0,0.0,0.0,0.0,0.0,0.0,0.0,0.0,0.0,0.0,0.0,0.0,0.0,0.0,0.0,0.0,0.0,0.0,0.0,0.0,0.0,0.0,0.0,0.0,0.0,0.0,0.0,0.0,0.0,0.0,0.0,0.0,0.0,0.0,0.0,0.0,0.0,0.0,0.0,0.0,0.0,0.0,0.0,0.0,0.0,0.0,0.0,0.0,0.0,0.0,0.0,0.0,0.0,0.0,0.0,0.0,0.0,0.0,0.0,0.0,0.0,0.0,0.0,0.0,0.0,0.0,0.0,0.0,0.0,0.0,0.0,0.0,0.0,0.0,0.0,0.0,0.0,0.0,0.0,0.0,0.0,0.0,0.0,0.0,0.0,0.0,0.0,0.0,0.0,0.0,0.0,0.0,0.0,0.0,0.0,0.0,0.0,0.0,0.0,0.0,0.0,0.0,0.0,0.0,0.0,0.0,0.0,0.0,0.0,0.0,0.0,0.0,0.0,0.0,0.0,0.0,0.0,0.0,0.0,0.0,0.0,0.0,0.0,0.0,0.0,0.0,0.0,0.0,0.0,0.0,0.0,0.0,0.0,0.0,0.0,0.0,0.0,0.0,0.0,0.0,0.0,0.0,0.0,0.0,0.0,0.0,0.0,0.0,0.0,0.0,0.0,0.0,0.0,0.0,0.0,0.0,0.0,0.0,0.0,0.0,0.0,0.0,0.0,0.0,0.0,0.0,0.0,0.0,0.0,0.0,0.0,0.0,0.0,0.0,0.0,0.0,0.0,0.0,0.0,0.0,0.0,0.0,0.0,0.0,0.0,0.0,0.0,0.0,0.0,0.0,0.0,0.0,0.0,0.0,0.0,0.0,0.0,0.0,0.0,0.0,0.0,0.0,0.0,0.0,0.0,0.0,0.0,0.0,0.0,0.0,0.0,0.0,0.0,0.0,0.0,0.0,0.0,0.0,0.0,0.0,0.0,0.0,0.0,0.0,0.0,0.0,0.0,0.0,0.0,0.0,0.0,0.0,0.0,0.0,0.0,0.0,0.0,0.0,0.0,0.0,0.0,0.0,0.0,0.0,0.0,0.0,0.0,0.0,0.0,0.0,0.0,0.0,0.0,0.0,0.0,0.0,0.0,0.0,0.0,0.0,0.0,0.0,0.0,0.0,0.0,0.0,0.0,0.0,0.0,0.0,0.0,0.0,0.0,0.0,0.0,0.0,0.0,0.0,0.0,0.0,0.0,0.0,0.0,0.0,0.0,0.0,0.0,0.0,0.0,0.0,0.0,0.0,0.0,0.0,0.0,0.0,0.0,0.0,0.0,0.0,0.0,0.0,0.0,0.0,0.0,0.0,0.0,0.0,0.0,0.0,0.0,0.0,0.0,0.0,0.0,0.0,0.0,0.0,0.0,0.0,0.0,0.0,0.0,0.0,0.0,0.0,0.0,0.0,0.0,0.0,0.0,0.0,0.0,0.0,0.0,0.0,0.0,0.0,0.0,0.0,0.0,0.0,0.0,0.0,0.0,0.0,0.0,0.0,0.0,0.0,0.0,0.0,0.0,0.0,0.0,0.0,0.0,0.0,0.0,0.0,0.0,0.0,0.0,0.0,0.0,0.0,0.0,0.0,0.0,0.0,0.0,0.0,0.0,0.0,0.0,0.0,0.0,0.0,0.0,0.0,0.0,0.0,0.0,0.0,0.0,0.0,0.0,0.0,0.0,0.0,0.0,0.0,0.0,0.0,0.0,0.0,0.0,0.0,0.0,0.0,0.0,0.0,0.0,0.0,0.0,0.0,0.0,0.0,0.0,0.0,0.0,0.0,0.0,0.0,0.0,0.0,0.0,0.0,0.0,0.0,0.0,0.0,0.0,0.0,0.0,0.0,0.0,0.0,0.0,0.0,0.0,0.0,0.0,0.0,0.0,0.0,0.0,0.0,0.0,0.0,0.0,0.0,0.0,0.0,0.0,0.0,0.0,0.0,0.0,0.0,0.0,0.0,0.0,0.0,0.0,0.0,0.0,0.0,0.0,0.0,0.0,0.0,0.0,0.0,0.0,0.0,0.0,0.0,0.0,0.0,0.0,0.0,0.0,0.0,0.0,0.0,0.0,0.0,0.0,0.0,0.0,0.0,0.0,0.0,0.0,0.0,0.0,0.0,0.0,0.0,0.0,0.0,0.0,0.0,0.0,0.0,0.0,0.0,0.0,0.0,0.0,0.0,0.0,0.0,0.0,0.0,0.0,0.0,0.0,0.0,0.0,0.0,0.0,0.0,0.0,0.0,0.0,0.0,0.0,0.0,0.0,0.0,0.0,0.0,0.0,0.0,0.0,0.0,0.0,0.0,0.0,0.0,0.0,0.0,0.0,0.0,0.0,0.0,0.0,0.0,0.0,0.0,0.0,0.0,0.0,0.0,0.0,0.0,0.0,0.0,0.0,0.0,0.0,0.0,0.0,0.0,0.0,0.0,0.0,0.0,0.0,0.0,0.0,0.0,0.0,0.0,0.0,0.0,0.0,0.0,0.0,0.0,0.0,0.0,0.0,0.0,0.0,0.0,0.0,0.0,0.0,0.0,0.0,0.0,0.0,0.0,0.0,0.0,0.0,0.0,0.0,0.0,0.0,0.0,0.0,0.0,0.0,0.0,0.0,0.0,0.0,0.0,0.0,0.0,0.0,0.0,0.0,0.0,0.0,0.0,0.0,0.0,0.0,0.0,0.0,0.0,0.0,0.0,0.0,0.0,0.0,0.0,0.0,0.0,0.0,0.0,0.0,0.0,0.0,0.0,0.0,0.0,0.0,0.0,0.0,0.0,0.0,0.0,0.0,0.0,0.0,-1.2452,0.0,0.0,0.0,0.0,0.0,0.0,0.0,0.0,0.0,0.0,0.0,0.0,0.0,0.0,0.0,0.0,0.0,0.0,0.0,0.0,0.0,0.0,0.0,0.0,0.0,0.0,0.0,0.0,0.0,0.0,0.0,0.0,0.0,0.0,0.0,0.0,0.0,0.0,0.0,0.7028,0.7206,0.7419,0.7546,0.7309,0.6824,0.0,0.0,0.0,0.0,0.0,0.0,0.0,0.0,0.0,0.0,0.0,0.0,0.0,0.0,0.0,0.0,0.0,0.0,0.0,0.0,0.0,0.0,0.0,0.0,0.0,0.0,0.0,0.0,0.0,0.0,0.0,0.0,0.0,0.0,0.0,0.0,0.0,0.0,0.0,0.0,0.0,0.0,0.0,0.0,0.0,0.0,0.0,0.0,0.0,0.0,0.0,0.0,0.0,0.0,0.0,0.0,0.0,0.0,0.0,0.0,0.0,0.0,0.0,0.0,0.0,0.0,0.0,0.0,0.0,0.0,0.0,-1.2864,0.0,0.0,0.0,0.0,0.0,0.0,0.0,0.0,0.0,0.0,0.0,0.0,0.0,0.0,0.0,0.0,0.0,0.0,0.0,0.0,0.0,0.0,0.0,0.0,0.0,0.0,0.0,0.0,0.0,0.0,0.0,0.0,0.0,0.0,0.0,0.0,0.0,0.0,0.7068,0.7469,0.8029,0.8004,0.7628,0.7017,0.7139,0.0,0.0,0.0,0.0,0.0,0.0,0.0,0.0,0.0,0.0,0.0,0.0,0.0,0.0,0.0,0.0,0.0,0.0,0.0,0.0,0.0,0.0,0.0,0.0,0.0,0.0,0.0,0.0,0.0,0.0,0.0,0.0,0.0,0.0,0.0,0.0,0.0,0.0,0.0,0.0,0.0,0.0,0.0,0.0,0.0,0.0,0.0,0.0,0.0,0.0,0.0,0.0,0.0,0.0,0.0,0.0,0.0,0.0,0.0,0.0,0.0,0.0,0.0,0.0,-1.6137,-1.6077,-1.5832,-1.5571,-1.5357,-1.4776,-1.3948,-1.3032,0.0,0.0,0.0,0.0,0.0,0.0,0.0,0.0,0.0,0.0,0.0,0.0,0.0,0.0,0.0,0.0,0.0,0.0,0.0,0.0,0.0,0.0,0.0,0.0,0.0,0.0,0.0,0.0,0.0,0.0,0.0,0.0,0.0,0.0,0.7194,0.6844,0.6729,0.7275,0.778,0.8245,0.8482,0.8469,0.8231,0.7879,0.7702,0.7648,0.0,0.0,0.0,0.0,0.0,0.0,0.0,0.0,0.0,0.0,0.0,0.0,0.0,0.0,0.0,0.0,0.0,0.0,0.0,0.0,0.0,0.0,0.0,0.0,0.0,0.0,0.0,0.0,0.0,0.0,0.0,0.0,0.0,0.0,0.0,0.0,0.0,0.0,0.0,0.0,0.0,-0.2351,-0.3558,0.0,0.0,0.0,0.0,0.0,0.0,0.0,0.0,0.0,0.0,0.0,0.0,0.0,0.0,-1.2534,-1.5514,-1.7005,-1.6918,-1.7468,-1.7615,-1.7341,-1.7099,-1.6951,-1.6891,-1.6506,0.0,-1.3895,-1.3633,0.0,0.0,0.0,0.0,0.0,0.0,0.0,0.0,0.0,0.0,0.0,0.0,0.0,0.0,0.0,0.0,0.0,0.0,0.0,0.0,0.0,0.0,0.0,0.0,0.0,0.0,0.0,0.0,0.0,0.0,0.0,0.0,0.0,0.6891,0.6973,0.7326,0.8014,0.8537,0.8899,0.8085,0.7681,0.7559,0.6332,0.6145,0.6784,0.6601,0.0,0.0,0.0,0.0,0.0,0.0,0.0,0.0,0.0,0.0,0.0,0.0,0.0,0.0,0.0,0.0,0.0,0.0,0.0,0.0,0.0,0.0,0.0,0.0,0.0,0.0,0.0,0.0,0.0,0.0,0.0,0.0,0.0,0.0,0.0,0.0,0.0,0.0,0.0,-0.2745,-0.3926,-0.5368,-0.6171,-0.6468,0.0,0.0,0.0,0.0,0.0,0.0,0.0,0.0,0.0,-0.9129,-1.2191,-1.3863,-1.3966,-1.6693,-1.7943,-1.7655,-1.809,-1.8223,-1.8083,-1.7789,-1.7655,-1.7635,-1.7328,-1.6667,-1.5792,-1.4957,-1.4386,-1.4053,0.0,0.0,0.0,0.0,0.0,-1.6325,0.0,0.0,0.0,0.0,0.0,0.0,0.0,0.0,0.0,0.0,0.0,0.0,0.0,0.0,0.0,0.7611,0.0,0.0,0.0,0.0,0.0,0.0,0.0,0.0,0.6358,0.6719,0.7275,0.7984,0.8703,0.897,0.8843,0.7624,0.6838,0.6404,0.4966,0.4823,0.5591,0.5388,0.453,0.331,0.0,0.0,0.0,0.0,0.0,0.0,0.0,0.0,0.0,0.0,0.0,0.0,0.0,0.0,0.0,0.0,0.0,0.0,0.0,0.0,0.0,0.0,0.0,0.0,0.0,0.0,0.0,0.0,0.0,0.0,0.0,0.0,0.0,0.0,0.0,0.0,0.0,-0.4055,-0.5194,-0.6868,-0.7658,-0.7794,0.0,0.0,0.0,0.0,0.0,0.0,-0.7926,-0.8523,-0.9242,-1.0054,-1.2937,-1.4656,-1.5055,-1.761,-1.8824,-1.8555,-1.8758,-1.8824,-1.8811,-1.8382,-1.8175,-1.8089,-1.7836,-1.7535,-1.7219,-1.5992,-1.5251,-1.481,-1.4369,-1.4242,0.0,-1.5659,-1.6708,-1.7788,0.0,0.0,0.0,0.0,0.0,0.0,0.0,0.0,0.0,0.0,0.0,0.0,0.0,0.0,0.6412,0.8285,0.8336,0.8201,0.0,0.0,0.0,0.0,0.0,0.0,0.6497,0.718,0.7848,0.8448,0.9059,0.8735,0.7532,0.7572,0.6717,0.5176,0.4845,0.4631,0.4574,0.4114,0.3365,0.2533,0.0,0.0,0.0,0.0,0.0,0.0,0.0,0.0,0.0,0.0,0.0,0.0,0.0,0.0,0.0,0.0,0.0,0.0,0.0,0.0,0.0,0.0,0.0,0.0,0.0,0.0,0.0,0.0,0.0,0.0,0.0,0.0,0.0,0.0,0.0,0.0,0.0,0.0,0.0,-0.7313,-0.8218,0.0,0.0,0.0,0.0,-0.7934,-0.8252,-0.8547,-0.8801,-1.0426,-1.0883,-0.9861,-1.4475,-1.6463,-1.5268,-1.8514,-2.014,-2.012,-1.986,-1.9733,-1.9713,-1.9138,-1.8731,-1.845,-1.8102,-1.7849,-1.7468,-1.6293,-1.5744,-1.5631,-1.483,-1.4669,-1.5188,-1.7013,-1.795,-1.8565,0.0,0.0,0.0,0.0,0.0,0.0,0.0,0.0,0.0,0.0,0.0,0.0,0.0,0.5288,0.6777,0.8615,0.8906,0.8757,0.8221,0.0,0.0,0.0,0.0,0.0,0.5807,0.5354,0.5333,0.5712,0.627,0.6286,0.5898,0.4906,0.4096,0.3497,0.2248,0.1631,0.1652,0.2426,0.2061,0.0853,0.0709,0.0401,0.0,0.0,0.0,0.0,0.0,0.0,0.0,0.0,0.0,0.0,0.0,0.0,0.0,0.0,0.0,0.0,0.0,0.0,0.0,0.0,0.0,0.0,0.0,0.0,0.0,0.0,0.0,0.0,0.0,0.0,0.0,0.0,0.0,0.0,0.0,0.0,0.0,-0.819,-0.9063,0.0,-0.8716,-0.8611,-0.8655,-0.875,-0.8947,-0.9191,-0.949,-1.0172,-1.0429,-1.0243,-1.412,-1.5951,-1.5405,-1.8809,-2.0327,-1.9953,-1.9853,-1.97,-1.9506,-1.9105,-1.8764,-1.847,-1.8163,-1.7856,-1.7522,-1.672,-1.6393,-1.6359,-1.6052,-1.5758,-1.5624,-1.6522,-1.7812,-1.9165,0.0,0.0,0.0,0.0,0.0,0.0,0.0,0.0,0.0,0.0,0.0,0.2216,0.4086,0.544,0.6962,0.8863,0.9147,0.8977,0.8381,0.0,0.0,0.0,0.6477,0.0,0.0,0.4481,0.4044,0.4313,0.4679,0.4641,0.4172,0.311,0.2333,0.1732,0.0522,0.0,0.0063,0.1065,0.0884,0.0,0.0,0.0,0.0,0.0,0.0,0.0,0.0,0.0,0.0,0.0,0.0,0.0,0.0,0.0,0.0,0.0,0.0,0.0,0.0,0.0,0.0,0.0,0.0,0.0,0.0,0.0,0.0,0.0,0.0,0.0,0.0,0.0,0.0,0.0,0.0,0.0,0.0,0.0,-0.6432,-0.8798,-0.9731,-1.0039,-0.9435,-0.9476,-0.9557,-0.9661,-0.9747,-0.9917,-1.0114,-1.0222,-1.0365,-1.0561,-1.3388,-1.512,-1.5637,-1.8512,-2.0051,-2.0241,-2.004,-1.9846,-1.9646,-1.9252,-1.8858,-1.8477,-1.827,-1.7949,-1.7549,-1.7054,-1.6794,-1.6687,-1.6486,-1.6172,-1.5899,-1.6525,-1.7675,-1.9001,0.0,0.0,0.0,0.0,0.0,0.0,0.0,0.0,0.0,0.0,0.0184,0.2073,0.4257,0.5384,0.6812,0.898,0.9011,0.8794,0.8489,0.7909,0.0,0.0,0.0,0.0,0.5553,0.4568,0.4142,0.4334,0.4649,0.3929,0.2448,0.2417,0.1579,0.0,0.0,0.0,0.0,0.0,0.0,0.0,0.0,0.0,0.0,0.0,0.0,0.0,0.0,0.0,0.0,0.0,0.0,0.0,0.0,0.0,0.0,0.0,0.0,0.0,0.0,0.0,0.0,0.0,0.0,0.0,0.0,0.0,0.0,0.0,0.0,0.0,0.0,0.0,0.0,0.0,0.0,0.0,-0.4274,-0.5119,-0.6417,-0.911,-1.0198,-1.0504,-0.992,-1.0388,-1.0666,-1.0517,-1.0643,-1.0727,-1.0727,-1.0721,-1.0721,-1.0721,-1.2413,-1.4166,-1.5848,-1.7591,-1.9337,-2.1076,-2.0494,-2.0153,-2.0187,-1.9626,-1.9045,-1.849,-1.849,-1.8143,-1.7562,-1.7306,-1.7018,-1.6653,-1.6079,-1.5798,-1.5967,-1.7239,-1.7746,-1.8141,0.0,0.0,0.0,0.0,0.0,0.0,0.0,0.0,0.0,0.0,-0.0723,0.0804,0.4129,0.4851,0.6112,0.8759,0.8757,0.8482,0.818,0.0,0.0,0.0,0.0,0.0,0.4809,0.2435,0.1173,0.1221,0.1295,0.1114,0.0665,0.0667,0.0468,0.0,0.0,0.0,0.0,0.0,0.0,0.0,0.0,0.0,0.0,0.0,0.0,0.0,0.0,0.0,0.0,0.0,0.0,0.0,0.0,0.0,0.0,0.0,0.0,0.0,0.0,0.0,0.0,0.0,0.0,0.0,0.0,0.0,0.0,0.0,0.0,0.0,0.0,0.0,0.0,0.0,0.0,-0.1119,-0.4393,-0.5336,-0.6855,-0.9998,-1.0761,-1.0975,-1.0809,-1.085,-1.0799,-1.0759,-1.0796,-1.082,-1.082,-1.0778,-1.0721,-1.0721,-1.2413,-1.4166,-1.5848,-1.7429,-1.8962,-2.0468,-2.0094,-1.9806,-1.9599,-1.9497,-1.9045,-1.849,-1.849,-1.8143,-1.7542,-1.7034,-1.678,-1.6693,-1.6526,-1.6206,-1.5994,-1.7432,-1.8986,-2.0531,0.0,0.0,0.0,0.0,0.0,0.0,0.0,0.0,0.0,0.0,-0.1327,0.0085,0.3217,0.3604,0.4759,0.7434,0.7503,0.7282,0.7013,0.0,0.0,0.0,0.0,0.4162,0.4496,0.1548,0.0,0.0,0.0,0.0,0.0,0.0,0.0,0.0,0.0,0.0,0.0,0.0,0.0,0.0,0.0,0.0,0.0,0.0,0.0,0.0,0.0,0.0,0.0,0.0,0.0,0.0,0.0,0.0,0.0,0.0,0.0,0.0,0.0,0.0,0.0,0.0,0.0,0.0,0.0,0.0,0.0,0.0,0.0,0.0,0.0,0.0,0.0,0.0,0.0,-0.1215,-0.4614,-0.544,-0.6895,-1.0368,-1.0968,-1.1121,-1.1246,-1.1124,-1.1036,-1.1036,-1.0982,-1.0853,-1.0789,-1.0768,-1.0721,-1.0721,-1.1699,-1.3062,-1.4814,-1.627,-1.7798,-1.9339,-1.9627,-1.9713,-1.9546,-1.9419,-1.9045,0.0,-1.849,-1.8143,-1.7535,-1.6947,-1.6707,0.0,0.0,0.0,0.0,0.0,-1.9031,-2.0711,0.0,0.0,0.0,0.0,0.0,0.0,0.0,0.0,0.0,0.0,0.0,-0.0407,0.1791,0.2155,0.317,0.5556,0.5661,0.555,0.0,0.0,0.0,0.6033,0.4559,0.3928,0.4292,0.1457,0.0,0.0,0.0,0.0,0.0,0.0,0.0,0.0,0.0,0.0,0.0,0.0,0.0,0.0,0.0,0.0,0.0,0.0,0.0,0.0,0.0,0.0,0.0,0.0,0.0,0.0,0.0,0.0,0.0,0.0,0.0,0.0,0.0,0.0,0.0,0.0,0.0,0.0,0.0,0.0,0.0,0.0,0.0,0.0,0.0,0.0,0.0,0.0,0.0,-0.1252,-0.4886,-0.542,-0.6745,-1.0489,-1.088,-1.105,-1.1314,-1.1219,-1.1138,-1.1138,-1.1019,-1.0823,-1.0755,0.0,0.0,0.0,0.0,-1.1567,-1.3255,-1.4716,-1.6313,-1.8078,-1.9225,-1.9746,-1.974,-1.9486,-1.9045,-1.849,-1.849,-1.813,-1.7488,-1.6934,-1.6667,-1.6553,-1.6032,-1.5872,-1.615,-1.7451,-1.8688,0.0,0.0,0.0,0.0,0.0,0.0,0.0,0.0,0.0,0.0,-0.3466,-0.2581,-0.122,0.079,0.1709,0.2788,0.4247,0.438,0.4214,0.0,0.0,0.415,0.4416,0.3124,0.2524,0.2854,0.0985,0.0,0.0,0.0,0.0,0.0,0.0,0.0,0.0,0.0,0.0,0.0,0.0,0.0,0.0,0.0,0.0,0.0,0.0,0.0,0.0,0.0,0.0,0.0,0.0,0.0,0.0,0.0,0.0,0.0,0.0,0.0,0.0,0.0,0.0,0.0,0.0,0.0,0.0,0.0,0.0,0.0,0.0,0.0,0.0,0.0,0.0,0.0,-0.0237,0.0,-0.1291,-0.4903,-0.5386,-0.676,-1.0444,-1.088,-1.0904,-1.0961,-1.0938,-1.0989,-1.0989,-1.0897,-1.087,-1.084,-1.0785,0.0,-1.0721,-1.0721,-1.1567,-1.3255,-1.4506,-1.5945,-1.7684,0.0,0.0,-1.9511,-1.9392,-1.9045,-1.849,-1.849,-1.8009,-1.7259,-1.6854,-1.6426,-1.5937,-1.5872,-1.6433,-1.7498,-1.868,-1.9898,-2.1114,0.0,0.0,0.0,0.0,0.0,0.0,0.0,0.0,0.0,0.0,-0.3208,-0.2434,-0.114,-0.012,0.0911,0.2006,0.2527,0.0,0.0,0.2735,0.3003,0.3256,0.2518,0.2222,0.248,0.0852,0.0,0.0,0.0,0.0,0.0,0.0,0.0,0.0,0.0,0.0,0.0,0.0,0.0,0.0,0.0,0.0,0.0,0.0,0.0,0.0,0.0,0.0,0.0,0.0,0.0,0.0,0.0,0.0,0.0,0.0,0.0,0.0,0.0,0.0,0.0,0.0,0.0,0.0,0.0,0.0,0.0,0.0,0.0,-0.6608,0.0,0.0,-0.2623,-0.0376,0.0,-0.1257,-0.4885,-0.5431,-0.6719,-1.035,-1.0766,-1.0796,-1.0873,-1.0813,-1.0799,-1.0877,-1.0809,-1.0766,-1.0766,-1.0761,-1.0721,-1.0721,-1.0721,-1.1567,-1.3255,-1.4405,-1.5876,-1.7608,-1.8794,-1.9424,-1.9424,-1.9424,-1.9045,-1.849,-1.849,-1.8063,-1.7387,-1.6887,-1.6359,-1.5784,-1.5784,-1.6204,-1.6983,-1.881,-1.9898,-2.0666,0.0,0.0,0.0,0.0,0.0,0.0,0.0,0.0,0.0,0.0,-0.3717,-0.3432,-0.3001,-0.2142,-0.1258,0.0,0.0,0.0,0.0,0.1505,0.1841,0.1997,0.1879,0.1835,0.2007,0.0711,0.0,0.0,0.0,0.0,0.0,0.0,0.0,0.0,0.0,0.0,0.0,0.0,0.0,0.0,0.0,0.0,0.0,0.0,0.0,0.0,0.0,0.0,0.0,0.0,0.0,0.0,0.0,-0.016,-0.0361,-0.0347,-0.0531,0.0,0.0,0.0,0.0,0.0,0.0,0.0,0.0,0.0,-0.5612,-0.7862,-0.8557,-0.7974,-0.5538,-0.4774,-0.3706,-0.0981,-0.0533,-0.168,-0.4961,-0.5698,-0.7093,-1.0277,-1.0704,-1.0768,-1.0826,-1.0792,-1.0772,-1.0826,-1.0792,-1.0721,-1.0721,-1.0721,-1.0721,-1.0721,-1.0721,-1.1567,-1.3255,-1.4405,-1.5876,-1.7608,-1.8794,-1.9424,-1.9424,-1.9424,-1.9045,-1.8477,-1.8303,-1.7949,-1.7455,-1.6927,-1.6393,-1.5912,-1.5912,-1.5879,-1.6062,-1.8311,-1.9314,-1.9807,0.0,0.0,0.0,0.0,0.0,0.0,0.0,0.0,0.0,0.0,0.0,0.0,0.0,0.0,0.0,0.0,0.0,0.0,-0.0996,-0.0191,0.0258,0.0274,0.0237,0.0247,0.0309,0.0127,0.0,0.0,0.0,0.0,0.0,0.0,0.0,0.0,0.0,0.0,0.0,0.0,0.0,0.0,0.0,0.0,0.0,0.0,0.0,0.0,0.0,0.0,0.0,0.0,0.0,0.0,0.0,-0.0801,-0.1748,-0.1635,-0.2432,-0.3354,-0.3396,-0.2588,-0.1508,-0.0294,-0.18,-0.3754,0.0,0.0,-0.8575,-0.9286,-0.9561,-0.915,-0.739,-0.5888,-0.4307,-0.2687,-0.2395,-0.3087,-0.5095,-0.6765,-0.8395,-1.027,-1.0636,-1.0727,-1.0744,-1.0731,-1.0727,-1.0744,-1.0731,-1.0721,-1.0721,-1.0721,-1.0721,-1.0721,-1.0721,-1.1567,-1.3255,-1.4405,-1.5876,-1.7608,-1.8794,-1.9424,-1.9424,-1.9424,-1.9045,-1.845,-1.7702,-1.7313,-1.7226,-1.684,-1.6513,-1.6226,-1.6226,-1.6059,-1.5967,-1.7358,-1.8596,-1.9679,0.0,0.0,0.0,0.0,0.0,0.0,0.0,0.0,0.0,0.0,0.0,0.0,0.0,0.0,0.0,0.0,0.0,0.0,-0.1316,-0.047,0.0,0.0,0.0,0.0,0.0,0.0,0.0,0.0,0.0,0.0,0.0,0.0,0.0,0.0,0.0,0.0,0.0,0.0,0.0,0.0,0.0,0.0,0.0,0.0,0.0,0.0,0.0,-0.0461,0.0,0.0,-0.107,-0.1051,-0.107,-0.1417,-0.1874,-0.1827,-0.2757,-0.3818,-0.3874,-0.29,-0.178,-0.1305,-0.2208,-0.3503,-0.4566,-0.6563,-0.8576,-0.9623,-0.9985,-0.929,-0.669,-0.6447,-0.5732,0.0,-0.359,-0.4894,-0.6696,-0.7393,-0.841,-1.0179,-1.0348,-1.0399,-1.0571,-1.0585,-1.0622,-1.0714,-1.0721,-1.0721,-1.0721,-1.0721,-1.0721,-1.0721,-1.0721,-1.1523,-1.316,-1.4407,-1.587,-1.7502,-1.8776,-1.9424,-1.9424,-1.9424,-1.9045,-1.845,-1.7716,-1.7353,-1.7192,-1.7065,-1.6744,-1.6321,-1.6321,-1.6092,-1.5967,-1.7225,-1.8457,-1.967,0.0,0.0,0.0,0.0,0.0,0.0,0.0,0.0,0.0,0.0,0.0,0.0,0.0,0.0,0.0,0.0,0.0,0.0,0.0,-0.087,-0.0249,0.0,0.0,-0.0234,-0.0654,-0.0675,-0.0693,-0.0709,-0.0716,-0.0464,0.0,-0.0483,-0.0489,0.0,-0.0498,-0.0501,0.0,0.0,0.0,0.0,0.0,0.0,0.0,0.0,0.0,0.0,0.0,-0.0766,0.0,0.0,-0.1951,-0.2166,-0.2169,-0.2393,-0.2725,-0.2801,-0.3768,-0.4819,-0.4611,-0.3818,-0.2944,-0.2301,-0.278,-0.3625,-0.4636,-0.6383,-0.8228,-0.9883,-1.0259,-0.9611,-0.7259,-0.7298,-0.6879,-0.4433,-0.515,-0.6519,-0.7746,-0.8127,-0.8768,-1.0035,-1.0019,-1.0025,-1.0283,-1.0385,-1.0493,-1.0646,-1.0656,-1.0677,-1.0717,-1.0721,-1.0721,-1.0721,-1.068,-1.1443,-1.3105,-1.3869,-1.533,-1.7403,-1.8294,-1.8946,-1.9424,-1.9279,-1.8965,-1.8464,-1.7936,-1.7542,-1.732,-1.732,-1.6971,-1.6393,-1.6393,-1.6159,-1.592,-1.685,-1.818,-1.9625,0.0,0.0,0.0,0.0,0.0,0.0,0.0,0.0,0.0,0.0,0.0,0.0,0.0,0.0,0.0,0.0,0.0,0.0,0.0,-0.1765,-0.0903,-0.0051,0.0,-0.0735,-0.241,-0.2429,-0.2401,-0.2443,-0.2444,-0.1579,-0.0069,-0.1784,-0.166,-0.007,-0.1846,-0.1643,0.0,0.0,0.0,0.0,0.0,0.0,0.0,0.0,0.0,0.0,0.0,0.0,0.0,-0.1586,-0.2274,-0.306,-0.3062,-0.3948,0.0,-0.523,-0.6319,-0.7253,-0.6225,-0.6156,-0.5739,-0.3107,-0.3794,-0.5068,-0.5345,-0.6606,-0.8348,-1.027,-1.0477,-1.0324,-1.0333,-0.8713,-0.7449,-0.7431,-0.7607,-0.7707,-0.7599,-0.9121,-1.0105,-0.9869,-0.971,-0.968,0.0,-1.011,-1.0344,-1.0487,-1.05,-1.0565,-1.0711,-1.0721,-1.0721,-1.0721,-1.0575,-1.1325,-1.3101,-1.2686,-1.4141,-1.7403,-1.7209,-1.7864,-1.9417,-1.9065,-1.8771,-1.847,-1.8163,-1.7856,-1.7569,-1.7569,-1.7221,-1.6693,-1.6693,-1.6339,-1.5784,-1.5825,-1.739,-1.9497,0.0,0.0,0.0,0.0,0.0,0.0,0.0,0.0,0.0,0.0,0.0,0.0,0.0,0.0,0.0,0.0,0.0,0.0,0.0,-0.1816,-0.1269,-0.1188,-0.1295,-0.2017,-0.3488,-0.3608,-0.3755,-0.3931,-0.3931,-0.3767,-0.3398,-0.4035,-0.4013,-0.3584,-0.4226,-0.3491,-0.176,-0.1789,-0.1097,0.0,0.0,0.0,0.0,0.0,0.0,0.0,0.0,0.0,0.0,-0.2503,-0.2968,-0.34,-0.4093,-0.4626,-0.5188,-0.6358,-0.7284,-0.7888,-0.7909,-0.7499,-0.6631,-0.4594,-0.4796,-0.5102,-0.3873,-0.5767,-0.7992,-0.8539,-0.9287,-0.9508,-0.8355,-0.8385,-0.8281,-0.74,-0.8403,-0.932,-0.937,-0.9891,-1.0131,-0.9727,-0.9724,0.0,0.0,0.0,0.0,-1.0334,-1.0439,-1.0514,-1.0565,-1.0666,-1.0721,-1.0721,-1.067,-1.0805,-1.1235,-1.2118,-1.3594,-1.5547,-1.7614,-1.8887,-1.9417,-1.9058,-1.8871,-1.8751,-1.8202,-1.7935,-1.7876,-1.7669,-1.7235,-1.6707,-1.6707,-1.6346,-1.5784,-1.5784,-1.6842,-1.8411,0.0,0.0,0.0,0.0,0.0,0.0,0.0,0.0,0.0,0.0,0.0,0.0,0.0,0.0,0.0,0.0,0.0,0.0,0.0,0.0,-0.2237,-0.2116,-0.2256,-0.2982,-0.4473,-0.4636,-0.484,-0.5084,-0.5112,-0.4996,-0.4636,-0.4859,-0.4668,-0.4187,-0.4893,-0.3942,-0.1753,-0.2304,-0.1764,-0.0588,-0.0187,-0.0243,-0.0601,-0.0168,0.0,0.0,0.0,0.0,-0.1878,-0.2876,-0.3761,-0.4544,-0.5241,-0.5625,-0.5999,-0.7122,-0.7845,-0.8369,-0.902,-0.8828,-0.8079,-0.6562,-0.5919,-0.5268,-0.4005,-0.5316,-0.6924,-0.7421,-0.8497,-0.8987,-0.7849,-0.8236,-0.8536,-0.7781,-0.8734,-0.9663,-0.9924,-0.9961,-0.989,-0.9707,-0.972,-0.971,0.0,0.0,0.0,-1.0181,-1.0382,-1.049,-1.049,-1.0636,-1.0721,-1.0721,-1.0619,-1.0473,-1.0283,-1.1217,-1.2633,-1.4604,-1.7273,-1.8823,-1.9417,-1.9165,-1.9025,-1.8898,-1.8417,-1.8089,-1.7969,-1.7709,-1.7235,-1.6707,-1.6707,-1.6346,-1.5784,-1.5784,-1.6339,-1.7264,0.0,0.0,0.0,0.0,0.0,0.0,0.0,0.0,0.0,0.0,0.0,0.0,0.0,0.0,0.0,0.0,0.0,0.0,0.0,0.0,0.0,-0.2817,-0.2922,-0.3771,-0.5408,-0.5623,-0.5745,-0.591,-0.6008,-0.5399,-0.4051,-0.4648,-0.4003,-0.2459,-0.4253,-0.3313,-0.0439,-0.1727,-0.2125,-0.1671,-0.0463,-0.0666,-0.1587,-0.0416,0.0,0.0,0.0,0.0,-0.192,-0.286,-0.4597,-0.6381,-0.6515,-0.6968,-0.7438,-0.7607,-0.8191,-0.8937,-0.9669,-1.0103,-1.0091,-0.8837,-0.7055,-0.559,-0.5508,-0.5169,-0.5331,-0.6884,-0.8077,-0.8831,0.0,0.0,-0.8116,-0.8625,-0.8723,-0.8899,-0.9354,-0.9435,-0.9544,0.0,0.0,0.0,0.0,0.0,0.0,-1.0,0.0,-1.049,-1.049,-1.0636,-1.0721,-1.0721,-1.0449,-1.0297,-1.028,-1.0036,-1.1499,-1.4604,-1.6256,-1.7864,-1.9424,-1.9424,-1.9212,-1.8925,-1.8624,-1.833,-1.7989,-1.7716,-1.7248,-1.6727,-1.6714,-1.6353,-1.5804,-1.5791,-1.5784,-1.615,0.0,0.0,0.0,0.0,0.0,0.0,0.0,0.0,0.0,0.0,0.0,0.0,0.0,0.0,0.0,0.0,0.0,0.0,0.0,0.0,0.0,0.0,0.0,0.0,0.0,0.0,0.0,-0.714,-0.727,-0.7319,-0.7299,-0.7473,-0.7384,-0.7169,-0.7632,-0.668,-0.4665,-0.4133,-0.3124,-0.1673,0.0,-0.0207,-0.0407,0.0,0.0,0.0,0.0,0.0,-0.3966,-0.443,-0.5695,-0.7139,-0.7173,-0.7475,-0.7943,-0.8316,-0.9035,-0.9825,-1.0348,-1.0877,-1.0817,-0.9092,-0.7202,-0.5314,-0.3776,-0.4064,-0.4651,-0.4691,-0.6616,-0.8116,0.0,0.0,0.0,-0.8448,-0.8916,0.0,-0.9815,-1.0168,0.0,-0.996,0.0,-1.0209,-1.0,-1.0249,0.0,0.0,-1.0388,-1.049,-1.049,-1.0636,-1.0721,-1.0721,-1.0649,-1.05,-1.0283,-1.113,-1.2573,-1.4604,-1.6256,-1.7864,-1.9424,-1.9424,-1.9325,-1.9225,-1.8711,-1.8444,-1.8337,-1.7802,-1.7368,-1.7065,-1.6794,-1.648,-1.6132,-1.5912,-1.5784,-1.615,0.0,0.0,0.0,0.0,0.0,0.0,0.0,0.0,0.0,0.0,0.0,0.0,0.0,0.0,0.0,0.0,0.0,0.0,0.0,0.0,0.0,0.0,0.0,0.0,0.0,0.0,0.0,0.0,0.0,0.0,-0.7604,-0.7115,-0.6982,-0.7134,-0.7304,-0.6469,-0.4902,-0.4916,0.0,0.0,0.0,0.0,0.0,0.0,0.0,0.0,0.0,-0.3761,-0.58,-0.6046,-0.6789,-0.7675,-0.7746,-0.8116,-0.8618,-0.9066,-0.9741,-1.046,-1.0975,-1.1409,-1.1418,-1.0314,-0.7894,-0.5604,-0.4894,-0.4439,-0.4277,-0.4448,-0.6158,-0.7503,-0.7234,-0.7248,0.0,0.0,0.0,0.0,-0.9666,-1.0032,-1.0236,0.0,-1.0392,0.0,-1.029,-1.0493,-1.0558,0.0,-1.0548,-1.0561,-1.0493,-1.0636,-1.0721,-1.0721,-1.0656,-1.0477,-1.0181,-1.0789,-1.2333,-1.4604,-1.5548,-1.7155,-1.9424,-1.9424,-1.9299,-1.9145,0.0,-1.8417,-1.8257,-1.7782,-1.7467,-1.7186,-1.7018,-1.6697,-1.6301,-1.6086,-1.5939,-1.6055,0.0,0.0,0.0,0.0,0.0,0.0,0.0,0.0,0.0,0.0,0.0,0.0,0.0,0.0,0.0,0.0,0.0,0.0,0.0,0.0,0.0,0.0,0.0,0.0,0.0,0.0,0.0,0.0,0.0,0.0,0.0,0.0,0.0,0.0,0.0,0.0,0.0,0.0,0.0,0.0,0.0,0.0,0.0,0.0,0.0,0.0,-0.3144,-0.5035,-0.7071,-0.7329,-0.774,-0.814,-0.8364,-0.8866,-0.9361,-0.9808,-1.0337,-1.0904,-1.1487,-1.1738,-1.1826,-1.1809,-0.8794,-0.6025,-0.6907,-0.5412,-0.4006,-0.489,-0.6144,-0.6991,-0.6829,-0.674,-0.688,-0.75,0.0,-0.8203,-0.9313,-0.9588,-0.9897,-1.0429,-1.051,-1.0575,-1.0707,-1.0721,-1.0721,-1.0721,-1.0721,-1.0663,-1.0527,-1.0649,-1.0721,-1.0721,-1.0555,-1.0341,-1.0021,-0.9907,-1.1318,-1.4307,-1.4485,-1.6149,-1.9068,-1.9307,-1.9205,-1.8911,0.0,0.0,-1.7969,-1.7709,-1.7435,-1.7253,-1.7213,-1.6891,-1.6429,-1.6348,-1.6112,-1.6069,0.0,0.0,0.0,0.0,0.0,0.0,0.0,0.0,0.0,0.0,0.0,0.0,0.0,0.0,0.0,0.0,0.0,0.0,0.0,0.0,0.0,0.0,0.0,0.0,0.0,0.0,0.0,0.0,0.0,0.0,0.0,0.0,0.0,0.0,0.0,0.0,0.0,0.0,0.0,0.0,0.0,0.0,0.0,0.0,0.0,0.0,-0.5349,-0.6176,-0.6858,-0.7383,-0.8106,-0.8774,-0.9103,-0.9513,-0.992,-1.0432,-1.0812,-1.1189,-1.1667,-1.1813,-1.1803,-1.1684,-0.8676,-0.5807,-0.576,-0.4655,0.0,-0.3518,-0.5227,-0.6695,-0.6467,-0.5871,-0.5915,-0.7516,-0.7368,-0.7684,-0.9499,-0.9988,-1.0246,0.0,-1.0605,-1.069,-1.0717,-1.0721,0.0,0.0,0.0,0.0,-1.068,-1.0707,-1.0721,-1.0721,-1.046,-1.0293,-1.0243,-0.9961,-1.0778,-1.2633,-1.3944,-1.5612,-1.7443,-1.8765,-1.9205,-1.8911,0.0,0.0,-1.7969,-1.7709,-1.7555,-1.7482,-1.7293,-1.7139,-1.6991,-1.6502,-1.6239,-1.6491,0.0,0.0,0.0,0.0,0.0,0.0,0.0,0.0,0.0,0.0,0.0,0.0,0.0,0.0,0.0,0.0,0.0,0.0,0.0,0.0,0.0,0.0,0.0,0.0,0.0,0.0,0.0,0.0,0.0,0.0,0.0,0.0,0.0,0.0,0.0,0.0,0.0,0.0,0.0,0.0,0.0,0.0,0.0,0.0,0.0,0.0,0.0,-0.6502,-0.6875,-0.7238,-0.7957,-0.8794,-0.933,-0.9808,-1.0243,-1.0612,-1.0931,-1.126,-1.1708,-1.183,-1.1796,-1.1653,-0.918,-0.6928,-0.7138,0.0,0.0,-0.4877,-0.5705,-0.6308,-0.6166,-0.5504,-0.5502,-0.6982,-0.6703,-0.7058,-0.905,-0.9554,-0.9893,-1.0429,-1.0626,-1.0721,0.0,0.0,0.0,0.0,0.0,0.0,-1.0721,-1.0721,-1.0683,-1.0605,-1.0392,-1.0243,-1.0161,-0.9934,-1.06,-1.2217,-1.3825,-1.5365,-1.6826,-1.8577,-1.9125,-1.8691,0.0,0.0,-1.7969,-1.7709,-1.7582,-1.7569,-1.7481,-1.7333,-1.7166,-1.6884,-1.6683,-1.6791,0.0,0.0,0.0,0.0,0.0,0.0,0.0,0.0,-1.0955,-1.196,-1.2045,-1.1211,-0.9258,-0.7403,0.0,0.0,0.0,0.0,0.0,0.0,0.0,0.0,0.0,0.0,0.0,0.0,0.0,0.0,0.0,0.0,0.0,0.0,0.0,0.0,0.0,0.0,0.0,0.0,0.0,0.0,0.0,0.0,0.0,0.0,0.0,0.0,0.0,-0.6488,-0.6817,-0.698,-0.7584,-0.8316,-0.9008,-0.9666,-1.0226,-1.046,-1.0785,-1.1165,-1.1613,-1.1735,-1.1708,-1.1599,-0.9664,-0.7932,-0.8389,-0.6723,-0.5351,-0.6135,-0.6143,-0.5925,-0.5767,-0.5052,-0.4818,-0.5904,-0.5717,-0.6108,-0.8205,-0.891,-0.9521,0.0,-1.0561,0.0,-1.0717,0.0,0.0,0.0,0.0,0.0,0.0,-1.0687,-1.0616,-1.0493,-1.0324,-1.0171,-0.9987,-0.9835,-1.0418,-1.1736,-1.3347,-1.4803,-1.6143,-1.8004,-1.8786,-1.8577,0.0,0.0,0.0,-1.7709,-1.7582,-1.7582,-1.7582,-1.7494,-1.7286,-1.7226,-1.7052,-1.7091,0.0,0.0,0.0,0.0,0.0,0.0,0.0,0.0,-1.1102,-1.2516,-1.1684,-1.0666,-0.989,-0.9036,0.0,0.0,0.0,0.0,0.0,0.0,0.0,0.0,0.0,0.0,0.0,0.0,0.0,0.0,0.0,0.0,0.0,0.0,0.0,0.0,0.0,0.0,0.0,0.0,0.0,0.0,0.0,0.0,0.0,0.0,0.0,0.0,0.0,-0.6327,-0.6426,-0.6807,-0.7045,-0.7301,-0.7824,-0.8845,-0.9869,-0.9893,0.0,0.0,-1.1311,-1.1433,-1.1426,-1.1416,-0.9591,-0.7707,-0.7336,0.0,-0.5079,-0.5056,-0.555,-0.5767,-0.4963,-0.3883,-0.3315,-0.3942,-0.4113,-0.4851,-0.6807,-0.8332,-0.9388,-0.9953,0.0,0.0,0.0,0.0,0.0,0.0,0.0,0.0,0.0,-1.0588,-1.0507,-1.049,-1.0219,-1.0,-0.9987,-0.9835,-0.9879,-1.0061,-1.1679,-1.3278,-1.4806,-1.6486,-1.7819,-1.8871,0.0,0.0,0.0,-1.7709,-1.7582,-1.7582,-1.7582,-1.7562,-1.7508,-1.73,-1.7186,-1.7282,0.0,0.0,0.0,0.0,0.0,0.0,0.0,0.0,-1.1055,-1.2348,-1.1652,-1.072,-0.9883,-0.8842,0.0,0.0,0.0,0.0,0.0,0.0,0.0,0.0,0.0,0.0,0.0,0.0,0.0,0.0,0.0,0.0,0.0,0.0,0.0,0.0,0.0,0.0,0.0,0.0,0.0,0.0,0.0,0.0,0.0,0.0,0.0,0.0,0.0,0.0,-0.6443,-0.6495,-0.6742,-0.6967,-0.7007,-0.7685,-0.8608,-0.9235,-0.9778,-1.0317,-1.0951,-1.1189,-1.1233,-1.1148,-0.999,-0.8769,-0.8165,0.0,-0.6236,-0.6011,-0.5986,-0.5719,-0.475,-0.4081,-0.3799,-0.418,-0.4176,-0.4838,-0.6899,-0.7796,-0.8608,-0.9659,-1.0046,0.0,0.0,0.0,0.0,0.0,0.0,0.0,0.0,-1.0524,-1.0453,-1.0368,-1.0158,-0.9943,-0.9852,-0.9849,-0.9822,-0.9822,-1.1438,-1.2862,-1.4137,-1.59,-1.7313,-1.837,0.0,0.0,0.0,-1.7782,-1.7689,-1.7822,-1.7649,-1.7582,-1.7569,-1.7507,-1.746,-1.7556,0.0,0.0,0.0,0.0,0.0,0.0,-0.9866,-1.0241,-1.0815,-1.1897,-1.1334,-1.0519,-0.9658,-0.8403,-0.7162,0.0,0.0,0.0,0.0,0.0,0.0,0.0,0.0,0.0,0.0,0.0,0.0,0.0,0.0,0.0,0.0,0.0,0.0,0.0,0.0,0.0,0.0,0.0,0.0,0.0,0.0,0.0,0.0,0.0,0.0,0.0,0.0,0.0,0.0,0.0,0.0,-0.6695,-0.6518,-0.6846,-0.7455,-0.8467,-0.9106,-0.9707,-1.0307,-1.0724,-1.0877,-1.0775,-1.0107,-0.9317,-0.8716,0.0,-0.695,-0.6695,-0.6312,-0.5696,-0.4669,-0.4372,-0.4217,-0.4065,-0.4247,-0.4968,-0.6637,-0.7323,-0.8082,0.0,0.0,0.0,0.0,0.0,0.0,0.0,0.0,0.0,0.0,-1.0385,-1.0314,-1.0215,-1.0063,-0.9869,-0.9822,-0.9822,-0.9798,-0.9758,-1.0936,-1.2077,-1.3198,-1.5092,-1.6564,0.0,0.0,0.0,0.0,-1.7836,-1.7702,-1.7869,-1.7662,-1.7582,-1.7569,-1.7482,-1.7455,-1.7551,0.0,0.0,0.0,0.0,0.0,0.0,0.0,0.0,-1.0403,-1.1282,-1.0537,-0.9742,-0.9343,0.0,0.0,0.0,0.0,0.0,0.0,0.0,0.0,0.0,0.0,0.0,0.0,0.0,0.0,-0.4186,-0.4517,0.0,0.0,0.0,0.0,0.0,0.0,0.0,0.0,0.0,0.0,0.0,0.0,0.0,0.0,0.0,0.0,0.0,0.0,0.0,0.0,0.0,0.0,0.0,0.0,-0.6405,-0.6675,-0.7394,-0.8248,-0.8989,-0.95,-0.9951,-1.029,-1.0287,-0.9777,-0.9057,-0.8463,-0.758,-0.6844,-0.6536,-0.6237,-0.5688,-0.4702,-0.4496,-0.4167,-0.3078,-0.4038,-0.5047,-0.5563,-0.687,-0.8035,0.0,0.0,0.0,0.0,0.0,0.0,0.0,0.0,0.0,0.0,0.0,-0.999,-0.9987,-0.9842,-0.9822,-0.9822,-0.9822,-0.9751,-0.9612,-0.9754,-1.0554,-1.1852,-1.3751,0.0,0.0,0.0,0.0,0.0,-1.7836,-1.7582,-1.7589,-1.7582,-1.7582,-1.7549,-1.7313,-1.7206,-1.7119,0.0,0.0,0.0,0.0,0.0,0.0,0.0,0.0,-0.9555,-0.9731,-0.8876,0.0,0.0,0.0,0.0,0.0,0.0,0.0,0.0,0.0,0.0,0.0,0.0,0.0,0.0,0.0,0.0,-0.441,-0.4677,-0.4867,-0.498,0.0,0.0,0.0,0.0,0.0,0.0,0.0,0.0,0.0,0.0,0.0,0.0,0.0,0.0,0.0,0.0,0.0,0.0,0.0,0.0,0.0,0.0,0.0,0.0,-0.6774,-0.7465,-0.8245,-0.8598,-0.8947,-0.9157,-0.8957,-0.8567,-0.8133,-0.7794,-0.7197,-0.6715,-0.6555,-0.6361,-0.5886,-0.4836,-0.5124,-0.528,-0.4518,-0.5294,-0.6198,0.0,0.0,0.0,0.0,0.0,0.0,0.0,0.0,0.0,0.0,0.0,0.0,0.0,0.0,-0.9879,-0.9984,-0.99,-0.9822,-0.9822,-0.9724,-0.9703,-0.9751,-0.9595,-1.0277,-1.1659,-1.3183,0.0,0.0,0.0,0.0,0.0,-1.7749,-1.7582,-1.7582,-1.7582,-1.7514,-1.7326,-1.7233,-1.7199,-1.7146,0.0,0.0,0.0,0.0,0.0,0.0,0.0,0.0,-0.8961,-0.874,0.0,0.0,0.0,0.0,0.0,0.0,0.0,0.0,0.0,0.0,0.0,0.0,0.0,0.0,0.0,-0.4956,-0.4832,-0.5081,-0.5425,-0.5618,-0.5732,-0.6421,-0.6634,0.0,0.0,0.0,0.0,0.0,0.0,0.0,0.0,0.0,-0.6433,0.0,0.0,0.0,0.0,0.0,0.0,0.0,0.0,0.0,0.0,0.0,0.0,0.0,-0.7804,-0.8264,-0.8038,-0.8147,-0.8326,-0.8143,-0.7824,0.0,-0.7258,-0.681,-0.6437,-0.6439,-0.6317,-0.5974,-0.5257,-0.566,-0.5945,-0.5428,-0.6002,-0.6685,0.0,0.0,0.0,0.0,0.0,0.0,0.0,0.0,0.0,0.0,0.0,0.0,0.0,0.0,-0.9839,-0.9822,-0.9842,-0.9795,-0.9741,-0.9707,-0.968,-0.9652,-0.9527,-0.9863,-1.0703,0.0,0.0,0.0,0.0,0.0,0.0,-1.7589,-1.7474,-1.746,-1.7295,-1.7141,-1.7018,-1.6911,-1.6871,-1.6824,0.0,0.0,0.0,0.0,0.0,0.0,0.0,0.0,0.0,0.0,0.0,0.0,0.0,0.0,0.0,0.0,0.0,0.0,0.0,0.0,0.0,0.0,0.0,0.0,0.0,-0.5562,-0.5755,-0.6023,-0.6502,-0.6725,-0.6753,-0.6984,-0.6926,-0.6545,-0.6532,0.0,0.0,0.0,0.0,0.0,0.0,0.0,0.0,0.0,0.0,0.0,0.0,0.0,0.0,0.0,0.0,0.0,0.0,0.0,0.0,0.0,0.0,0.0,0.0,-0.7557,-0.7726,-0.7672,-0.7307,-0.6967,-0.6836,-0.6377,0.0,-0.6238,-0.6115,-0.5939,-0.5857,-0.6098,-0.6207,-0.5935,-0.6247,-0.663,0.0,-0.7519,0.0,0.0,0.0,0.0,0.0,0.0,0.0,0.0,0.0,0.0,0.0,0.0,0.0,-0.9598,-0.972,-0.973,-0.9612,-0.973,-0.9663,-0.9415,-0.9523,-0.9435,-0.9284,0.0,0.0,0.0,0.0,0.0,0.0,-1.7434,-1.7172,-1.7112,-1.6807,-1.6693,-1.664,-1.6373,-1.6321,-1.6226,0.0,0.0,0.0,0.0,0.0,0.0,0.0,0.0,0.0,0.0,0.0,0.0,0.0,0.0,0.0,0.0,0.0,0.0,0.0,0.0,0.0,0.0,0.0,0.0,0.0,-0.5677,-0.5956,-0.6366,-0.6709,-0.699,-0.7217,-0.7285,-0.7139,-0.6817,-0.6698,0.0,0.0,0.0,0.0,0.0,0.0,0.0,0.0,0.0,0.0,0.0,-0.7434,-0.8585,0.0,0.0,0.0,0.0,0.0,0.0,0.0,0.0,-0.8681,-0.8363,-0.743,0.0,-0.7233,-0.6454,-0.6193,-0.6108,0.0,-0.5956,-0.5864,-0.5901,-0.5881,-0.5915,-0.6153,-0.6115,-0.6247,-0.6704,-0.6873,-0.7085,-0.7546,0.0,0.0,0.0,0.0,0.0,0.0,0.0,0.0,0.0,0.0,0.0,0.0,0.0,0.0,-0.9435,-0.9466,-0.9527,-0.9608,-0.9527,-0.9561,-0.9713,-0.9405,-0.9344,-0.9435,0.0,0.0,0.0,0.0,0.0,-1.74,-1.7259,-1.6931,-1.6543,-1.6647,-1.6567,-1.6366,-1.6299,-1.6321,-1.6226,0.0,0.0,0.0,0.0,0.0,0.0,0.0,0.0,0.0,0.0,0.0,0.0,0.0,0.0,0.0,0.0,0.0,0.0,0.0,0.0,0.0,0.0,0.0,0.0,0.0,-0.5796,-0.6125,-0.6576,-0.6949,-0.7251,-0.7478,-0.7543,-0.7343,-0.6869,-0.6552,0.0,0.0,0.0,0.0,0.0,-0.6183,0.0,0.0,0.0,0.0,0.0,-0.8237,-0.931,0.0,-1.1064,-1.1302,-1.1358,0.0,0.0,0.0,0.0,-0.9794,-0.9303,-0.7903,-0.7458,-0.7222,-0.625,-0.5959,-0.5925,-0.5996,-0.58,-0.5637,-0.5772,-0.58,-0.5854,-0.602,-0.6149,-0.6366,-0.6766,-0.6964,0.0,0.0,0.0,0.0,0.0,0.0,0.0,0.0,0.0,0.0,0.0,0.0,0.0,0.0,0.0,0.0,0.0,-0.9333,-0.9317,-0.9398,-0.9388,-0.9425,-0.951,-0.9326,-0.9255,-0.9384,0.0,0.0,0.0,0.0,0.0,-1.7179,-1.6911,-1.661,-1.6279,-1.6293,-1.6206,-1.6072,-1.6072,-1.6072,-1.6046,0.0,0.0,0.0,0.0,0.0,0.0,0.0,0.0,0.0,0.0,0.0,0.0,0.0,0.0,0.0,0.0,0.0,0.0,0.0,0.0,0.0,0.0,0.0,-0.5487,-0.5654,-0.5878,-0.6227,-0.6702,-0.7129,-0.7414,-0.7567,-0.7756,-0.7519,-0.6862,-0.6283,-0.6125,0.0,0.0,0.0,0.0,-0.6091,0.0,0.0,0.0,0.0,0.0,0.0,0.0,0.0,-1.1657,-1.1971,-1.1919,-1.2422,0.0,0.0,0.0,0.0,0.0,-0.8744,-0.8176,-0.7791,-0.6699,-0.6317,-0.6279,-0.6429,-0.6043,-0.5702,-0.5784,-0.58,-0.5817,-0.5864,-0.6183,0.0,0.0,0.0,0.0,0.0,0.0,0.0,0.0,0.0,0.0,0.0,0.0,0.0,0.0,0.0,0.0,0.0,0.0,0.0,0.0,-0.9118,-0.9108,-0.9108,-0.9306,-0.935,-0.9245,-0.9197,-0.9176,-0.9169,-1.0464,0.0,0.0,0.0,0.0,-1.7032,-1.6529,-1.6246,-1.6179,-1.5925,-1.5784,-1.5784,-1.5784,-1.5784,-1.5832,0.0,0.0,0.0,0.0,0.0,0.0,0.0,0.0,0.0,0.0,0.0,0.0,0.0,0.0,0.0,0.0,0.0,0.0,0.0,0.0,0.0,0.0,0.0,-0.5583,-0.5915,-0.5881,-0.6122,-0.6702,-0.7021,-0.7255,-0.746,-0.7818,-0.7574,-0.6866,-0.6437,-0.6166,-0.6027,-0.6003,-0.6118,-0.6286,-0.6091,0.0,0.0,0.0,0.0,0.0,0.0,0.0,0.0,-1.1175,-1.1323,-1.1475,-1.1597,0.0,0.0,0.0,0.0,0.0,-0.9676,-0.979,-0.9633,-0.7509,-0.7109,-0.7241,-0.715,-0.7066,-0.6796,-0.5968,-0.58,-0.5881,-0.618,-0.6286,-0.6497,0.0,0.0,0.0,0.0,0.0,0.0,0.0,0.0,0.0,0.0,0.0,0.0,0.0,0.0,0.0,0.0,0.0,0.0,0.0,0.0,-0.8584,-0.8584,-0.9043,-0.9299,-0.9344,-0.9093,-0.8971,-0.896,-1.0207,-1.1453,0.0,0.0,-1.5451,-1.6449,-1.6362,-1.6126,-1.5892,-1.5798,-1.5784,-1.5784,-1.5784,-1.5784,-1.5967,0.0,0.0,0.0,0.0,0.0,0.0,0.0,0.0,0.0,0.0,0.0,0.0,0.0,0.0,0.0,0.0,0.0,0.0,0.0,0.0,0.0,0.0,-0.6019,-0.6209,-0.602,-0.6787,-0.7521,-0.8095,-0.8389,-0.8645,-0.8767,-0.7936,-0.7284,-0.6862,-0.6373,-0.6142,-0.6149,-0.6027,-0.6118,-0.6279,0.0,0.0,0.0,0.0,0.0,0.0,0.0,0.0,0.0,0.0,-1.1082,-1.1223,-1.1342,0.0,0.0,0.0,0.0,0.0,-0.9675,-0.9799,-0.9937,-0.9165,-0.8968,-0.8899,-0.8651,-0.8583,-0.846,-0.8019,-0.7961,-0.8052,-0.8198,0.0,-0.7695,-0.7622,0.0,0.0,0.0,0.0,0.0,0.0,0.0,0.0,0.0,0.0,0.0,0.0,0.0,0.0,0.0,0.0,0.0,0.0,0.0,0.0,-0.8482,-0.874,-0.8825,-0.8893,-0.8757,-0.8693,-0.874,-1.0104,-1.1414,0.0,0.0,-1.5177,-1.6308,-1.6099,-1.5952,-1.5784,-1.5784,-1.5784,-1.5784,-1.5784,-1.5784,-1.5872,0.0,0.0,0.0,0.0,0.0,0.0,0.0,0.0,0.0,0.0,0.0,0.0,0.0,0.0,0.0,0.0,0.0,0.0,0.0,0.0,-0.5644,-0.5566,-0.6754,-0.7126,-0.6538,-0.7979,-0.9046,-0.9674,-0.9698,-0.9771,-0.9761,-0.8473,-0.7609,-0.7079,-0.6634,-0.6314,-0.6136,-0.6013,-0.6064,-0.6218,0.0,0.0,0.0,0.0,0.0,0.0,0.0,0.0,0.0,0.0,0.0,0.0,0.0,0.0,0.0,-1.0928,-1.0767,-1.0479,-0.9866,-0.9892,-1.0218,-1.0668,-1.0481,-1.0206,-1.0248,-1.0142,-1.0051,-1.002,-0.9845,-0.9792,0.0,-0.9438,0.0,-0.881,0.0,0.0,0.0,0.0,0.0,0.0,0.0,0.0,0.0,0.0,0.0,0.0,0.0,0.0,0.0,0.0,0.0,0.0,0.0,0.0,-0.8377,-0.8377,-0.8414,-0.8482,-0.8448,-0.8431,-0.8484,-0.9566,-1.0919,-1.2486,-1.3358,-1.4674,-1.6152,-1.5925,-1.5784,-1.5784,-1.5784,-1.5784,-1.5784,-1.5784,-1.5784,-1.5825,0.0,0.0,0.0,0.0,0.0,0.0,0.0,0.0,0.0,0.0,0.0,0.0,0.0,0.0,0.0,0.0,0.0,0.0,0.0,0.0,-0.6243,-0.5442,-0.7281,-0.8234,-0.8037,-0.9208,-1.011,-1.0712,-0.9894,-0.9414,-0.9202,-0.9829,-0.9303,-0.7726,-0.7672,-0.6933,-0.5647,-0.5766,-0.5908,-0.5983,-0.5725,0.0,0.0,0.0,0.0,0.0,0.0,0.0,0.0,0.0,0.0,0.0,0.0,0.0,-1.0626,-1.0626,-1.0613,-1.0653,-1.0823,-1.1055,-1.1292,-1.1347,-1.0704,-1.0439,-1.1647,-1.1483,-1.105,-1.0942,-0.9971,-0.9452,0.0,-0.9744,-0.9581,0.0,0.0,0.0,0.0,0.0,0.0,0.0,0.0,0.0,0.0,0.0,0.0,0.0,0.0,0.0,0.0,0.0,0.0,0.0,0.0,0.0,-0.8022,-0.8022,-0.8208,-0.8479,-0.8398,-0.8337,-0.8333,-0.8237,-0.9545,-1.1942,-1.2024,-1.3522,-1.5811,-1.5791,-1.5784,-1.5784,-1.5784,-1.5784,-1.5784,-1.5784,-1.5784,-1.5967,0.0,0.0,0.0,0.0,0.0,0.0,0.0,0.0,0.0,0.0,0.0,0.0,0.0,0.0,0.0,0.0,0.0,0.0,0.0,0.0,-0.6577,-0.633,-0.8183,-0.9315,-0.9564,-1.0584,-1.1352,-1.1718,-1.1535,-1.098,-1.0162,-1.0052,-0.9656,-0.9053,-0.819,-0.748,-0.6917,-0.6217,-0.6264,-0.6799,-0.6503,-0.6781,0.0,0.0,0.0,0.0,0.0,0.0,0.0,0.0,-1.0593,-1.0593,0.0,-1.0593,-1.0593,-1.0593,-1.0593,-1.062,-1.0727,-1.1236,-1.1703,-1.1703,-1.1595,-1.1707,-1.2573,-1.3035,-1.3315,-1.3442,-1.3219,-1.2845,0.0,0.0,-1.1724,0.0,0.0,0.0,0.0,0.0,0.0,0.0,0.0,0.0,0.0,0.0,0.0,0.0,0.0,0.0,0.0,0.0,0.0,0.0,0.0,0.0,0.0,-0.7988,-0.8046,-0.8204,-0.8153,-0.8126,-0.8126,-0.8015,-0.897,-1.0779,-1.1556,-1.2915,-1.4704,-1.5486,-1.5784,-1.5784,-1.5784,-1.5784,-1.5784,-1.5784,-1.5784,-1.5872,0.0,0.0,0.0,0.0,0.0,0.0,0.0,0.0,0.0,0.0,0.0,0.0,0.0,0.0,0.0,0.0,0.0,0.0,0.0,0.0,-0.7043,-0.684,-0.8925,-1.0119,-1.0196,-1.1303,-1.2134,-1.26,-1.2705,-1.2149,-1.0923,-1.0746,-1.0518,-1.02,-0.8956,-0.8183,-0.7752,-0.6756,-0.6683,-0.7223,-0.7237,-0.763,0.0,0.0,0.0,0.0,0.0,0.0,0.0,0.0,-1.0593,-1.0593,0.0,0.0,-1.0593,-1.0593,-1.0593,-1.0593,-1.0593,-1.1035,-1.1538,-1.1718,-1.2017,-1.2512,-1.3307,-1.3881,-1.4456,-1.5269,-1.5384,-1.495,-1.3399,0.0,0.0,0.0,0.0,0.0,0.0,0.0,0.0,0.0,0.0,0.0,0.0,0.0,0.0,0.0,0.0,0.0,0.0,0.0,0.0,0.0,0.0,0.0,0.0,-0.785,-0.785,-0.785,-0.785,-0.7901,-0.7988,-0.7988,-0.8726,-1.0047,-1.1365,-1.2668,-1.4022,-1.5289,-1.5784,-1.5784,-1.5784,-1.5784,-1.5784,-1.5784,-1.5784,-1.5764,0.0,0.0,0.0,0.0,0.0,0.0,0.0,0.0,0.0,0.0,0.0,0.0,0.0,0.0,0.0,0.0,0.0,0.0,0.0,-0.7022,-0.76,-0.6752,-0.9458,-1.0586,-0.9722,-1.114,-1.2305,-1.316,-1.32,-1.2506,-1.1238,-1.2286,-1.2163,-1.0968,-1.0104,-0.899,-0.7805,-0.7332,-0.7114,-0.7186,-0.7778,-0.8098,-0.8309,0.0,0.0,0.0,0.0,0.0,0.0,0.0,-1.0593,-1.0593,0.0,0.0,0.0,-1.0593,-1.0593,-1.0593,-1.0593,-1.06,-1.0747,-1.1289,-1.1877,-1.2625,-1.3821,-1.3868,-1.4113,-1.5912,-1.5812,-1.5021,-1.3677,-1.3187,0.0,0.0,0.0,0.0,0.0,0.0,0.0,0.0,0.0,0.0,0.0,0.0,0.0,0.0,0.0,0.0,0.0,0.0,0.0,0.0,0.0,0.0,0.0,-0.76,-0.76,-0.76,-0.76,-0.7753,-0.7988,-0.7988,-0.8722,-1.0047,-1.1365,-1.2668,-1.3974,-1.5289,-1.5778,-1.5778,-1.5771,-1.5771,-1.5771,-1.5771,-1.5771,-1.5731,0.0,0.0,0.0,0.0,0.0,0.0,0.0,0.0,0.0,0.0,0.0,0.0,0.0,0.0,0.0,0.0,0.0,0.0,0.0,0.0,-0.7897,-0.7632,0.0,0.0,0.0,0.0,-1.0983,-1.1651,-1.1465,-1.1369,-1.1417,-1.2112,-1.2379,-1.2233,-1.1192,-1.0328,-0.9549,-0.8573,-0.8394,-0.8819,-0.9092,-0.9473,-0.9948,0.0,0.0,0.0,0.0,0.0,0.0,0.0,0.0,0.0,0.0,0.0,0.0,-1.0653,-1.0734,-1.0854,-1.0646,-1.1042,-1.1605,-1.1951,-1.2614,-1.346,-1.4482,-1.479,-1.5144,-1.6079,-1.6181,-1.5783,-1.4947,0.0,0.0,0.0,0.0,0.0,0.0,0.0,0.0,0.0,0.0,0.0,0.0,0.0,0.0,0.0,0.0,0.0,0.0,0.0,0.0,0.0,0.0,0.0,0.0,0.0,-0.76,-0.76,-0.76,-0.7699,-0.7879,-0.7879,-0.8133,-0.8726,-1.0925,-1.2139,-1.2657,-1.4694,-1.5524,-1.5504,-1.5297,-1.5217,-1.5217,-1.5217,-1.5217,-1.5211,0.0,0.0,0.0,0.0,0.0,0.0,0.0,0.0,0.0,0.0,0.0,0.0,0.0,0.0,0.0,0.0,0.0,0.0,0.0,0.0,0.0,0.0,0.0,0.0,0.0,-0.9912,-0.9737,0.0,0.0,-1.0742,-1.1677,-1.2103,-1.2525,-1.2933,-1.1862,-1.1209,-1.0836,-0.9619,-0.934,-0.9666,-0.9943,-1.029,-1.0613,0.0,0.0,0.0,0.0,0.0,0.0,0.0,0.0,0.0,-1.0593,-1.0713,-1.0821,-1.064,-1.0633,-1.0655,-1.0747,-1.1149,-1.1703,-1.2472,-1.359,-1.481,-1.5828,-1.5896,-1.5812,0.0,-1.6092,-1.5992,-1.5638,0.0,0.0,0.0,0.0,0.0,0.0,0.0,0.0,0.0,0.0,0.0,0.0,0.0,0.0,0.0,0.0,0.0,0.0,0.0,0.0,0.0,0.0,0.0,0.0,0.0,0.0,-0.7417,-0.7417,-0.7492,-0.7641,-0.7756,-0.7831,-0.7959,-1.0541,-1.2205,-1.3238,-1.4641,-1.5224,-1.5211,-1.5075,-1.5008,-1.5008,-1.5008,-1.5008,-1.4988,0.0,0.0,0.0,0.0,0.0,0.0,0.0,0.0,0.0,0.0,0.0,0.0,0.0,0.0,0.0,0.0,0.0,0.0,0.0,0.0,0.0,0.0,0.0,0.0,0.0,0.0,0.0,0.0,0.0,-1.0294,-1.1724,-1.2088,-1.2572,-1.3087,-1.2178,-1.1744,-1.1612,-1.0497,-1.0025,-1.0011,-1.0432,-1.062,-1.0593,-1.062,0.0,0.0,0.0,0.0,0.0,0.0,0.0,0.0,-1.0559,-1.0573,-1.0586,-1.0559,-1.0327,-1.0247,-1.0835,-1.0995,-1.1356,-1.2872,-1.4662,-1.6317,-1.7316,-1.6982,-1.6298,-1.5885,0.0,-1.5865,0.0,0.0,0.0,0.0,0.0,0.0,0.0,0.0,0.0,0.0,0.0,0.0,0.0,0.0,0.0,0.0,0.0,0.0,0.0,0.0,0.0,0.0,0.0,0.0,0.0,0.0,0.0,0.0,-0.7055,-0.718,-0.7388,-0.7638,-0.7849,-0.8059,-1.0315,-1.2706,-1.5008,-1.4981,-1.4968,-1.4961,-1.4941,-1.4928,-1.4928,-1.4928,-1.4928,-1.4888,0.0,0.0,0.0,0.0,0.0,0.0,0.0,0.0,0.0,0.0,0.0,0.0,0.0,0.0,0.0,0.0,0.0,0.0,0.0,0.0,0.0,0.0,0.0,0.0,0.0,0.0,0.0,0.0,0.0,-0.9103,-1.051,-1.1533,-1.2158,-1.2512,-1.2541,-1.2153,-1.1465,-1.1184,-1.0821,-1.049,-1.079,-1.0794,-1.062,-1.0847,-1.0787,0.0,0.0,0.0,0.0,0.0,0.0,0.0,-1.0287,-1.0405,-1.0546,-1.0281,-1.0167,-1.0247,-1.0835,-1.0995,-1.1403,-1.308,-1.544,-1.7104,-1.6371,-1.6812,-1.7077,-1.6028,-1.6012,-1.6106,0.0,0.0,0.0,0.0,0.0,0.0,0.0,0.0,0.0,0.0,0.0,0.0,0.0,0.0,0.0,0.0,0.0,0.0,0.0,0.0,0.0,0.0,0.0,0.0,-0.6797,-0.6766,-0.6766,0.0,-0.6797,-0.6875,-0.7034,-0.7329,-0.8609,-1.0546,-1.1053,-1.2706,-1.4988,-1.471,-1.4616,-1.4596,-1.4362,-1.4275,-1.4275,-1.4275,-1.4275,-1.4269,0.0,0.0,0.0,0.0,0.0,0.0,0.0,0.0,0.0,0.0,0.0,0.0,0.0,0.0,0.0,0.0,0.0,0.0,0.0,0.0,0.0,0.0,0.0,0.0,0.0,0.0,0.0,0.0,-0.9262,-0.9356,-1.0736,-1.1657,-1.2231,-1.2556,-1.2717,-1.2449,-1.1817,-1.1396,-1.1042,-1.0801,-1.0814,-1.0727,-1.0613,-1.076,-1.0727,-1.0593,-1.0593,0.0,0.0,0.0,0.0,0.0,0.0,0.0,-1.0294,-0.9993,-0.9913,-1.0007,-1.0454,-1.0875,-1.1929,-1.5038,-1.6192,-1.6757,-1.7399,-1.7047,-1.6404,-1.5758,-1.5858,0.0,0.0,0.0,0.0,0.0,0.0,0.0,0.0,0.0,0.0,0.0,0.0,0.0,0.0,0.0,0.0,0.0,0.0,0.0,0.0,0.0,0.0,0.0,0.0,0.0,-0.659,-0.659,-0.6627,-0.6702,-0.6702,-0.6742,-0.6827,-0.7126,-0.8548,-1.0759,-1.0759,-1.2059,-1.4115,-1.3955,-1.3933,-1.4026,-1.3781,-1.3754,-1.3861,-1.3721,-1.3667,-1.3687,0.0,0.0,0.0,0.0,0.0,0.0,0.0,0.0,0.0,0.0,0.0,0.0,0.0,0.0,0.0,0.0,0.0,0.0,0.0,0.0,0.0,0.0,0.0,0.0,0.0,0.0,0.0,-1.0593,-0.9881,-1.0188,-1.151,-1.1951,-1.2338,-1.2703,-1.2656,-1.2469,-1.2098,-1.1323,-1.0962,-1.0895,-1.0687,-1.0593,-1.0593,-1.0593,-1.0593,-1.0593,-1.0593,-1.0593,-1.0593,-1.0593,0.0,0.0,0.0,0.0,-0.998,-0.9693,-0.9573,-0.9619,-1.0013,-1.0926,-1.2749,-1.6645,-1.6871,-1.6605,-1.8547,-1.7508,-1.5952,-1.5381,0.0,0.0,0.0,0.0,0.0,0.0,0.0,0.0,0.0,0.0,0.0,0.0,0.0,0.0,0.0,0.0,0.0,0.0,0.0,0.0,0.0,0.0,0.0,0.0,0.0,-0.6383,-0.6395,-0.6422,-0.6458,-0.6586,-0.6637,-0.6647,-0.6634,-0.6929,-0.8189,-1.0143,-1.0143,-1.1315,-1.3213,-1.3213,-1.3313,-1.3507,-1.3307,-1.336,-1.35,-1.326,-1.3213,-1.3247,0.0,0.0,0.0,0.0,0.0,0.0,0.0,0.0,0.0,0.0,0.0,0.0,0.0,0.0,0.0,0.0,0.0,0.0,-1.0428,0.0,0.0,-1.0935,-1.1249,-1.1269,0.0,0.0,0.0,-1.0593,-1.0466,-1.0923,-1.1839,-1.163,-1.1837,-1.2351,-1.2134,-1.1817,-1.1482,-1.1149,-1.0881,-1.0646,-1.0606,-1.0593,-1.0593,-1.0593,-1.0593,-1.0593,-1.0593,-1.0593,-1.0593,-1.0593,-1.0593,0.0,0.0,0.0,-0.9679,-0.9357,-0.9098,-0.9098,-0.99,-1.172,-1.3682,-1.4926,-1.7082,-1.8532,0.0,0.0,-1.8053,0.0,0.0,0.0,0.0,0.0,0.0,0.0,0.0,0.0,0.0,0.0,0.0,0.0,0.0,0.0,0.0,0.0,0.0,0.0,0.0,0.0,0.0,0.0,-0.6197,-0.5871,-0.601,0.0,-0.5891,-0.6023,-0.606,-0.6084,-0.638,-0.6477,-0.6368,-0.6624,-0.7936,-0.9943,-0.9943,-1.1192,-1.3213,-1.3213,-1.3233,-1.3267,-1.3227,-1.3233,-1.3267,-1.3227,-1.3213,-1.322,0.0,0.0,0.0,0.0,0.0,0.0,0.0,0.0,0.0,0.0,0.0,0.0,0.0,0.0,0.0,-1.0593,-1.0593,-1.0593,-1.0593,-1.0713,-1.0787,-1.0787,-1.0875,-1.0914,-1.0787,0.0,0.0,-1.0593,-1.0593,-1.0955,-1.1623,-1.1657,-1.2164,-1.3,-1.2752,-1.261,-1.2509,-1.1451,-1.1106,-1.1226,-1.0776,-1.0492,-1.0327,-1.0526,-1.0486,-1.0334,-1.0533,-1.0593,-1.0593,-1.0593,-1.0593,-1.0486,-0.9903,0.0,0.0,0.0,-0.8998,-0.9178,-0.989,-1.0866,-1.209,-1.3748,-1.5328,-1.653,-1.6747,-1.7286,-1.7372,0.0,0.0,0.0,0.0,0.0,0.0,0.0,0.0,0.0,0.0,0.0,0.0,0.0,0.0,0.0,0.0,0.0,0.0,0.0,0.0,0.0,0.0,-0.5966,-0.5905,-0.5691,-0.5827,0.0,-0.5684,-0.5878,-0.5993,-0.5993,-0.6074,-0.6108,-0.6135,-0.6264,-0.7493,-0.9584,-0.9627,-1.083,-1.2705,-1.2705,-1.2799,-1.2971,-1.2766,-1.2799,-1.2933,-1.2766,-1.2705,-1.2726,0.0,0.0,0.0,0.0,0.0,0.0,0.0,0.0,0.0,0.0,0.0,0.0,0.0,0.0,0.0,0.0,-1.0593,-1.0593,-1.0593,-1.0593,-1.0593,-1.0593,-1.0593,-1.0593,-1.0593,0.0,-1.0593,-1.0593,-1.0593,-1.1026,-1.1882,-1.2226,-1.3084,-1.4291,-1.3761,-1.3464,-1.3276,-1.2277,-1.1891,-1.1884,-1.1083,-1.0523,-1.0134,-1.0311,-1.0231,-1.0047,-1.0372,-1.0479,-1.0492,-1.0566,-1.0593,-1.0486,-0.9903,-0.9715,0.0,0.0,0.0,-0.9198,-0.9637,-1.0064,-1.0861,-1.2949,-1.3939,-1.4804,0.0,0.0,0.0,0.0,0.0,0.0,0.0,0.0,0.0,0.0,0.0,0.0,0.0,0.0,0.0,0.0,0.0,0.0,0.0,0.0,0.0,0.0,0.0,0.0,-0.6157,-0.5886,-0.5718,-0.5538,-0.5674,-0.5677,-0.5535,-0.5789,-0.5899,-0.5932,-0.5857,-0.5861,-0.5973,-0.6191,-0.7319,-0.914,-0.9336,-1.0547,-1.2305,-1.2305,-1.2432,-1.265,-1.2385,-1.2438,-1.2636,-1.2335,-1.2191,-1.2225,0.0,0.0,0.0,0.0,0.0,0.0,0.0,0.0,0.0,0.0,0.0,0.0,-1.0134,-1.0419,-1.0593,-1.0593,-1.0593,-1.0593,-1.0593,-1.0593,-1.0593,-1.0593,-1.0593,0.0,-1.0593,-1.0593,-1.0593,-1.0593,-1.0593,-1.1488,-1.321,-1.3494,-1.4583,-1.6276,-1.4958,-1.3803,-1.2995,-1.3785,-1.3461,-1.2294,-1.1555,-1.08,-1.0057,-0.9826,-0.9749,-0.9746,-1.0033,-1.014,-1.018,-1.0492,-1.0593,-1.0486,-0.9903,-0.9715,-0.9566,0.0,0.0,0.0,-0.8864,-0.9949,-1.1334,-1.256,-1.3947,-1.5165,0.0,0.0,0.0,0.0,0.0,0.0,0.0,0.0,0.0,0.0,0.0,0.0,0.0,0.0,0.0,0.0,0.0,0.0,0.0,0.0,0.0,0.0,0.0,0.0,-0.6873,-0.6177,-0.5671,-0.5416,-0.5556,-0.5562,-0.5409,-0.5566,-0.5681,-0.5813,-0.5803,-0.5803,-0.5849,-0.6666,-0.7628,-0.8649,-0.9124,-1.0438,-1.2305,-1.2305,-1.2311,-1.2325,-1.2311,-1.2311,-1.2285,-1.2033,-1.1926,-1.1933,0.0,0.0,0.0,0.0,0.0,0.0,0.0,0.0,0.0,0.0,0.0,0.0,0.0,-1.0526,-1.0593,-1.0593,-1.0593,-1.0593,-1.0593,-1.0593,-1.0593,-1.0593,-1.0593,-1.0593,-1.0593,-1.0593,-1.0593,-1.0593,-1.1108,-1.1784,-1.2617,-1.3429,-1.4074,-1.4519,-1.4896,-1.5029,-1.4975,-1.4098,-1.3647,-1.3425,-1.1901,-1.1005,-1.0559,-0.9945,-0.9566,-0.9411,0.0,0.0,-1.0134,-1.0241,-1.0432,-1.0486,-0.9903,-0.9715,-0.9566,-0.8978,-0.8804,-0.8804,-0.8804,-0.9192,-0.9774,-1.0332,-1.1829,-1.3255,-1.3613,0.0,0.0,0.0,0.0,0.0,0.0,0.0,0.0,0.0,0.0,0.0,0.0,0.0,0.0,0.0,0.0,0.0,0.0,0.0,0.0,0.0,0.0,0.0,-0.6509,-0.6389,-0.6015,-0.522,-0.5267,-0.5318,-0.5395,-0.545,-0.5552,-0.5664,-0.56,-0.5607,-0.5699,-0.6561,-0.7555,-0.8634,-0.9362,-1.0444,-1.1702,-1.1702,-1.1702,-1.1757,-1.1951,-1.1904,-1.175,-1.1873,-1.175,-1.1583,0.0,0.0,0.0,0.0,0.0,0.0,0.0,0.0,0.0,-1.1151,0.0,0.0,0.0,0.0,-1.0713,-1.0989,-1.0982,-1.1108,-1.1389,-1.0902,-1.0713,-1.0982,-1.0744,-1.0593,-1.0593,-1.0863,-1.0982,-1.0982,-1.181,-1.2492,-1.3116,-1.3881,-1.4326,-1.4536,-1.5315,-1.5669,-1.5701,-1.486,-1.4493,-1.4288,-1.2601,-1.1741,-1.1402,-1.0759,0.0,0.0,0.0,0.0,0.0,-1.0724,-1.0802,-1.085,-1.0142,-0.9657,-0.9312,-0.8918,-0.8804,-0.8804,-0.8804,-0.8804,-0.8904,0.0,-1.0551,-1.1818,-1.2419,0.0,0.0,0.0,0.0,0.0,0.0,0.0,0.0,0.0,0.0,0.0,0.0,0.0,0.0,0.0,0.0,0.0,0.0,0.0,0.0,0.0,0.0,0.0,-0.6648,-0.6499,-0.6042,-0.5064,-0.5029,-0.5111,-0.5245,-0.5245,-0.5287,-0.5433,-0.5284,-0.5351,-0.5579,-0.6681,-0.7621,-0.847,-0.9626,-1.0621,-1.1389,-1.1389,-1.1389,-1.1409,-1.1643,-1.1597,-1.1402,-1.1536,-1.145,-1.1283,0.0,0.0,0.0,0.0,0.0,0.0,0.0,0.0,0.0,-1.1939,0.0,0.0,0.0,0.0,0.0,-1.1772,-1.1834,-1.2174,-1.2948,-1.1545,-1.1021,-1.1772,-1.1045,-1.0624,-1.0593,0.0,0.0,0.0,0.0,0.0,0.0,-1.4883,-1.5548,-1.6638,-1.624,-1.5661,-1.4972,-1.615,-1.5999,-1.4814,0.0,-1.2912,-1.2597,0.0,0.0,0.0,-1.2597,-1.2547,0.0,-1.1897,0.0,0.0,0.0,-0.9624,-0.8831,-0.8811,-0.8804,-0.8804,0.0,0.0,0.0,0.0,0.0,0.0,-1.2208,0.0,0.0,0.0,0.0,0.0,0.0,0.0,0.0,0.0,0.0,0.0,0.0,0.0,0.0,0.0,0.0,0.0,0.0,0.0,0.0,0.0,0.0,-0.7767,-0.7328,-0.6485,-0.5657,-0.4911,-0.4881,-0.4881,-0.4881,-0.4887,-0.4958,-0.5093,-0.4955,-0.507,-0.5441,-0.6985,-0.7792,-0.8071,-0.9818,-1.0862,-1.1355,-1.1362,-1.1369,-1.1369,-1.1375,-1.1375,-1.1335,-1.1096,-1.0982,-1.0982,0.0,0.0,0.0,0.0,0.0,0.0,0.0,0.0,-1.3793,0.0,0.0,0.0,-1.2665,-1.2458,-1.2428,-1.2634,-1.2665,-1.2757,-1.2978,-1.2581,-1.2182,-1.1834,-1.1593,-1.1195,-1.0624,0.0,0.0,0.0,0.0,0.0,0.0,0.0,0.0,0.0,-1.5644,-1.5468,-1.5261,-1.5633,0.0,-1.5164,-1.4061,-1.3356,0.0,0.0,0.0,0.0,0.0,-1.144,-1.1628,0.0,-1.1758,-1.202,0.0,0.0,-0.9439,-0.8936,0.0,-0.8804,-0.8804,0.0,0.0,0.0,0.0,0.0,0.0,0.0,0.0,0.0,0.0,0.0,0.0,0.0,0.0,0.0,0.0,0.0,0.0,0.0,0.0,0.0,0.0,0.0,0.0,0.0,0.0,0.0,0.0,-0.8527,-0.7761,-0.6538,-0.5502,-0.4781,-0.4755,-0.4755,-0.4755,-0.4863,-0.4908,-0.4945,-0.4908,-0.4962,-0.5102,-0.6689,-0.7446,-0.7598,-0.9221,-1.0134,-1.0494,-1.0708,-1.0827,-1.0854,-1.1029,-1.0982,-1.0847,-1.0949,-1.0894,-1.0713,0.0,0.0,0.0,0.0,0.0,0.0,0.0,0.0,-1.4868,0.0,0.0,0.0,-1.3039,-1.3478,-1.3717,-1.3532,-1.3485,-1.3636,-1.3965,-1.3364,-1.2795,-1.2328,-1.2297,-1.1934,-1.1108,0.0,0.0,0.0,0.0,0.0,0.0,0.0,0.0,0.0,0.0,0.0,-1.54,0.0,0.0,0.0,-1.4136,0.0,0.0,-1.2905,-1.2555,0.0,0.0,0.0,-1.2894,-1.2201,-1.2183,0.0,0.0,0.0,0.0,0.0,0.0,-0.9452,-0.9598,-0.964,-0.9666,0.0,0.0,0.0,-1.1366,-1.2172,0.0,0.0,0.0,0.0,0.0,0.0,0.0,0.0,0.0,0.0,0.0,0.0,0.0,0.0,0.0,0.0,0.0,0.0,0.0,0.0,-0.9166,-0.8555,-0.7406,-0.6295,-0.5349,-0.4652,-0.4624,-0.4624,-0.4624,-0.4684,-0.4762,-0.4823,-0.4758,-0.4796,-0.4945,-0.6497,-0.7233,-0.7378,-0.8991,-0.978,-0.996,-1.0254,-1.0479,-1.0613,-1.078,-1.074,-1.0613,-1.0787,-1.0734,-1.0593,0.0,0.0,0.0,0.0,0.0,0.0,0.0,0.0,-1.5469,0.0,-1.4823,-1.4114,-1.3361,-1.4343,-1.4866,-1.4526,-1.4423,-1.4693,-1.543,-1.4156,-1.3294,-1.313,-1.313,-1.2757,-1.1958,-1.3416,0.0,0.0,0.0,0.0,0.0,0.0,0.0,0.0,0.0,0.0,0.0,0.0,0.0,-1.5234,-1.4026,-1.4033,0.0,0.0,-1.4277,-1.4521,-1.4104,-1.4455,-1.4902,-1.3447,-1.278,0.0,0.0,0.0,0.0,0.0,-1.0106,-1.0321,-1.0707,-1.0788,-1.0661,0.0,0.0,0.0,-1.1149,-1.195,-1.2774,0.0,0.0,0.0,0.0,0.0,0.0,0.0,0.0,0.0,0.0,0.0,0.0,0.0,0.0,0.0,0.0,0.0,-0.9975,-0.8877,-0.8804,-0.8182,-0.6804,-0.6036,-0.53,-0.4625,-0.4546,-0.4491,-0.4491,-0.4491,-0.4559,-0.4663,-0.4556,-0.4634,-0.4894,-0.6371,-0.7099,-0.7307,-0.8904,-0.9606,-0.9653,-0.9913,-1.0214,-1.0546,-1.0579,-1.0593,-1.0593,-1.0593,-1.0593,-1.0593,-1.459,0.0,0.0,0.0,0.0,0.0,0.0,0.0,-1.584,-1.5459,-1.5594,-1.5557,-1.5061,-1.5514,-1.5948,-1.6196,-1.5929,-1.5807,-1.5968,-1.5686,-1.5042,-1.4013,-1.3974,-1.3575,-1.2787,-1.3696,0.0,0.0,0.0,0.0,0.0,0.0,0.0,0.0,0.0,0.0,0.0,0.0,0.0,-1.4853,-1.4231,0.0,-1.4182,-1.3773,-1.3477,-1.3267,-1.3179,-1.3232,-1.3404,-1.3379,-1.3138,-1.2798,0.0,0.0,0.0,-1.1112,0.0,0.0,0.0,0.0,0.0,0.0,0.0,0.0,-1.2378,-1.2246,-1.1996,0.0,0.0,0.0,0.0,0.0,0.0,0.0,0.0,0.0,0.0,0.0,0.0,0.0,0.0,0.0,0.0,0.0,-0.9627,-0.8864,-0.8804,-0.8427,-0.7536,-0.6772,-0.6068,-0.5324,-0.4787,-0.4491,-0.4491,-0.4491,-0.4505,-0.4535,-0.4505,-0.4522,-0.4636,-0.6037,-0.6701,-0.6824,-0.8311,-0.9084,-0.9304,-0.9357,-0.969,-1.0227,-1.0499,-1.0593,-1.0593,-1.0593,-1.0593,-1.0593,-1.4387,0.0,0.0,0.0,0.0,0.0,0.0,0.0,-1.6095,-1.6034,-1.6455,-1.6583,-1.616,-1.6487,-1.6728,-1.6697,-1.6523,-1.6299,-1.6105,-1.6095,-1.5529,-1.4252,-1.4569,-1.4421,-1.3606,-1.4392,-1.4805,0.0,0.0,0.0,0.0,0.0,0.0,0.0,0.0,0.0,0.0,0.0,-1.459,-1.4727,-1.4082,0.0,-1.3753,-1.335,-1.3091,-1.2905,-1.2905,-1.2905,-1.3003,-1.3613,-1.3545,0.0,0.0,-1.2158,-1.1834,0.0,-1.1353,-1.1172,0.0,0.0,0.0,-1.1823,0.0,0.0,0.0,-1.1832,-1.1789,0.0,0.0,0.0,0.0,0.0,0.0,0.0,0.0,0.0,0.0,0.0,0.0,0.0,0.0,0.0,0.0,0.0,-0.9159,-0.8831,-0.8804,-0.848,-0.775,-0.6993,-0.6258,-0.5515,-0.4842,-0.4491,-0.4491,-0.4491,-0.4491,-0.4491,-0.4491,-0.4491,-0.4546,-0.5959,-0.6588,-0.6669,-0.8156,-0.8865,-0.9004,-0.9151,-0.9471,-0.9913,-1.0097,-1.0151,-1.0171,-1.0318,-1.0341,-1.0361,-1.4085,0.0,0.0,0.0,0.0,0.0,0.0,0.0,-1.6133,-1.6638,-1.7109,-1.7305,-1.7087,-1.7266,-1.7373,-1.7311,-1.6785,-1.6434,-1.6476,-1.6153,-1.5464,-1.435,-1.5012,-1.5051,-1.4341,-1.5041,-1.541,0.0,0.0,0.0,0.0,0.0,0.0,0.0,0.0,0.0,0.0,0.0,0.0,-1.459,0.0,-1.3603,-1.3701,-1.3193,-1.3023,-1.3013,-1.2935,-1.2905,-1.3023,-1.3734,-1.3763,-1.3365,-1.2612,-1.2587,0.0,0.0,0.0,0.0,0.0,0.0,0.0,0.0,0.0,-1.2593,0.0,0.0,0.0,0.0,0.0,0.0,0.0,0.0,0.0,0.0,0.0,0.0,0.0,0.0,0.0,0.0,0.0,0.0,0.0,0.0,-0.8724,-0.8724,-0.8724,-0.8482,-0.7937,-0.7208,-0.6475,-0.5733,-0.5058,-0.4625,-0.4491,-0.4491,-0.4491,-0.4491,-0.4491,-0.4491,-0.4546,-0.5959,-0.6588,-0.6669,-0.8156,-0.8804,-0.8824,-0.9031,-0.9271,-0.9526,-0.9668,-0.9749,-0.9793,-1.0027,-1.0083,-1.016,-1.4036,-1.4182,0.0,0.0,0.0,0.0,0.0,0.0,0.0,-1.659,-1.7109,-1.7646,-1.8305,-1.7803,-1.7969,-1.9424,-1.7077,0.0,-1.7686,0.0,-1.5274,-1.4751,-1.5157,-1.5177,-1.4751,-1.5167,-1.541,-1.541,0.0,0.0,0.0,0.0,0.0,0.0,-1.4951,0.0,0.0,0.0,-1.4133,0.0,-1.3665,-1.3965,0.0,-1.374,-1.3437,-1.3389,-1.3042,-1.2905,-1.2983,0.0,-1.3545,-1.3607,0.0,-1.3583,-1.273,-1.358,0.0,0.0,0.0,0.0,0.0,0.0,-1.2847,0.0,0.0,0.0,0.0,0.0,0.0,0.0,0.0,0.0,0.0,0.0,0.0,0.0,0.0,0.0,0.0,0.0,0.0,0.0,0.0,0.0,0.0,-0.8449,-0.8449,-0.8512,-0.8659,-0.7963,-0.7235,-0.6507,-0.5764,-0.5109,-0.4519,-0.4491,-0.4491,-0.4491,-0.4491,-0.4491,-0.4546,-0.5959,-0.6588,-0.6669,-0.8156,-0.8804,-0.8811,-0.8844,-0.8878,-0.8958,-0.9479,-0.984,-1.0067,-1.0077,-1.0083,-1.016,-1.3665,-1.3938,-1.4299,0.0,0.0,0.0,0.0,0.0,0.0,-1.6687,-1.7506,-1.834,0.0,0.0,0.0,-1.9824,0.0,-1.7457,0.0,0.0,-1.583,-1.5918,-1.5586,-1.5449,-1.5557,-1.5449,-1.541,-1.541,-1.541,0.0,0.0,0.0,0.0,0.0,-1.4455,0.0,-1.3955,0.0,-1.4104,0.0,0.0,0.0,0.0,-1.3564,-1.3145,-1.3125,-1.2964,-1.2905,-1.2935,0.0,-1.3311,0.0,0.0,0.0,0.0,0.0,0.0,0.0,0.0,0.0,0.0,0.0,0.0,0.0,-1.2369,0.0,-1.1715,0.0,0.0,0.0,0.0,0.0,0.0,0.0,0.0,0.0,0.0,0.0,0.0,0.0,0.0,0.0,0.0,0.0,0.0,0.0,0.0,-0.8529,-0.8791,-0.8103,-0.7369,-0.6615,-0.5896,-0.5191,-0.4519,-0.4491,-0.4491,-0.4491,-0.4491,-0.4708,-0.5113,-0.6122,-0.6831,-0.7289,-0.8342,-0.8804,-0.8804,-0.8804,-0.8884,-0.9038,-0.9145,-0.9245,-0.9379,-0.9517,-0.9577,-0.9644,-1.3428,-1.3662,-1.3965,0.0,0.0,0.0,0.0,0.0,0.0,0.0,0.0,0.0,-1.9385,-1.9355,0.0,0.0,-1.9723,-1.8834,0.0,0.0,-1.6466,0.0,0.0,0.0,0.0,-1.5576,-1.5527,-1.541,0.0,0.0,0.0,0.0,0.0,0.0,0.0,-1.3773,-1.3252,0.0,-1.3831,-1.3958,-1.418,-1.4294,-1.4197,-1.3359,-1.3013,-1.2905,-1.2905,-1.2905,-1.2925,-1.3042,-1.3262,0.0,-1.3281,0.0,0.0,0.0,0.0,0.0,-1.2905,0.0,0.0,0.0,0.0,0.0,0.0,0.0,0.0,0.0,0.0,0.0,0.0,0.0,0.0,0.0,0.0,0.0,0.0,0.0,0.0,0.0,0.0,0.0,0.0,0.0,0.0,0.0,-0.8328,0.0,-0.8791,-0.8295,-0.7563,-0.6642,-0.6091,-0.5382,-0.4519,-0.4491,-0.4491,-0.4491,-0.4677,-0.503,-0.5538,-0.647,-0.7182,-0.775,-0.848,-0.8804,-0.8804,-0.8804,-0.8904,-0.9071,-0.8865,-0.8804,-0.8844,-0.9104,-0.9264,-0.9404,-1.3428,-1.3193,-1.3184,0.0,0.0,0.0,0.0,0.0,0.0,0.0,0.0,0.0,0.0,0.0,0.0,0.0,0.0,-1.9843,-2.0744,0.0,-1.6948,0.0,0.0,-1.5878,0.0,0.0,-1.587,-1.541,0.0,0.0,0.0,0.0,0.0,0.0,0.0,-1.4094,-1.4016,-1.3262,-1.3154,-1.3496,-1.3096,-1.2964,-1.3013,0.0,-1.3232,-1.2905,-1.2905,0.0,0.0,-1.335,-1.3496,0.0,0.0,0.0,0.0,0.0,0.0,0.0,0.0,0.0,0.0,-1.2905,0.0,0.0,0.0,0.0,-1.2666,0.0,0.0,0.0,0.0,0.0,-1.1195,-0.9642,0.0,0.0,0.0,0.0,0.0,0.0,0.0,0.0,0.0,0.0,0.0,0.0,-0.811,0.0,-0.8778,-0.8785,-0.8103,-0.6642,-0.6588,-0.5909,-0.4519,-0.4491,-0.4491,-0.4519,-0.5164,-0.5487,-0.5542,-0.7015,-0.767,-0.775,-0.848,-0.8804,-0.8804,-0.8804,-0.8811,-0.8824,-0.8811,-0.8804,-0.8844,-0.9104,-0.9391,-0.9713,-1.3535,-1.3588,-1.3896,0.0,0.0,0.0,0.0,-1.6699,0.0,0.0,0.0,0.0,0.0,-2.2167,-2.293,0.0,0.0,-2.2402,-2.2723,-2.0429,0.0,0.0,0.0,-1.6862,0.0,0.0,0.0,0.0,0.0,0.0,0.0,0.0,0.0,0.0,0.0,-1.3564,0.0,0.0,0.0,0.0,0.0,-1.3301,-1.3281,0.0,0.0,-1.2905,-1.2905,-1.2905,0.0,-1.3071,-1.3281,-1.3486,-1.335,-1.3398,-1.3447,-1.3174,-1.3023,0.0,0.0,0.0,-1.2905,-1.2905,0.0,0.0,0.0,0.0,0.0,0.0,0.0,0.0,0.0,0.0,-1.0153,-0.9174,-0.9296,-0.9226,0.0,0.0,0.0,0.0,0.0,0.0,0.0,0.0,0.0,-0.7779,-0.7705,-0.7906,0.0,-0.8524,-0.8158,-0.7369,-0.6858,-0.615,-0.5164,-0.4732,-0.4732,-0.5164,-0.5406,-0.6005,-0.6988,-0.7477,-0.7969,-0.8454,-0.8699,-0.8804,-0.8804,-0.8804,-0.8804,-0.8804,-0.8804,-0.8804,-0.8818,-0.8891,-0.9111,-0.9404,-1.4008,-1.4026,0.0,0.0,0.0,0.0,0.0,0.0,0.0,0.0,-1.9619,0.0,-2.3247,0.0,-2.4338,0.0,-2.5616,-2.4805,-2.4335,-2.2558,0.0,-2.0234,-1.888,0.0,0.0,0.0,0.0,0.0,0.0,-1.5566,0.0,0.0,0.0,0.0,0.0,-1.3496,-1.3125,0.0,-1.3418,0.0,0.0,-1.3281,0.0,0.0,-1.2993,0.0,0.0,-1.2905,-1.2905,-1.2905,-1.3066,-1.3242,-1.2993,-1.3066,-1.3232,-1.2983,-1.2905,-1.2905,-1.2905,-1.2905,0.0,0.0,-1.2905,0.0,-1.2295,0.0,0.0,0.0,0.0,0.0,0.0,0.0,-0.9935,-0.9263,-0.93,-0.917,0.0,-0.8402,0.0,0.0,0.0,0.0,0.0,0.0,-0.7348,-0.7785,-0.7712,-0.7919,0.0,0.0,-0.8294,-0.7717,-0.7235,-0.6637,-0.59,-0.5469,-0.5469,-0.59,-0.6167,-0.6767,-0.7696,-0.7969,-0.8348,-0.8804,-0.8804,-0.8804,-0.8804,-0.8804,-0.8804,-0.8804,-0.8804,-0.8804,-0.8804,-0.8804,-0.8964,-0.9271,-1.4765,0.0,0.0,0.0,-1.4874,0.0,0.0,0.0,-1.8773,0.0,-2.0136,-2.141,-2.3421,-2.3646,-2.4861,-2.7885,-2.7651,-2.6796,-2.5574,-2.5276,0.0,0.0,-1.9595,-1.8478,-1.6229,0.0,0.0,0.0,0.0,0.0,0.0,0.0,0.0,0.0,-1.4299,0.0,-1.3506,-1.3506,-1.3262,-1.2905,-1.2905,-1.2915,-1.2935,-1.2915,0.0,-1.3447,-1.3027,-1.2905,-1.2905,-1.2905,-1.2905,-1.2905,-1.2905,-1.2905,-1.2905,-1.2905,-1.2905,-1.2905,-1.2905,-1.2905,-1.2905,-1.2905,0.0,0.0,0.0,0.0,-1.2856,0.0,0.0,0.0,0.0,0.0,0.0,-0.9865,-0.9534,-0.9143,-0.8516,0.0,0.0,0.0,0.0,0.0,0.0,-0.7669,-0.7752,-0.8335,-0.809,-0.8152,0.0,0.0,0.0,-0.7777,-0.7723,-0.7369,-0.6669,-0.6615,-0.6615,-0.6669,-0.7369,-0.7723,-0.7777,-0.848,-0.8804,-0.8804,-0.8804,-0.8804,-0.8804,-0.8804,-0.8804,-0.8804,-0.8804,-0.8804,-0.8804,-0.8824,-0.8964,-0.9271,-1.4471,-1.4689,-1.5186,0.0,-1.5782,-1.6222,0.0,0.0,0.0,0.0,-2.1045,-2.2615,-2.542,-2.5724,-2.6531,-2.8542,-2.82,0.0,0.0,0.0,0.0,-2.288,-2.0896,-1.9041,-1.74,-1.693,0.0,-1.4813,0.0,0.0,-1.54,0.0,0.0,0.0,0.0,0.0,-1.3506,-1.3506,-1.3262,-1.2905,-1.2905,-1.3066,0.0,0.0,-1.3145,-1.3447,-1.3027,-1.2905,-1.2905,-1.2905,-1.2905,-1.2905,-1.2905,-1.2905,-1.2905,-1.2905,-1.2905,-1.2905,-1.2905,-1.2905,-1.2905,-1.2905,-1.2905,-1.2774,0.0,0.0,0.0,0.0,0.0,0.0,0.0,0.0,0.0,-0.9237,-0.8999,-0.8892,0.0,0.0,0.0,-0.8798,0.0,0.0,0.0,-0.7989,-0.7852,-0.8012,-0.7952,0.0,0.0,0.0,0.0,-0.8527,-0.799,-0.761,-0.7429,-0.6885,-0.6885,-0.7429,-0.761,-0.799,-0.854,-0.8725,-0.8804,-0.8804,-0.8804,-0.8804,-0.8804,-0.8804,-0.8804,-0.8804,-0.8804,-0.8804,-0.8831,-0.9024,-0.9011,-0.8944,-1.5096,0.0,0.0,-1.6836,0.0,0.0,-1.7919,0.0,0.0,-2.0507,-2.1494,0.0,-2.5639,-2.6255,-2.7134,-2.8774,-2.8599,0.0,-2.7027,0.0,0.0,-2.32,-2.1103,-1.9062,-1.7104,-1.6462,0.0,-1.4502,0.0,0.0,-1.54,0.0,0.0,0.0,0.0,-1.3977,-1.3743,-1.3558,-1.3369,-1.3135,-1.2983,0.0,0.0,-1.2993,-1.3027,-1.3203,-1.2993,-1.2905,-1.2905,-1.2905,-1.2905,-1.2905,-1.2905,-1.2905,-1.2905,-1.2905,-1.2905,-1.2905,-1.2905,-1.2905,-1.2905,-1.2905,-1.2905,-1.2798,-1.2369,-1.227,-1.2187,0.0,0.0,0.0,0.0,0.0,0.0,-0.876,0.0,0.0,0.0,0.0,0.0,0.0,0.0,0.0,0.0,0.0,0.0,0.0,0.0,0.0,0.0,0.0,0.0,0.0,-0.8401,-0.8182,-0.8182,-0.7777,-0.7777,-0.8182,-0.8182,-0.8401,-0.8804,-0.8804,-0.8804,-0.8804,-0.8804,-0.8804,-0.8804,-0.8804,-0.8804,-0.8804,-0.8804,-0.8804,-0.8824,-0.8964,-0.8918,-0.8851,-1.6337,0.0,0.0,0.0,0.0,0.0,0.0,-2.0287,0.0,-2.1181,0.0,-2.367,-2.5408,-2.6194,-2.719,-2.8675,0.0,-2.8034,-2.6487,-2.6323,-2.5033,-2.2271,-2.0903,-1.9016,-1.6417,-1.582,-1.5103,0.0,0.0,0.0,0.0,0.0,0.0,0.0,0.0,0.0,0.0,-1.3578,-1.3428,0.0,-1.3027,-1.2905,-1.2905,-1.2905,-1.2905,-1.2905,-1.2905,-1.2905,-1.2905,-1.2905,-1.2905,-1.2905,-1.2905,-1.2905,-1.2905,-1.2905,-1.2905,-1.2905,-1.2905,-1.2905,-1.2905,-1.2905,-1.2905,-1.2881,-1.2774,-1.2774,-1.2559,-1.1823,-1.1216,0.0,0.0,0.0,0.0,0.0,0.0,0.0,0.0,0.0,0.0,0.0,0.0,0.0,0.0,0.0,0.0,0.0,0.0,0.0,0.0,0.0,0.0,0.0,-0.8804,0.0,-0.8864,0.0,-0.8824,-0.8864,-0.8824,-0.8804,-0.8804,-0.8699,-0.8646,-0.8646,-0.8646,-0.8646,-0.8672,-0.8752,-0.8804,-0.8804,-0.8804,-0.8804,-0.8804,-0.8804,-0.8804,-0.8844,0.0,0.0,0.0,0.0,0.0,-2.2878,-2.2233,-2.3086,-2.3951,-2.4343,-2.5205,-2.6274,-2.7465,-2.7321,-2.7445,-2.8187,-2.7833,0.0,0.0,0.0,0.0,-2.2964,-2.1596,-1.9882,-1.7784,-1.6786,-1.5849,0.0,0.0,0.0,0.0,0.0,0.0,0.0,0.0,0.0,-1.3584,-1.3174,0.0,-1.3013,-1.2935,-1.2905,-1.2905,-1.2905,-1.2905,-1.2905,-1.2905,-1.2905,-1.2905,-1.2905,-1.2905,-1.2905,-1.2905,-1.2905,-1.2905,-1.2905,-1.2905,-1.2905,-1.2905,-1.2905,-1.2905,-1.2905,-1.2905,-1.2749,-1.2129,-1.1996,-1.1798,-1.1116,-1.0889,-1.0593,-0.9917,0.0,0.0,0.0,0.0,0.0,0.0,0.0,0.0,0.0,0.0,0.0,0.0,0.0,0.0,0.0,0.0,0.0,0.0,0.0,0.0,0.0,0.0,0.0,0.0,0.0,0.0,-0.9131,-0.8898,-0.8804,-0.8785,-0.8182,-0.7883,-0.7883,-0.7883,-0.7883,-0.7937,-0.8533,-0.8804,-0.8804,-0.8804,-0.8804,-0.8804,-0.8804,-0.8804,-0.8818,0.0,0.0,0.0,0.0,0.0,0.0,0.0,-2.6066,0.0,-2.5399,-2.5498,-2.6046,-2.6919,-2.6957,-2.7107,-2.7648,-2.7168,-2.6389,-2.5272,-2.4374,-2.3256,-2.1771,-2.0485,0.0,-1.7157,-1.601,-1.5311,-1.5107,0.0,0.0,-1.4785,0.0,0.0,0.0,0.0,-1.3862,0.0,0.0,0.0,-1.4125,-1.3907,-1.3658,-1.3372,-1.3372,-1.3176,-1.2905,-1.2905,-1.2905,-1.2905,-1.2905,-1.2905,-1.2905,-1.2905,-1.2905,-1.2905,-1.2905,-1.2905,-1.2905,-1.2905,-1.2905,-1.2905,-1.2905,-1.2905,-1.2715,-1.1972,-1.1789,-1.1516,-1.0491,-1.0287,-1.009,-0.9413,-0.9008,0.0,0.0,0.0,0.0,0.0,0.0,0.0,0.0,0.0,0.0,0.0,0.0,0.0,0.0,0.0,0.0,0.0,0.0,0.0,0.0,0.0,0.0,0.0,0.0,0.0,-0.8984,-0.8465,-0.8235,-0.8209,-0.7857,-0.7696,-0.7723,-0.8103,-0.8262,-0.8295,-0.8646,-0.8804,-0.8804,-0.8804,-0.8804,-0.8804,-0.8804,-0.8804,-0.8804,0.0,-2.2232,0.0,0.0,-2.4788,0.0,-2.6164,-2.8112,-2.8691,-2.6147,-2.5831,-2.5972,-2.6408,-2.6563,-2.6809,-2.712,-2.6637,-2.5812,-2.4687,-2.3672,-2.2357,-2.0713,-1.9543,-1.8213,-1.6662,-1.5315,-1.4814,0.0,0.0,0.0,0.0,0.0,0.0,0.0,0.0,0.0,0.0,0.0,-1.4742,-1.5129,-1.4692,-1.4213,-1.3802,-1.3661,-1.331,-1.2905,-1.2905,-1.2905,-1.2905,-1.2905,-1.2905,-1.2905,-1.2905,-1.2905,-1.2905,-1.2905,-1.2905,-1.2905,-1.2905,-1.2905,-1.2905,-1.2905,-1.2905,-1.2715,-1.1972,-1.169,-1.1241,-1.0038,-0.9692,-0.9439,-0.891,-0.8804,0.0,0.0,0.0,0.0,0.0,0.0,0.0,0.0,0.0,0.0,0.0,0.0,0.0,0.0,0.0,0.0,0.0,0.0,0.0,0.0,0.0,0.0,-0.8898,0.0,-0.8838,0.0,-0.824,-0.7943,-0.7943,-0.7777,-0.7696,-0.7723,-0.8315,-0.856,-0.8566,-0.8401,-0.8427,-0.856,-0.856,-0.8672,-0.8804,-0.8804,-0.8804,-0.8804,0.0,0.0,0.0,0.0,0.0,0.0,0.0,-2.7938,-2.8712,-2.7915,-2.8226,-2.8363,-2.7938,-2.7512,-2.7059,-2.6625,-2.6047,-2.5222,-2.4155,-2.3459,-2.2577,-2.1447,-2.0321,-1.917,-1.8026,-1.6276,-1.5352,0.0,0.0,0.0,0.0,0.0,0.0,0.0,0.0,0.0,0.0,-1.4441,-1.4696,-1.4719,-1.4118,-1.3839,-1.3732,-1.319,-1.2954,-1.2905,-1.2905,-1.2905,-1.2905,-1.2905,-1.2905,-1.2905,-1.2905,-1.2905,-1.2905,-1.2905,-1.2905,-1.2905,-1.2905,-1.2905,-1.2905,-1.2905,-1.2905,-1.2715,-1.1972,-1.1341,-1.0695,-0.9961,-0.9309,-0.8883,-0.8804,-0.8804,-0.8804,0.0,0.0,0.0,0.0,0.0,0.0,0.0,0.0,0.0,0.0,0.0,0.0,0.0,0.0,0.0,0.0,0.0,0.0,0.0,0.0,-0.8904,-0.9171,-0.8911,0.0,-0.9171,-0.8851,-0.8699,-0.8672,-0.7996,-0.7696,-0.7696,-0.7777,-0.7803,-0.775,-0.7074,-0.7208,-0.7803,-0.7803,-0.8209,-0.8804,-0.8804,-0.8804,-0.8804,0.0,0.0,0.0,0.0,0.0,0.0,0.0,-2.7517,-2.762,-2.6716,-2.7092,-2.7369,-2.7178,-2.6339,-2.5711,-2.5498,-2.4958,-2.4305,-2.3496,-2.2619,-2.1794,-2.1056,-1.961,-1.8643,-1.8216,-1.6476,-1.5475,0.0,0.0,0.0,0.0,0.0,0.0,0.0,0.0,-1.468,-1.4903,-1.5141,-1.5444,-1.5722,-1.5118,-1.4664,-1.426,-1.3671,-1.3214,-1.2905,-1.2905,-1.2905,-1.2905,-1.2905,-1.2905,-1.2905,-1.2905,-1.2905,-1.2905,-1.2905,-1.2905,-1.2905,-1.2905,-1.2905,-1.2905,-1.2905,-1.2905,-1.2593,-1.1475,-1.099,-1.0491,-0.9413,-0.8982,-0.8804,-0.8804,-0.8804,-0.8804,0.0,0.0,0.0,0.0,0.0,0.0,0.0,0.0,0.0,0.0,0.0,0.0,0.0,0.0,0.0,0.0,0.0,0.0,-0.8798,0.0,-0.8864,-0.8951,-0.8864,-0.8864,-0.8951,-0.8399,-0.8129,-0.8129,-0.783,-0.7937,-0.8348,-0.7883,-0.7696,-0.767,-0.7375,-0.7423,-0.775,-0.8182,-0.8533,-0.8804,-0.8804,-0.8804,-0.8804,-2.5715,0.0,-2.6171,0.0,-2.6606,-2.6864,-2.7218,-2.7005,-2.6502,-2.5699,-2.572,-2.5833,-2.5996,-2.5285,-2.4725,-2.4594,-2.4067,-2.3502,-2.2895,-2.1694,-2.0815,-2.0453,-1.8832,0.0,-1.7965,-1.6416,-1.5541,-1.5391,-1.5224,0.0,0.0,0.0,0.0,0.0,-1.5021,-1.5336,-1.561,-1.5798,-1.6008,-1.6194,-1.5577,-1.496,-1.4376,-1.3766,-1.3262,-1.2905,-1.2905,-1.2905,-1.2905,-1.2905,-1.2905,-1.2905,-1.2905,-1.2905,-1.2905,-1.2905,-1.2905,-1.2905,-1.2905,-1.2905,-1.2905,-1.2905,-1.2905,-1.2593,-1.1375,-1.0939,-1.0415,-0.9087,-0.8804,-0.8804,-0.8804,-0.8804,-0.8804,0.0,0.0,0.0,0.0,0.0,0.0,0.0,-0.7696,-0.7396,-0.6669,0.0,0.0,0.0,0.0,0.0,0.0,0.0,0.0,0.0,0.0,0.0,0.0,0.0,-0.8804,-0.8804,-0.8262,-0.8023,-0.8023,-0.8023,-0.8315,-0.8752,-0.7777,-0.7369,-0.7369,-0.7149,-0.7176,-0.7456,-0.8182,-0.8619,-0.8804,-0.8804,-0.8804,-0.8804,-2.7168,-2.7268,-2.7444,-2.7996,-2.7645,-2.7268,-2.7281,-2.6339,-2.5611,-2.5598,-2.4682,-2.4243,-2.475,-2.48,-2.4607,-2.4054,-2.3446,-2.2882,-2.233,-2.0752,-1.9823,0.0,0.0,-1.741,-1.741,-1.6221,-1.5588,-1.5599,0.0,0.0,-1.4709,0.0,0.0,-1.5319,-1.5973,-1.6042,-1.5632,-1.6238,-1.6139,-1.5565,-1.4949,-1.4352,-1.3755,-1.3152,-1.2905,-1.2905,-1.2905,-1.2905,-1.2905,-1.2905,-1.2905,-1.2905,-1.2905,-1.2905,-1.2905,-1.2905,-1.2905,-1.2905,-1.2905,-1.2905,-1.2905,-1.2905,-1.2905,-1.2691,-1.1972,-1.1291,-1.0415,-0.9087,-0.8804,-0.8804,-0.8804,-0.8804,-0.8804,-0.8804,0.0,0.0,0.0,0.0,0.0,0.0,-0.7696,-0.7396,-0.6669,0.0,0.0,0.0,0.0,0.0,0.0,0.0,0.0,-0.8804,-0.8804,0.0,-0.8804,-0.8804,-0.8804,-0.8804,-0.8778,-0.8778,-0.8778,-0.8778,-0.8778,-0.8725,-0.7262,-0.6615,-0.6561,-0.5814,-0.5955,-0.6696,-0.7423,-0.8156,-0.8804,-0.8804,-0.8804,-0.8804,-2.6101,-2.6138,-2.6076,-2.5866,-2.5724,-2.5611,-2.5611,-2.4983,-2.4506,-2.4506,-2.3866,-2.3446,-2.3622,-2.3308,-2.3037,0.0,-2.2334,-2.1782,0.0,-2.0313,-1.9648,-1.9259,-1.8053,-1.741,-1.741,-1.6622,-1.6008,-1.561,0.0,0.0,0.0,-1.5703,-1.58,-1.5543,-1.6153,-1.6345,-1.6238,-1.6423,-1.6402,-1.6129,-1.5107,-1.4583,-1.4306,-1.3296,-1.2905,-1.2905,-1.2905,-1.2905,-1.2905,-1.2905,-1.2905,-1.2905,-1.2905,-1.2905,-1.2905,-1.2905,-1.2905,-1.2905,-1.2905,-1.2905,-1.2905,-1.2905,-1.2535,-1.1981,-1.1266,-1.0244,-0.9309,-0.8883,-0.8804,-0.8804,-0.8804,-0.8804,-0.8804,-0.8804,0.0,0.0,0.0,0.0,0.0,0.0,-0.783,-0.7771,0.0,-0.6772,0.0,0.0,0.0,0.0,0.0,0.0,0.0,0.0,-0.8804,0.0,-0.8804,-0.8804,-0.8804,-0.8804,-0.8804,-0.8804,-0.8804,-0.8804,-0.8804,-0.8752,-0.7777,-0.7348,-0.7343,-0.7095,-0.7149,-0.7429,-0.8156,-0.8593,-0.8804,-0.8804,-0.8804,-0.8804,-2.5561,-2.5435,-2.5197,-2.485,-2.4612,-2.4582,-2.4763,-2.4136,-2.3753,-2.3966,-2.3283,-2.2794,-2.2794,-2.2146,0.0,-2.2243,-2.1619,-2.0968,-2.0402,-1.9623,-1.897,-1.8406,-1.7539,-1.7049,-1.7049,0.0,0.0,-1.593,-1.6227,-1.6157,-1.5753,-1.6179,-1.6215,-1.5952,-1.6324,-1.65,-1.65,-1.65,-1.625,-1.5766,-1.4994,-1.4433,-1.3931,-1.3176,-1.2905,-1.2905,-1.2905,-1.2905,-1.2905,-1.2905,-1.2905,-1.2905,-1.2905,-1.2905,-1.2905,-1.2905,-1.2905,-1.2905,-1.2905,-1.2905,-1.2822,-1.2559,-1.2138,-1.1566,-1.0636,-0.9588,-0.8804,-0.8804,-0.8804,-0.8804,-0.8804,-0.8804,-0.8804,-0.8804,0.0,-0.8804,0.0,0.0,0.0,0.0,0.0,0.0,0.0,-0.7069,0.0,0.0,0.0,0.0,0.0,0.0,0.0,-0.8804,-0.8804,0.0,-0.8804,-0.8804,-0.8804,-0.8804,-0.8804,-0.8804,-0.8804,-0.8804,-0.8804,-0.8752,-0.8023,-0.7696,-0.7696,-0.7696,-0.7696,-0.7777,-0.8507,-0.8804,-0.8804,-0.8804,-0.8804,-0.8804,-2.5398,-2.5096,0.0,0.0,-2.428,0.0,-2.46,-2.3785,-2.3296,-2.3866,-2.3025,-2.2347,-2.2293,-2.1383,-2.1144,-2.2121,0.0,0.0,0.0,-1.8781,-1.7953,-1.7423,-1.6823,0.0,-1.65,-1.65,-1.65,-1.65,-1.65,-1.65,-1.65,-1.65,-1.65,-1.65,-1.65,-1.65,-1.65,-1.6457,-1.5788,-1.4755,-1.4675,-1.3954,-1.2968,-1.2929,-1.2905,-1.2905,-1.2905,-1.2905,-1.2905,-1.2905,-1.2905,-1.2905,-1.2905,-1.2905,-1.2905,-1.2905,-1.2905,-1.2905,-1.2905,-1.2905,-1.2715,-1.1972,-1.174,-1.1316,-1.0038,-0.9237,-0.8804,-0.8804,-0.8804,-0.8804,-0.8804,-0.8804,-0.8804,-0.8804,-0.8804,-0.8804,-0.8804,0.0,0.0,0.0,0.0,0.0,0.0,-0.7423,-0.6939,0.0,0.0,0.0,0.0,0.0,0.0,-0.8804,-0.8804,-0.8804,-0.8804,-0.8804,-0.8804,-0.8804,-0.8804,-0.8804,-0.8804,-0.8804,-0.8804,-0.8752,-0.8076,-0.7777,-0.7777,-0.7777,-0.7777,-0.7857,-0.8533,-0.8804,-0.8804,-0.8804,-0.8804,-0.8804,0.0,0.0,-2.4054,-2.3584,-2.3396,-2.3358,-2.3484,-2.3271,-2.3158,-2.3296,-2.3083,-2.2744,-2.233,-2.1707,-2.1257,-2.1094,-2.044,-1.9773,-1.9221,-1.8581,-1.7953,-1.7423,-1.6823,-1.65,-1.65,-1.65,-1.65,-1.65,-1.65,-1.65,-1.65,-1.65,-1.65,-1.65,-1.65,-1.65,-1.6466,-1.6008,-1.5666,-1.532,-1.4388,-1.3849,-1.3552,-1.3079,-1.2905,-1.2905,-1.2905,-1.2905,-1.2905,-1.2905,-1.2905,-1.2905,-1.2905,-1.2905,-1.2905,-1.2905,-1.2905,-1.2905,-1.2905,-1.2905,-1.2715,-1.1972,-1.104,-1.0064,-0.9237,-0.891,-0.8804,-0.8804,-0.8804,-0.8804,-0.8804,-0.8804,-0.8804,-0.8804,-0.8804,-0.8804,-0.8804,0.0,0.0,0.0,-0.8454,-0.8586,-0.8017,-0.7128,-0.7128,0.0,0.0,0.0,0.0,0.0,-0.8804,-0.8804,-0.8804,-0.8804,-0.8804,-0.8804,-0.8804,-0.8804,-0.8804,-0.8804,-0.8804,-0.8804,-0.8804,-0.8778,-0.8619,-0.8533,-0.8533,-0.8533,-0.8533,-0.8566,-0.8725,-0.8804,-0.8804,-0.8804,-0.8804,-0.8804,-2.4004,-2.3791,-2.3471,-2.3158,-2.3108,-2.3108,-2.3108,-2.3108,-2.3108,-2.3108,-2.2669,-2.2272,-2.197,-2.1204,-2.0602,-2.0314,-1.9761,-1.9196,-1.8657,-1.8141,-1.7576,-1.7011,-1.6663,-1.65,-1.65,-1.65,-1.65,-1.65,-1.65,-1.65,-1.65,-1.65,-1.65,-1.65,-1.65,-1.65,-1.6457,-1.5864,-1.5432,-1.5096,-1.4167,-1.3637,-1.3348,-1.3017,-1.2905,-1.2905,-1.2905,-1.2905,-1.2905,-1.2905,-1.2905,-1.2905,-1.2905,-1.2905,-1.2905,-1.2905,-1.2905,-1.2832,-1.2476,-1.2632,-1.2642,-1.16,-1.0338,-0.9237,-0.8883,-0.8804,-0.8804,-0.8804,-0.8804,-0.8804,-0.8804,-0.8804,-0.8804,-0.8804,-0.8804,-0.8804,-0.8804,-0.8804,0.0,-0.8235,-0.8566,-0.8646,-0.8235,-0.753,-0.7423,-0.8235,0.0,0.0,-0.8262,-0.8619,-0.8804,-0.8804,-0.8804,-0.8804,-0.8804,-0.8804,-0.8804,-0.8804,-0.8804,-0.8804,-0.8804,-0.8804,-0.8804,-0.8804,-0.8804,-0.8804,-0.8804,-0.8804,-0.8804,-0.8804,-0.8804,-0.8804,-0.8804,-0.8804,-0.8804,-0.8804,-2.3766,-2.3446,-2.3108,-2.3108,-2.3108,-2.3108,-2.3108,-2.3108,-2.3108,-2.3108,-2.2246,-2.1581,-2.1493,-2.0552,-1.9899,-1.9811,-1.9309,-1.877,-1.8242,-1.7765,-1.7212,-1.6525,-1.65,-1.65,-1.65,-1.65,-1.65,-1.65,-1.65,-1.65,-1.65,-1.65,-1.65,-1.65,-1.65,-1.65,-1.6445,-1.5754,-1.5163,-1.4629,-1.3944,-1.3348,-1.2905,-1.2905,-1.2905,-1.2905,-1.2905,-1.2905,-1.2905,-1.2905,-1.2905,-1.2905,-1.2905,-1.2905,-1.2905,-1.2905,-1.2905,-1.2774,-1.2138,-1.227,-1.2255,-1.0973,-0.971,-0.8804,-0.8804,-0.8804,-0.8804,-0.8804,-0.8804,-0.8804,-0.8804,-0.8804,-0.8804,-0.8804,-0.8804,-0.8804,-0.8804,0.0,-0.8752,-0.8646,-0.8646,-0.8646,-0.8646,-0.7969,-0.7616,-0.7857,-0.7777,0.0,0.0,-0.8454,-0.8804,-0.8804,-0.8804,-0.8804,-0.8804,-0.8804,-0.8804,-0.8804,-0.8804,-0.8804,-0.8804,-0.8804,-0.8804,-0.8804,-0.8804,-0.8804,-0.8804,-0.8804,-0.8804,-0.8804,-0.8804,-0.8804,-0.8804,-0.8804,-0.8804,-0.8804,-2.3221,-2.3158,-2.3108,-2.3108,-2.3108,-2.3108,-2.3108,-2.3108,-2.3108,-2.3108,-2.2556,-2.2008,-2.1543,-2.0943,-2.0365,-1.9849,-1.9309,-1.877,-1.8242,-1.8129,-1.7601,-1.6538,-1.65,-1.65,-1.65,-1.65,-1.65,-1.65,-1.65,-1.65,-1.65,-1.65,-1.65,-1.65,-1.65,-1.65,-1.6423,-1.531,-1.4789,-1.4606,-1.3501,-1.2968,-1.2905,-1.2905,-1.2905,-1.2905,-1.2905,-1.2905,-1.2905,-1.2905,-1.2905,-1.2905,-1.2905,-1.2905,-1.2905,-1.2905,-1.2905,-1.2881,-1.2774,-1.194,-1.0948,-1.0141,-0.9361,-0.8804,-0.8804,-0.8804,-0.8804,-0.8804,-0.8804,-0.8804,-0.8804,-0.8804,-0.8804,-0.8804,-0.8804,-0.8804,0.0,0.0,-0.856,-0.7937,-0.7883,-0.7883,-0.7883,-0.7208,-0.7289,-0.8533,-0.8049,-0.7969,-0.8593,-0.8725,-0.8804,-0.8804,-0.8804,-0.8804,-0.8804,-0.8804,-0.8804,-0.8804,-0.8804,-0.8804,-0.8804,-0.8804,-0.8804,-0.8804,-0.8804,-0.8804,-0.8804,-0.8804,-0.8804,-0.8804,-0.8804,-0.8804,-0.8804,-0.8804,-0.8804,-0.8804,-2.3108,-2.3108,-2.3108,-2.3108,-2.3108,-2.3007,-2.2706,-2.2656,-2.2556,-2.2284,-2.1769,-2.1358,-2.1106,-2.0566,-2.0087,-1.9823,-1.9309,-1.877,-1.8242,-1.7928,-1.7388,-1.6538,-1.65,-1.65,-1.65,-1.65,-1.65,-1.65,-1.65,-1.65,-1.6488,-1.6173,-1.603,-1.6008,-1.5678,-1.5522,-1.5466,-1.4583,-1.4213,-1.4143,-1.3248,-1.2905,-1.2905,-1.2905,-1.2905,-1.2905,-1.2905,-1.2905,-1.2905,-1.2905,-1.2905,-1.2905,-1.2905,-1.2905,-1.2905,-1.2905,-1.2363,-1.1841,-1.2212,-1.1049,-0.9736,-0.9788,-0.9283,-0.8804,-0.8804,-0.8804,-0.8804,-0.8804,-0.8804,-0.8804,-0.8804,-0.8804,-0.8804,-0.8804,-0.8804,0.0,0.0,-0.8804,-0.8533,-0.7777,-0.7696,-0.753,-0.7155,-0.7155,-0.7477,-0.8156,-0.8262,-0.8427,-0.8778,-0.8804,-0.8804,-0.8804,-0.8804,-0.8804,-0.8804,-0.8804,-0.8804,-0.8804,-0.8804,-0.8804,-0.8804,-0.8804,-0.8804,-0.8804,-0.8804,-0.8804,-0.8804,-0.8804,-0.8804,-0.8804,-0.8804,-0.8804,-0.8804,-0.8804,-0.8804,-0.8804,-2.3108,-2.3108,-2.3058,-2.2932,-2.302,-2.2882,-2.2221,-2.2234,-2.2121,-2.1556,-2.1031,-2.0691,-2.0691,-2.015,-1.9748,-1.9623,-1.9233,-1.8719,-1.8053,-1.7614,-1.7124,-1.6525,-1.65,-1.65,-1.65,-1.65,-1.65,-1.65,-1.65,-1.65,-1.65,-1.603,-1.582,-1.5798,-1.5332,-1.5107,-1.5062,-1.4329,-1.4003,-1.3933,-1.32,-1.2905,-1.2905,-1.2905,-1.2905,-1.2905,-1.2905,-1.2905,-1.2905,-1.2905,-1.2905,-1.2905,-1.2905,-1.2774,-1.2632,-1.2632,-1.1667,-1.0686,-1.1191,-1.0218,-0.9106,-0.9484,-0.9185,-0.8804,-0.8804,-0.8804,-0.8804,-0.8804,-0.8804,-0.8804,-0.8804,-0.8804,-0.8804,-0.8804,0.0,0.0,0.0,-0.8672,-0.8304,-0.7542,-0.7339,-0.7025,-0.6399,-0.6853,-0.7337,-0.767,-0.8209,-0.8619,-0.8778,-0.8804,-0.8804,-0.8804,-0.8804,-0.8804,-0.8804,-0.8804,-0.8804,-0.8804,-0.8804,-0.8804,-0.8804,-0.8804,-0.8804,-0.8804,-0.8804,-0.8804,-0.8804,-0.8804,-0.8804,-0.8804,-0.8804,-0.8804,-0.8804,-0.8804,-0.8804,-0.8804,-2.3108,-2.3108,-2.2945,-2.246,-2.2769,-2.2744,-2.1707,-2.1983,-2.2121,-2.1556,-2.1031,-2.0691,-2.0691,-2.015,-1.961,-1.9108,-1.902,-1.8556,-1.7536,-1.7423,-1.7124,-1.6525,-1.65,-1.65,-1.65,-1.65,-1.65,-1.65,-1.65,-1.65,-1.65,-1.6445,-1.6423,-1.6423,-1.638,-1.6358,-1.6293,-1.513,-1.4629,-1.4525,-1.3358,-1.2905,-1.2905,-1.2905,-1.2905,-1.2905,-1.2905,-1.2905,-1.2905,-1.2905,-1.2905,-1.2905,-1.2905,-1.2427,-1.1888,-1.1888,-1.0939,-0.9891,-0.9935,-0.984,-0.9588,-0.9008,-0.8831,-0.8804,-0.8804,-0.8804,-0.8804,-0.8804,-0.8804,-0.8804,-0.8804,-0.8804,-0.8804,-0.8804,0.0,0.0,-0.8804,-0.8306,-0.7644,-0.6771,-0.6235,-0.5849,-0.5614,-0.5624,-0.6222,-0.7584,-0.775,-0.8076,-0.8752,-0.8804,-0.8804,-0.8804,-0.8804,-0.8804,-0.8804,-0.8804,-0.8804,-0.8804,-0.8804,-0.8804,-0.8804,-0.8804,-0.8804,-0.8804,-0.8804,-0.8804,-0.8804,-0.8804,-0.8804,-0.8804,-0.8804,-0.8804,-0.8804,-0.8804,-0.8804,-0.8804,-2.3032,-2.3108,-2.2932,-2.238,-2.2456,-2.2246,-2.1169,-2.1182,-2.1091,-2.0514,-2.0263,-2.0125,-2.0125,-1.9936,-1.9723,-1.9497,-1.8882,-1.8342,-1.7915,-1.7237,-1.6748,-1.65,-1.65,-1.65,-1.65,-1.65,-1.65,-1.65,-1.65,-1.65,-1.65,-1.6129,-1.593,-1.593,-1.5545,-1.5389,-1.5332,-1.4491,-1.4143,-1.4084,-1.3248,-1.2905,-1.2905,-1.2905,-1.2905,-1.2905,-1.2905,-1.2905,-1.2832,-1.2369,-1.2212,-1.2163,-1.1733,-1.14,-1.1091,-1.0686,-1.0192,-0.9718,-0.9283,-0.9185,-0.9106,-0.8857,-0.8804,-0.8804,-0.8804,-0.8804,-0.8804,-0.8804,-0.8804,-0.8804,-0.8804,-0.8804,-0.8864,-0.9018,0.0,-0.8871,-0.9024,-0.8856,-0.8343,-0.7403,-0.689,-0.6492,-0.6223,-0.6373,-0.6928,-0.7936,-0.8593,-0.8981,-0.9058,-0.8878,-0.8865,-0.9044,-0.9044,-0.8958,-0.8804,-0.8804,-0.8804,-0.8804,-0.8804,-0.8804,-0.8804,-0.8804,-0.8804,-0.8804,-0.8804,-0.8804,-0.8804,-0.8804,-0.8804,-0.8804,-0.8804,-0.8804,-0.8804,-0.8804,-0.8804,-0.8804,-2.2782,-2.2982,-2.2932,-2.238,-2.2309,-2.1945,-2.0855,-2.0691,-2.0478,-1.9874,-1.9798,-1.9798,-1.9798,-1.9798,-1.966,-1.9334,-1.8631,-1.8053,-1.7702,-1.6926,-1.65,-1.65,-1.65,-1.65,-1.65,-1.65,-1.65,-1.65,-1.65,-1.65,-1.65,-1.6073,-1.5886,-1.5864,-1.5444,-1.5265,-1.5197,-1.4422,-1.4073,-1.4003,-1.3224,-1.2905,-1.2905,-1.2905,-1.2905,-1.2905,-1.2905,-1.2905,-1.2798,-1.2055,-1.1789,-1.169,-1.1015,-1.0661,-1.0338,-0.9692,-0.9491,-0.9387,-0.8936,-0.8804,-0.8804,-0.8804,-0.8804,-0.8804,-0.8804,-0.8804,-0.8804,-0.8804,-0.8878,-0.8918,-0.8918,-0.8918,-0.9011,-0.9304,-0.9104,-0.9018,-0.9311,-0.919,-0.8767,-0.7942,-0.7448,-0.7043,-0.6796,-0.6969,-0.7433,-0.8251,-0.8949,-0.9356,-0.9364,-0.9192,-0.9172,-0.9344,-0.9351,-0.9257,-0.9085,-0.9078,-0.9038,-0.8918,-0.8918,-0.8918,-0.8911,-0.8851,-0.8804,-0.8804,-0.8804,-0.8804,-0.8804,-0.8804,-0.8804,-0.8804,-0.8804,-0.8804,-0.8804,-0.8804,-0.8804,-0.8804,-2.2297,-2.2719,-2.292,-2.2397,-2.2297,-2.1933,-2.0855,-2.0679,-2.0478,-1.9874,-1.9798,-1.9798,-1.9798,-1.9798,-1.9359,-1.8292,-1.8204,-1.7704,-1.6575,-1.65,-1.65,-1.65,-1.65,-1.65,-1.65,-1.65,-1.65,-1.65,-1.65,-1.65,-1.65,-1.65,-1.65,-1.65,-1.65,-1.65,-1.6402,-1.5197,-1.4698,-1.4594,-1.3382,-1.2905,-1.2905,-1.2905,-1.2905,-1.2905,-1.2905,-1.2905,-1.2798,-1.2055,-1.1789,-1.1665,-1.099,-1.0346,-0.9666,-0.8982,-0.8804,-0.8804,-0.8804,-0.8804,-0.8804,-0.8804,-0.8804,-0.8804,-0.8811,-0.8804,-0.8804,-0.8811,-0.9011,-0.9211,-0.9211,-0.9217,-0.9311,-0.9639,-0.9439,-0.9317,-0.9646,-0.9191,-0.8669,-0.8254,-0.7686,-0.7267,-0.7138,-0.7123,-0.7532,-0.8534,-0.8616,-0.8938,-0.9657,-0.9715,-0.9715,-0.9715,-0.9715,-0.9715,-0.9715,-0.9715,-0.9532,-0.9217,-0.9211,-0.9211,-0.9204,-0.8911,-0.8804,-0.8804,-0.8804,-0.8804,-0.8804,-0.8804,-0.8804,-0.8804,-0.8804,-0.8804,-0.8804,-0.8804,-0.8804,-0.8804,-2.1656,-2.187,-2.1807,-2.1282,-2.1182,-2.093,-2.0175,-2.0062,-1.9999,-1.9823,-1.9798,-1.966,-1.9271,-1.9233,-1.8958,-1.8267,-1.7852,-1.7313,-1.655,-1.65,-1.65,-1.65,-1.65,-1.65,-1.65,-1.65,-1.65,-1.65,-1.65,-1.65,-1.65,-1.65,-1.65,-1.65,-1.65,-1.6259,-1.582,-1.5039,-1.4468,-1.4003,-1.3224,-1.2905,-1.2905,-1.2905,-1.2905,-1.2905,-1.2905,-1.2905,-1.2725,-1.15,-1.1091,-1.0889,-0.9762,-0.9263,-0.9061,-0.8857,-0.8804,-0.8804,-0.8804,-0.8804,-0.8804,-0.8804,-0.8804,-0.8858,-0.9038,-0.8931,-0.8864,-0.9044,-0.9151,-0.9211,-0.9211,-0.9384,-0.9646,-0.994,-0.9746,-0.9653,-0.9947,-0.9812,-0.95,-0.897,-0.8669,-0.8521,-0.8574,-0.8492,-0.8765,-0.9584,-0.965,-0.974,-0.9957,-0.9793,-0.978,-0.998,-0.9987,-0.9987,-0.9987,-0.9786,-0.9639,-0.9552,-0.9311,-0.9211,-0.9204,-0.8911,-0.8804,-0.8804,-0.8804,-0.8804,-0.8804,-0.8804,-0.8804,-0.8804,-0.8804,-0.8804,-0.8804,-0.8804,-0.8804,-0.8804,-2.1119,-2.1343,-2.1408,-2.1081,-2.0842,-2.0578,-2.02,-1.9949,-1.9798,-1.9798,-1.9798,-1.961,-1.9058,-1.9008,-1.8694,-1.7953,-1.7363,-1.6886,-1.6525,-1.65,-1.65,-1.65,-1.65,-1.65,-1.65,-1.65,-1.65,-1.65,-1.65,-1.65,-1.65,-1.65,-1.65,-1.65,-1.6238,-1.593,-1.5543,-1.4687,-1.412,-1.3755,-1.3152,-1.2905,-1.2905,-1.2905,-1.2905,-1.2905,-1.2905,-1.27,-1.2289,-1.1174,-1.044,-0.9865,-0.9061,-0.8804,-0.8804,-0.8804,-0.8804,-0.8804,-0.8804,-0.8804,-0.8838,-0.8924,-0.8951,-0.9031,-0.9317,-0.9279,-0.9205,-0.9379,-0.9477,-0.9557,-0.9557,-0.9733,-0.9953,-1.0241,-1.0047,-0.996,-1.0254,-1.0294,-1.012,-0.961,-0.9166,-0.8957,-0.9022,-0.8656,-0.8792,-0.9718,-1.0102,-1.0294,-1.0294,-1.0157,-1.0137,-1.0287,-1.0294,-1.0294,-1.0294,-1.0151,-0.9943,-0.9708,-0.9499,-0.9324,-0.9204,-0.8911,-0.8804,-0.8804,-0.8804,-0.8804,-0.8804,-0.8804,-0.8804,-0.8804,-0.8804,-0.8804,-0.8804,-0.8804,-0.8804,-0.8804,-2.0616,-2.1018,-2.1343,-2.1343,-2.0955,-2.0616,-2.0616,-2.0137,-1.9798,-1.9798,-1.9761,-1.9509,-1.8995,-1.8895,-1.8431,-1.7423,-1.6823,-1.65,-1.65,-1.65,-1.65,-1.65,-1.65,-1.65,-1.65,-1.65,-1.65,-1.65,-1.65,-1.65,-1.65,-1.65,-1.65,-1.6479,-1.593,-1.561,-1.5454,-1.4342,-1.3815,-1.3661,-1.3128,-1.2905,-1.2905,-1.2905,-1.2905,-1.2905,-1.2905,-1.2446,-1.1701,-1.0973,-0.9865,-0.8804,-0.8804,-0.8804,-0.8804,-0.8804,-0.8804,-0.8804,-0.8804,-0.8824,-0.8891,-0.9178,-0.9271,-0.9364,-0.9659,-0.9729,-0.9722,-0.9749,-0.9933,-1.0083,-1.0083,-1.011,-1.0247,-1.0546,-1.0334,-1.0247,-1.0553,-1.0593,-1.0479,-1.0154,-0.9352,-0.8825,-0.8795,-0.8109,-0.8122,-0.9224,-1.013,-1.062,-1.0593,-1.062,-1.062,-1.0593,-1.0593,-1.0593,-1.0593,-1.0593,-1.0318,-0.9789,-0.9735,-0.9546,-0.9244,-0.8924,-0.8804,-0.8804,-0.8804,-0.8804,-0.8804,-0.8804,-0.8804,-0.8804,-0.8804,-0.8804,-0.8804,-0.8804,-0.8752,-0.8699,-1.9987,-2.0087,-2.0162,-2.0162,-2.0062,-1.9987,-1.9987,-1.9874,-1.9798,-1.9798,-1.9421,-1.897,-1.8418,-1.8003,-1.7463,-1.6773,-1.6584,-1.65,-1.65,-1.65,-1.65,-1.65,-1.65,-1.65,-1.65,-1.65,-1.65,-1.65,-1.65,-1.65,-1.65,-1.65,-1.65,-1.6488,-1.6358,-1.5788,-1.488,-1.4629,-1.3967,-1.3079,-1.2954,-1.2905,-1.2905,-1.2905,-1.2905,-1.2905,-1.2905,-1.2427,-1.1625,-1.0415,-0.9484,-0.8804,-0.8804,-0.8804,-0.8804,-0.8804,-0.8804,-0.8804,-0.8804,-0.8944,-0.9191,-0.9512,-0.976,-0.9917,-1.0007,-0.9846,-0.9746,-0.9973,-1.0074,-1.0083,-1.0083,-1.0307,-1.0519,-1.0579,-1.0539,-1.0519,-1.0586,-1.0593,-1.0479,-1.0154,-0.9562,-0.9098,-0.8813,-0.8862,-0.9018,-0.9268,-1.0309,-1.0827,-1.06,-1.0807,-1.0827,-1.06,-1.0593,-1.0593,-1.0593,-1.0593,-1.0526,-1.0392,-0.993,-0.9653,-0.9573,-0.9045,-0.8804,-0.8804,-0.8804,-0.8804,-0.8804,-0.8804,-0.8804,-0.8804,-0.8804,-0.8804,-0.8804,-0.8804,-0.8427,-0.7937,-1.9798,-1.9798,-1.9798,-1.9798,-1.9798,-1.9798,-1.9798,-1.9798,-1.9798,-1.9798,-1.9321,-1.8795,-1.8267,-1.7714,-1.7149,-1.655,-1.65,-1.65,-1.65,-1.65,-1.65,-1.65,-1.65,-1.65,-1.65,-1.65,-1.65,-1.65,-1.65,-1.65,-1.65,-1.65,-1.65,-1.6466,-1.5898,-1.5287,-1.4663,-1.4095,-1.3478,-1.2905,-1.2905,-1.2905,-1.2905,-1.2905,-1.2905,-1.2905,-1.2905,-1.223,-1.1116,-0.9762,-0.9087,-0.8804,-0.8804,-0.8804,-0.8804,-0.8804,-0.8804,-0.8804,-0.8804,-0.8991,-0.9284,-0.9613,-0.99,-1.0154,-1.0294,-1.0244,-1.0171,-1.0301,-1.0327,-1.0327,-1.0327,-1.0486,-1.0593,-1.0593,-1.0593,-1.0593,-1.0593,-1.0593,-1.0533,-1.0347,-0.9344,-0.827,-0.7286,-0.773,-0.8059,-0.8059,-0.8989,-0.9695,-0.9958,-1.0116,-1.0329,-1.06,-1.0593,-1.0593,-1.0593,-1.0593,-1.0593,-1.0586,-1.0107,-0.982,-0.9702,-0.9365,-0.9152,-0.8984,-0.8984,-0.8904,-0.8804,-0.8804,-0.8804,-0.8804,-0.8804,-0.8804,-0.8804,-0.8804,-0.8348,-0.7696,-1.9798,-1.9798,-1.9798,-1.9798,-1.9798,-1.9798,-1.9798,-1.9798,-1.9798,-1.9798,-1.9321,-1.8795,-1.8267,-1.7626,-1.7036,-1.6538,-1.65,-1.65,-1.65,-1.65,-1.65,-1.65,-1.65,-1.65,-1.65,-1.65,-1.65,-1.65,-1.65,-1.65,-1.65,-1.65,-1.6445,-1.6303,-1.5287,-1.4744,-1.4468,-1.3467,-1.2992,-1.2905,-1.2905,-1.2822,-1.2715,-1.2856,-1.2822,-1.2715,-1.2856,-1.1999,-1.0593,-0.9263,-0.8804,-0.8804,-0.8804,-0.8804,-0.8804,-0.8804,-0.8844,-0.8858,-0.8858,-0.9104,-0.9417,-0.9699,-0.998,-1.0254,-1.0539,-1.0593,-1.0593,-1.0593,-1.0593,-1.0593,-1.0593,-1.0593,-1.0593,-1.0593,-1.0593,-1.0593,-1.0593,-1.0593,-1.0593,-1.0593,-0.9192,-0.7609,-0.6013,-0.6498,-0.6915,-0.6915,-0.7634,-0.843,-0.9242,-0.9347,-0.9739,-1.0561,-1.0593,-1.0593,-1.0593,-1.0593,-1.0593,-1.0586,-1.0307,-1.004,-0.9753,-0.9735,-0.9552,-0.9284,-0.9231,-0.9078,-0.8878,-0.8831,-0.8804,-0.8804,-0.8804,-0.8804,-0.8778,-0.8646,-0.8235,-0.7696,-1.9798,-1.9798,-1.9798,-1.9798,-1.9798,-1.9798,-1.9798,-1.9798,-1.9798,-1.9798,-1.9321,-1.8795,-1.8267,-1.7262,-1.6588,-1.65,-1.65,-1.65,-1.65,-1.65,-1.65,-1.65,-1.65,-1.65,-1.65,-1.65,-1.65,-1.65,-1.65,-1.65,-1.65,-1.65,-1.6216,-1.572,-1.5543,-1.4903,-1.3909,-1.3755,-1.3372,-1.2905,-1.2905,-1.2535,-1.203,-1.2666,-1.2501,-1.203,-1.2666,-1.1999,-1.0593,-0.9263,-0.8804,-0.8804,-0.8804,-0.8804,-0.8804,-0.8804,-0.8958,-0.9158,-0.9158,-0.955,-0.9977,-1.0017,-1.0281,-1.0546,-1.0586,-1.0593,-1.0593,-1.0593,-1.0593,-1.0593,-1.0593,-1.0593,-1.0593,-1.0593,-1.0593,-1.0593,-1.0593,-1.0593,-1.0593,-1.0593,-0.9722,-0.8748,-0.7735,-0.7767,-0.7832,-0.7832,-0.8134,-0.8628,-0.9253,-0.9512,-0.9929,-1.0568,-1.0593,-1.0593,-1.0593,-1.0593,-1.0593,-1.0593,-1.0553,-1.0347,-1.0047,-0.98,-0.9659,-0.9613,-0.9324,-0.9191,-0.9131,-0.8884,-0.8804,-0.8804,-0.8804,-0.8804,-0.8725,-0.8076,-0.7777,-0.7696,-1.9396,-1.9597,-1.9798,-1.9798,-1.9798,-1.9798,-1.9798,-1.9798,-1.9698,-1.9384,-1.8882,-1.8355,-1.7802,-1.7011,-1.65,-1.65,-1.65,-1.65,-1.65,-1.65,-1.65,-1.65,-1.65,-1.65,-1.65,-1.65,-1.65,-1.65,-1.65,-1.65,-1.65,-1.65,-1.6194,-1.5588,-1.5253,-1.4618,-1.3779,-1.3443,-1.3152,-1.2905,-1.2905,-1.2452,-1.1839,-1.2163,-1.208,-1.1789,-1.1733,-1.1325,-1.0593,-0.9263,-0.8804,-0.8804,-0.8804,-0.8804,-0.8838,-0.8978,-0.9111,-0.9251,-0.9417,-0.9793,-1.0083,-1.0083,-1.0341,-1.0466,-0.9983,-0.9881,-1.0009,-1.0498,-1.0593,-1.0593,-1.0593,-1.0593,-1.0593,-1.0593,-1.0593,-1.0593,-1.0593,-1.0593,-1.0434,-0.9919,-0.953,-0.8947,-0.8091,-0.7994,-0.7994,-0.7994,-0.8118,-0.8298,-0.8554,-0.9146,-0.9586,-0.9856,-1.0333,-1.0593,-1.0593,-1.0593,-1.0593,-1.0593,-1.0593,-1.0519,-1.0392,-1.0265,-1.0023,-0.9708,-0.9546,-0.9299,-0.8958,-0.8858,-0.8804,-0.8804,-0.8804,-0.8804,-0.8752,-0.8427,-0.8049,-0.7696]}]]